GFSGL_sfc_temp_000.txt.gz
Temp
45 44 44 43 43 43 43 42 42 42 42 41 41 40 39 39 39 37 37 37 37 36 35 35 34 35 36 36 36 36 35 34 30 35 38 39 37 37 39 40 40 39 40
44 44 43 43 42 42 41 41 42 41 41 40 40 40 39 39 38 36 36 36 35 34 34 33 33 38 34 34 34 34 34 34 32 30 34 34 35 37 37 34 38 41 39
43 42 41 41 41 40 40 41 41 41 40 40 40 39 39 38 37 37 36 35 35 34 33 32 32 33 32 33 33 33 34 37 35 33 32 35 35 35 33 35 35 35 38
42 41 40 40 40 40 40 40 41 40 39 39 39 38 37 37 37 37 37 35 34 35 34 33 32 33 32 33 35 36 36 33 33 32 30 31 32 33 32 30 29 32 32
41 40 39 39 40 40 40 40 40 39 39 38 37 36 36 37 42 40 39 36 34 32 32 33 34 36 40 40 38 35 35 33 31 30 30 30 28 29 28 29 28 29 31
40 39 40 40 40 40 40 39 38 38 36 36 34 34 33 39 43 45 43 38 34 32 30 32 33 37 36 41 40 41 40 35 31 30 28 27 27 28 28 28 28 26 23
39 39 40 40 40 39 39 38 36 35 34 33 33 32 32 32 43 43 43 38 33 32 31 32 33 37 36 33 36 39 39 39 36 33 28 27 27 28 28 27 26 25 25
39 39 40 40 39 38 37 35 34 33 33 32 32 31 30 35 41 42 41 34 31 30 31 31 31 31 32 36 35 33 32 31 31 33 32 32 31 32 31 31 27 27 27
38 39 40 39 38 36 34 33 33 32 31 30 31 30 29 30 39 40 39 33 32 31 31 31 32 33 37 40 33 30 30 30 36 37 36 36 36 36 35 29 25 23 21
38 38 38 37 35 34 32 32 32 30 30 31 31 30 33 29 36 39 38 34 30 30 31 32 36 36 39 37 34 30 25 27 30 30 28 30 31 31 34 30 26 21 21
37 36 36 35 34 33 31 30 29 29 29 28 28 28 28 29 29 38 39 35 33 32 31 31 32 37 36 38 37 29 29 34 30 27 26 27 29 29 29 29 27 24 22
35 35 34 33 35 35 30 29 28 27 26 25 26 26 29 28 35 37 39 39 38 33 32 32 32 36 36 35 33 35 35 33 27 26 25 26 25 24 25 26 27 26 27
33 32 31 32 31 30 28 27 27 26 25 25 29 28 29 31 28 36 38 39 39 35 33 34 35 35 34 31 32 33 33 26 25 24 24 23 24 25 26 26 27 27 27
31 30 29 28 29 28 29 29 27 25 24 29 29 28 27 29 30 32 34 32 36 33 35 27 32 32 32 30 29 29 27 27 26 24 23 25 27 25 25 25 24 25 24
29 29 27 28 26 26 27 27 29 27 30 29 28 28 27 27 31 36 36 34 34 34 33 28 27 26 24 25 26 26 27 26 24 24 24 23 25 25 24 25 24 24 22
28 28 27 27 25 27 25 26 33 35 36 36 36 34 32 35 37 37 37 36 36 35 28 25 23 22 22 23 23 24 24 25 24 23 22 22 22 22 22 24 24 23 23
26 27 27 29 27 25 25 24 23 28 34 34 35 35 35 35 35 36 35 35 32 31 25 23 22 22 22 22 22 21 21 23 23 22 21 22 22 21 22 22 23 24 23
26 33 26 25 24 24 25 25 24 24 24 25 31 32 34 34 34 34 33 30 25 26 25 23 21 22 22 21 21 21 21 21 21 21 22 21 21 21 20 21 22 22 24
26 27 26 25 25 27 26 25 24 24 24 24 26 29 30 32 33 32 31 24 23 23 23 22 22 22 21 21 21 21 21 20 22 21 20 21 21 21 21 22 23 26 27
25 31 31 25 25 25 24 24 24 24 23 23 24 24 26 29 25 24 25 24 24 23 23 22 22 22 21 21 21 20 20 20 20 20 20 21 21 22 22 22 24 22 23
24 25 31 24 24 24 24 23 23 23 23 23 23 26 31 26 23 23 23 23 23 23 22 21 21 21 20 20 20 19 19 19 20 20 20 21 22 22 23 25 25 24 23
24 24 24 23 24 24 24 24 23 23 23 22 23 25 29 24 23 22 23 23 23 23 23 22 20 20 21 20 20 19 19 19 19 20 21 21 22 23 25 25 24 23 23
22 22 24 23 24 26 22 23 22 22 22 23 23 24 24 22 22 22 22 22 22 21 21 21 20 20 21 21 21 20 19 19 21 22 21 22 24 27 27 24 23 22 22
22 22 22 22 22 23 21 22 22 24 24 23 22 22 21 21 21 21 21 20 20 19 20 20 20 20 20 20 21 22 22 23 23 25 28 30 29 27 26 23 24 24 22
21 20 22 20 20 21 21 21 21 21 22 22 21 21 20 20 20 19 19 19 18 18 19 19 20 20 20 20 21 22 24 29 32 32 32 31 30 29 28 26 25 27 25
21 19 19 20 19 20 20 20 21 21 19 18 19 17 18 19 19 18 18 18 17 17 18 19 20 20 20 21 22 25 31 33 34 35 32 31 30 29 29 24 21 22 24

GFSGL_sfc_temp_003.txt.gz
Temp
45 43 43 42 43 42 42 41 41 41 41 40 39 39 38 37 37 36 35 36 35 34 34 33 33 33 32 33 33 33 32 31 27 32 36 37 36 36 38 39 40 38 39
43 42 42 42 42 41 41 40 41 40 40 39 38 38 37 37 36 35 34 34 34 33 33 32 32 37 31 31 31 31 31 32 30 28 33 34 35 36 36 33 36 39 37
43 42 41 40 40 40 40 40 40 39 38 38 37 36 36 36 35 35 35 34 33 33 32 31 31 31 29 30 31 31 32 36 33 30 30 34 34 34 34 33 33 34 37
42 41 40 39 39 39 39 39 39 38 37 36 36 36 35 35 35 36 35 34 33 34 33 32 31 31 30 31 33 33 35 32 32 30 30 30 32 33 31 29 29 32 31
41 40 39 39 39 39 39 38 38 37 36 35 36 34 33 35 40 38 36 34 32 31 31 31 33 35 40 39 37 35 34 32 31 29 29 29 28 29 27 29 28 29 29
39 38 39 39 39 39 38 37 36 35 35 34 33 32 32 38 42 44 41 34 31 30 29 31 31 35 35 40 40 40 39 34 31 29 26 27 27 27 28 27 27 25 22
38 38 39 39 39 37 37 36 35 33 32 32 31 31 30 30 42 43 42 33 30 29 31 30 31 36 35 32 35 38 36 36 37 33 28 27 26 28 28 26 25 25 25
37 38 39 39 38 37 35 33 32 31 31 30 31 30 29 32 40 41 41 31 29 29 30 29 29 30 31 35 34 32 30 30 31 33 31 31 31 32 31 31 28 26 27
37 38 39 38 36 34 32 31 31 30 29 30 30 29 27 28 38 39 38 30 29 29 30 30 30 32 36 39 34 29 29 29 34 36 36 36 36 36 34 29 24 22 21
37 37 36 35 34 32 30 29 29 29 30 30 29 28 31 28 35 39 38 33 28 30 30 30 36 35 39 38 33 30 24 26 28 29 28 29 31 31 34 30 26 21 21
36 35 34 33 32 30 29 28 28 27 27 26 27 26 26 28 29 38 39 35 32 32 31 32 31 36 38 37 36 29 29 33 29 26 26 27 28 29 29 29 27 24 22
34 33 31 30 33 32 28 27 26 25 24 24 24 25 27 27 34 36 38 39 39 32 31 31 30 36 36 35 33 34 35 33 26 25 25 26 25 24 25 26 27 26 27
31 30 29 30 29 29 26 25 26 24 23 24 27 26 27 30 28 35 37 38 38 35 32 34 34 34 33 31 32 33 32 25 25 23 24 22 23 25 25 26 27 27 27
28 27 28 27 26 26 28 29 25 24 23 27 27 26 26 28 29 30 32 31 35 34 34 25 31 31 31 30 28 28 26 27 26 23 23 24 26 24 24 25 23 24 23
27 28 26 27 24 24 27 25 28 26 28 28 27 27 26 26 30 36 35 34 33 34 32 27 26 25 23 24 24 25 25 25 23 23 22 22 23 23 23 24 23 23 22
28 28 27 26 24 26 24 24 32 34 35 35 35 33 31 34 36 36 37 36 36 34 28 24 22 22 21 22 22 22 23 23 22 21 21 20 20 21 21 23 23 22 22
25 27 26 29 25 24 24 23 22 28 33 33 34 34 34 34 34 35 35 34 32 31 24 22 21 21 21 21 21 20 19 21 22 21 20 20 21 20 21 20 21 22 22
25 32 25 24 23 23 24 24 23 22 22 23 30 31 32 33 33 34 33 30 24 25 23 22 20 21 20 20 20 20 20 20 20 20 21 20 19 20 20 20 21 21 23
26 26 25 23 23 26 24 24 23 23 22 22 24 27 29 31 33 31 30 23 22 22 22 21 21 21 20 20 20 20 19 19 21 20 19 19 20 20 20 21 21 26 27
25 30 30 24 23 23 23 23 22 22 22 21 22 22 25 28 24 23 23 23 22 22 22 21 21 20 20 19 19 19 19 19 19 19 19 20 20 21 20 21 22 23 23
23 24 30 23 22 23 23 22 22 21 21 21 21 24 30 26 22 21 21 22 22 22 21 20 20 19 19 19 19 19 19 19 19 19 19 20 21 20 22 23 24 25 23
23 23 23 22 23 23 23 22 21 21 21 20 21 24 28 23 21 21 21 22 22 22 21 20 19 19 19 19 19 18 18 17 18 19 20 21 21 22 23 24 26 24 23
21 21 22 22 22 24 21 21 20 20 21 21 22 22 22 21 21 20 21 21 21 20 20 20 19 19 20 21 21 20 19 19 20 21 20 21 22 23 27 26 26 24 21
21 20 21 21 21 22 20 20 20 22 22 22 21 21 20 20 20 20 20 19 19 18 19 19 19 19 19 20 21 22 22 22 23 24 25 27 29 29 28 27 26 24 20
20 19 20 19 18 19 19 19 20 20 21 20 20 20 19 19 19 18 18 17 17 17 18 19 19 19 20 20 20 21 23 29 32 32 32 31 29 29 29 28 27 26 22
19 17 18 19 18 18 19 19 19 19 18 16 17 17 17 17 18 17 16 16 16 17 17 18 19 19 19 20 22 25 30 33 34 35 31 29 31 30 29 26 24 26 22

GFSGL_sfc_temp_006.txt.gz
Temp
44 44 43 42 42 41 40 40 40 39 39 39 38 38 37 36 35 34 33 35 34 33 33 32 32 32 31 30 30 30 29 29 25 30 34 36 35 35 37 37 38 37 38
43 43 42 42 41 40 39 39 39 38 38 38 37 37 36 35 34 33 34 34 32 32 32 31 31 36 31 30 30 29 29 30 28 26 31 33 33 35 35 34 36 39 36
43 42 41 40 39 38 38 38 38 38 37 37 36 35 34 34 34 34 33 33 32 32 31 30 30 29 28 29 29 29 30 33 32 30 29 33 33 34 33 33 33 33 36
42 42 39 38 38 37 38 38 37 37 36 35 35 34 34 34 34 35 34 32 31 31 31 30 30 29 29 29 30 31 34 31 31 30 29 30 30 31 31 29 28 31 31
41 40 38 37 37 37 37 36 36 36 35 34 34 33 32 34 39 36 35 33 30 29 29 30 31 33 38 38 36 33 32 31 30 29 29 28 28 28 26 28 27 29 30
40 38 37 37 37 36 36 35 36 34 33 33 31 31 30 36 40 43 41 32 30 29 27 29 29 34 33 39 39 39 38 32 28 27 26 26 26 27 28 27 26 25 22
38 37 37 37 37 35 35 35 34 32 30 30 29 29 28 29 40 42 42 33 30 28 30 30 31 35 34 31 34 38 34 37 37 31 26 26 26 28 27 26 25 25 25
36 37 37 37 35 35 34 33 31 29 29 28 28 28 27 31 39 40 40 31 29 28 30 29 28 29 30 34 34 31 29 29 31 32 30 30 31 32 31 30 27 26 28
36 36 36 36 34 33 31 30 29 28 27 27 28 27 26 27 37 39 38 30 30 29 30 29 29 30 36 39 34 29 29 29 34 36 36 36 35 35 34 30 24 22 21
35 35 35 35 33 30 29 28 27 26 28 29 29 27 30 26 34 38 37 32 28 30 30 30 36 36 38 37 33 30 24 26 28 29 28 28 30 29 34 30 26 21 21
34 34 32 31 29 28 27 26 25 25 26 24 26 25 25 27 28 37 38 34 32 32 31 31 31 36 37 37 36 28 28 32 30 26 25 26 27 28 27 27 26 24 21
32 31 29 29 32 30 26 24 24 24 23 22 23 25 27 26 33 35 37 38 38 32 31 30 31 36 36 35 32 33 34 33 26 25 24 25 23 22 24 25 25 26 27
29 28 28 28 28 28 24 24 25 23 22 23 27 25 26 30 27 34 36 37 38 34 32 34 34 34 33 30 31 32 31 24 25 23 23 21 22 23 23 24 25 26 27
27 26 27 26 25 24 28 28 25 23 22 26 26 26 25 27 28 30 30 30 34 33 34 25 31 31 30 29 27 27 26 26 25 23 22 23 24 22 22 24 22 23 22
26 27 26 26 23 23 26 24 27 24 25 27 26 26 25 25 30 35 35 33 32 33 32 27 25 24 22 23 24 24 25 25 22 22 21 21 22 22 21 24 22 22 20
27 27 27 25 23 25 23 23 31 33 35 35 35 32 31 34 35 35 36 35 35 33 27 23 21 21 20 21 21 21 22 22 21 21 20 20 19 20 21 22 22 21 20
25 26 26 28 25 23 23 22 21 26 32 33 33 33 33 33 33 35 34 34 31 30 23 21 20 20 20 20 20 20 19 20 21 20 19 19 20 19 20 19 20 20 20
25 32 24 23 22 22 23 23 22 21 21 22 28 30 32 32 33 33 32 29 23 24 22 21 19 20 20 19 19 19 19 19 19 19 20 20 18 18 18 18 19 19 21
26 25 24 23 23 25 23 23 22 21 21 21 22 26 28 30 32 31 29 22 20 20 21 20 20 20 19 20 19 19 19 19 20 20 18 19 19 19 18 19 20 25 26
24 30 29 23 23 22 22 22 21 20 20 20 20 21 23 27 23 22 22 22 21 21 21 20 19 19 19 19 19 19 18 19 19 18 19 19 19 20 19 19 21 21 22
23 24 29 22 21 22 21 21 21 20 19 19 20 23 29 25 20 20 20 20 21 21 19 19 19 19 18 18 18 18 18 18 18 18 18 19 20 19 21 22 23 23 25
22 22 22 21 22 21 21 21 20 19 20 19 20 22 27 21 20 20 20 20 21 21 20 19 18 18 19 18 18 18 18 18 19 19 19 20 21 21 22 22 23 26 23
20 20 21 21 21 23 20 19 19 19 19 20 20 21 21 20 20 19 19 20 20 18 18 19 18 18 19 20 20 20 19 19 20 21 21 21 22 22 23 26 26 25 21
20 19 20 19 19 21 18 18 19 21 21 21 20 20 19 19 19 18 18 17 17 16 18 18 18 18 18 19 20 21 21 22 23 24 26 27 29 29 29 27 26 25 22
19 17 19 18 17 18 18 18 18 19 19 19 18 18 18 17 17 16 17 17 16 16 17 18 18 18 19 19 19 20 22 29 32 32 33 30 29 29 29 26 22 23 19
18 16 16 18 17 17 17 17 18 17 16 15 16 15 15 15 16 16 15 15 15 15 15 17 18 18 18 19 21 24 30 32 34 36 31 30 30 30 30 28 22 23 20

GFSGL_sfc_temp_009.txt.gz
Temp
52 51 50 49 49 49 49 48 47 47 47 46 46 45 45 44 44 44 43 43 42 42 42 40 40 41 40 40 40 39 38 37 33 37 40 42 41 41 42 44 43 42 43
49 49 48 48 47 47 46 46 47 46 46 45 44 44 43 43 43 42 42 42 41 40 39 38 38 40 38 39 38 37 37 38 35 32 36 38 39 41 41 40 41 42 42
48 47 47 46 46 45 45 45 45 44 44 43 43 42 42 41 42 42 42 41 40 39 38 37 37 37 36 37 37 36 37 37 37 34 34 39 39 39 37 39 39 39 41
47 47 45 45 45 44 44 43 43 43 42 42 42 41 40 40 41 41 41 41 40 39 38 37 37 36 36 36 37 37 37 37 36 35 34 33 35 37 37 35 34 37 37
45 45 43 43 43 43 42 42 41 42 41 41 40 39 39 40 42 42 42 41 39 37 37 37 38 38 38 39 39 38 37 36 34 31 32 32 33 33 32 34 32 34 35
44 42 41 42 42 41 41 40 40 39 39 39 38 37 37 39 40 43 43 41 39 37 36 37 37 36 37 38 39 39 39 33 31 31 31 31 31 32 34 31 30 28 26
42 41 41 41 40 39 40 39 38 38 38 37 37 36 36 36 40 41 42 40 38 37 37 37 36 38 37 36 37 38 36 38 37 35 31 31 31 32 30 28 29 29 29
41 41 41 40 39 38 38 38 37 37 36 36 35 35 34 36 39 40 40 39 38 37 37 36 35 35 36 36 37 33 34 35 36 36 34 34 33 35 34 33 31 30 32
40 40 40 39 38 37 36 36 35 36 35 34 35 34 33 34 37 38 39 38 37 36 37 37 36 36 37 39 35 32 34 34 36 36 36 36 36 36 35 32 28 25 25
39 38 39 38 37 36 35 35 34 34 34 35 34 33 33 33 35 37 38 37 35 35 37 37 37 37 38 38 35 34 29 31 31 32 33 33 33 33 34 33 29 23 23
37 37 36 36 34 34 33 33 32 32 32 31 32 33 33 33 34 37 38 37 36 35 35 35 36 37 37 37 36 33 31 34 33 30 30 30 32 32 32 31 29 25 23
36 34 34 34 36 33 32 31 31 30 30 30 30 32 33 33 34 35 37 38 38 35 33 35 35 36 36 35 33 33 34 33 29 28 28 28 28 27 28 28 28 28 28
33 32 32 33 32 32 31 30 32 30 29 29 30 30 31 33 33 34 36 37 37 35 36 36 35 34 33 31 31 32 31 28 27 25 26 25 26 27 26 27 28 28 28
31 31 31 31 30 30 32 32 30 29 29 30 30 29 30 30 32 33 35 36 35 35 35 33 32 31 30 30 29 29 29 28 27 25 25 26 28 26 26 27 25 26 25
31 31 31 29 29 29 30 30 31 31 31 31 31 31 29 29 32 35 35 34 34 35 33 30 28 27 26 26 27 27 27 27 25 25 24 24 25 25 25 27 25 25 23
30 30 30 30 29 30 29 29 32 34 34 34 34 33 33 34 34 35 36 35 35 33 29 25 24 24 23 24 23 24 25 25 24 23 23 22 22 22 23 25 25 24 23
28 29 31 30 29 28 27 27 25 29 31 32 32 32 33 33 33 34 34 33 31 30 25 24 23 22 22 22 22 22 22 23 23 22 21 21 22 23 22 22 23 23 23
30 31 28 28 27 27 27 26 26 25 24 25 29 30 31 32 32 33 32 29 25 25 24 22 21 22 22 21 22 22 22 22 22 22 22 22 21 21 21 21 22 22 23
29 29 28 27 27 28 27 26 25 25 24 24 25 27 28 29 32 31 29 24 22 22 22 22 22 22 21 21 21 21 21 21 22 22 21 21 21 21 21 22 22 25 27
28 32 30 27 26 26 25 25 24 24 23 23 23 23 25 27 25 24 24 23 22 22 22 21 21 21 21 20 20 21 20 21 21 21 21 21 22 22 21 22 23 24 25
26 26 30 25 25 25 24 24 24 23 22 22 22 24 29 27 23 22 22 22 22 22 21 21 21 20 20 20 20 20 20 20 21 21 21 22 22 22 24 24 25 26 27
25 25 25 24 24 23 24 24 22 22 22 21 22 23 26 24 22 22 22 22 23 23 22 21 19 19 20 20 20 20 19 19 20 21 22 22 23 24 25 26 26 27 29
23 23 23 23 23 24 22 22 21 21 21 22 22 22 22 22 21 21 20 21 21 20 21 20 19 19 21 21 21 20 20 20 21 22 22 23 24 25 27 27 29 29 28
22 22 22 21 21 22 20 21 21 21 22 21 21 21 20 20 20 19 19 19 19 19 19 19 19 19 19 20 21 22 22 22 24 25 27 29 31 31 31 30 30 28 28
21 20 20 19 19 19 19 19 19 20 20 19 19 18 18 18 18 17 18 18 18 17 18 19 19 19 19 20 20 20 22 28 31 32 33 32 31 31 31 31 29 28 28
20 18 18 19 18 18 18 18 18 18 17 16 16 16 16 16 16 17 17 17 17 17 16 18 19 19 19 20 21 24 30 32 33 36 33 31 31 32 32 30 27 28 28

GFSGL_sfc_temp_012.txt.gz
Temp
60 54 55 55 57 58 60 59 58 57 56 55 55 54 53 53 53 53 52 51 49 49 48 46 45 46 45 46 45 45 43 42 38 42 45 46 45 45 46 48 47 46 46
54 54 54 55 58 59 58 57 57 55 55 54 53 53 52 51 51 51 50 49 48 46 46 44 43 45 43 44 44 42 42 43 39 36 41 42 43 45 44 43 45 47 46
54 55 57 58 58 57 55 55 55 54 53 52 52 51 50 49 49 49 49 48 48 46 45 44 43 43 42 43 42 41 42 42 41 39 39 42 43 42 42 43 42 43 44
54 58 56 56 56 55 54 53 52 52 51 51 50 49 48 48 47 47 47 47 47 46 45 44 43 42 41 41 41 41 42 40 40 39 38 37 38 41 41 39 38 40 40
55 55 54 54 53 52 51 51 50 50 49 49 48 47 47 47 47 45 47 47 46 45 45 44 43 42 40 40 40 40 39 37 37 34 33 36 36 38 36 38 36 37 38
54 51 50 50 50 49 49 49 48 47 47 47 46 46 45 46 40 42 43 45 45 43 42 43 43 41 41 41 41 40 39 34 32 33 33 34 35 37 37 35 33 31 29
50 50 49 49 47 48 48 48 46 46 46 45 45 45 44 44 40 41 41 43 43 42 41 41 41 42 41 40 39 40 39 39 39 37 34 35 34 36 33 31 32 31 31
49 48 48 47 46 47 47 45 45 46 45 45 44 43 42 42 38 40 40 43 43 42 41 41 41 40 40 38 38 35 36 38 40 39 37 37 36 36 36 35 33 32 34
47 47 47 47 45 45 44 44 44 44 44 44 43 42 41 42 38 38 39 41 41 41 42 42 41 39 39 39 36 33 36 38 40 39 38 38 38 38 37 34 29 28 27
46 46 47 47 45 44 43 43 42 44 42 43 41 42 38 40 39 37 39 40 39 40 41 41 40 39 39 38 36 36 33 34 34 34 37 37 37 37 37 36 32 26 26
46 46 45 45 44 44 43 43 42 42 41 41 40 41 40 39 39 38 38 39 39 38 38 38 39 39 38 38 37 35 33 35 34 35 34 35 36 37 37 35 33 28 25
44 43 42 43 42 42 41 41 41 41 40 39 39 40 41 40 38 37 37 38 38 37 35 38 39 38 36 36 35 34 35 34 34 32 31 32 32 31 32 32 31 30 30
42 41 40 41 40 41 41 40 40 40 38 38 37 37 38 39 39 37 37 38 39 36 38 38 37 36 35 34 34 33 33 33 31 29 28 29 30 31 30 31 31 32 31
40 40 40 39 39 40 39 39 39 38 37 36 36 35 36 36 37 38 38 38 38 37 37 36 36 34 34 33 33 34 33 33 30 28 28 29 31 31 30 31 29 29 28
39 39 39 39 39 38 38 38 38 38 37 35 35 35 34 33 35 36 36 36 36 36 35 34 33 32 31 31 31 32 32 32 28 28 27 27 27 29 28 30 29 28 26
39 39 38 38 38 37 37 38 34 34 34 34 34 34 35 35 35 35 35 36 35 34 31 30 29 29 28 28 28 28 29 28 28 26 26 26 25 25 26 28 28 27 26
39 38 37 37 37 36 35 34 33 36 34 33 33 33 33 33 33 33 34 33 33 31 29 28 27 27 27 26 26 26 25 27 26 26 25 25 25 26 25 25 26 27 26
37 35 37 36 36 36 34 33 33 31 30 32 34 32 32 32 32 33 32 31 30 30 28 27 26 26 26 25 25 25 26 26 26 25 25 25 24 24 24 24 25 25 26
37 36 36 36 35 34 34 33 32 31 30 30 31 32 32 31 33 33 31 28 26 26 27 26 27 26 25 25 25 25 24 24 25 24 24 24 25 24 24 25 25 27 28
36 33 34 35 34 33 32 31 30 30 29 30 29 29 30 31 29 29 29 28 26 26 26 26 26 26 25 24 24 24 24 24 24 24 24 25 25 25 24 25 27 26 28
35 34 31 33 32 31 31 30 29 29 28 28 28 29 29 28 27 27 26 26 26 26 26 26 25 25 24 24 23 24 23 23 24 24 24 24 25 24 26 28 28 29 29
34 32 32 31 30 29 30 29 28 28 27 27 27 28 28 27 27 26 26 26 26 27 26 25 24 24 23 23 23 23 22 22 23 24 24 24 24 26 28 29 30 30 31
32 31 30 30 29 28 28 28 27 27 27 27 27 26 26 26 25 25 24 25 25 25 25 25 23 23 24 24 24 23 22 22 24 24 23 24 26 27 29 30 31 31 31
30 29 28 28 27 27 27 27 27 26 25 25 25 25 24 24 24 24 23 23 24 23 24 24 24 22 22 23 24 25 25 25 25 25 26 29 31 32 32 32 32 31 31
29 28 27 26 25 25 25 25 25 25 24 24 23 23 23 23 22 22 23 23 22 22 23 23 23 22 22 22 22 23 24 28 31 32 33 33 32 32 32 33 31 32 32
27 26 26 26 25 24 24 24 24 23 22 21 21 21 21 21 22 22 22 22 22 22 21 22 23 22 22 23 24 26 30 32 33 36 34 33 32 33 33 32 30 31 31

GFSGL_sfc_temp_015.txt.gz
Temp
65 61 59 57 59 59 59 59 58 60 58 57 56 56 55 55 55 54 53 52 51 50 50 48 46 47 45 45 45 44 42 41 36 40 43 45 44 43 45 46 45 45 45
64 60 56 57 57 58 58 59 59 58 58 56 56 55 54 53 53 52 51 52 50 48 48 46 44 47 44 44 43 42 41 42 38 35 40 40 41 43 43 41 43 46 43
58 55 55 55 56 56 57 57 58 56 55 55 54 53 52 51 51 51 51 50 49 48 47 46 44 44 42 42 42 41 41 42 40 38 36 40 40 42 39 41 41 42 44
55 54 53 54 55 55 55 56 55 54 53 53 52 51 50 49 49 49 49 48 48 48 47 46 45 43 41 41 39 39 40 38 38 36 35 34 36 38 39 37 36 38 37
54 52 53 54 55 55 54 53 53 53 52 51 50 49 48 48 49 44 46 46 46 46 46 46 45 44 43 42 40 38 38 36 34 32 32 33 33 34 33 36 34 34 35
52 51 52 53 53 51 51 50 50 49 49 48 48 47 46 47 41 42 43 42 44 44 43 43 44 42 43 43 43 42 40 35 32 32 31 31 32 34 35 32 30 29 26
47 48 51 50 49 49 49 49 48 48 48 47 46 46 45 45 41 41 42 41 42 42 41 40 41 43 41 41 41 41 39 40 40 36 33 33 32 33 31 29 30 29 28
46 49 49 49 47 48 48 47 47 47 46 46 45 45 44 44 39 40 40 40 42 42 41 42 41 40 40 40 38 35 36 36 38 39 37 35 35 35 33 33 32 30 31
44 47 47 48 47 47 46 46 46 45 45 44 44 43 43 43 40 39 39 39 40 40 42 42 41 40 41 41 37 32 34 36 40 40 40 39 40 40 39 34 28 27 26
45 48 49 49 47 45 45 44 44 44 43 43 42 43 42 40 42 39 39 38 37 39 40 40 42 40 41 41 36 34 31 32 33 33 35 36 37 37 39 36 32 26 25
48 47 47 46 45 45 44 44 44 42 42 42 41 43 42 42 40 40 39 37 37 36 36 37 38 40 40 39 38 34 32 35 34 32 33 33 34 34 35 33 32 29 25
45 44 43 43 44 44 43 42 42 41 41 41 41 41 42 42 41 40 38 38 39 37 35 36 37 39 39 38 36 36 36 36 32 31 30 29 29 28 29 30 30 30 30
43 42 42 42 42 42 42 41 40 40 39 39 38 37 38 39 39 40 39 39 39 37 37 38 38 37 37 35 35 36 36 32 31 29 28 27 28 29 28 29 30 31 31
41 40 41 40 41 41 40 40 40 38 38 37 36 35 36 36 37 37 36 36 37 37 36 35 35 36 36 35 34 34 33 32 31 28 27 28 29 27 26 28 27 27 26
41 40 40 40 41 40 39 39 38 39 36 34 34 34 32 32 34 36 35 35 35 35 35 32 32 32 30 30 31 31 31 31 28 28 26 26 26 26 26 27 27 26 24
39 39 40 39 39 38 38 37 36 35 35 35 35 33 33 35 35 35 35 36 36 35 31 29 29 28 27 28 27 27 27 27 27 26 25 25 24 24 24 26 26 25 24
40 39 37 38 38 37 36 35 34 36 36 36 35 34 34 34 34 33 34 35 34 34 29 27 26 26 26 26 26 25 24 26 26 25 24 24 24 24 25 23 24 24 24
38 38 38 37 37 36 35 34 34 32 31 32 36 35 35 34 33 34 34 33 29 30 28 27 25 26 26 25 25 24 24 24 24 24 24 24 24 23 23 23 23 23 23
38 37 37 36 35 34 34 33 33 32 31 31 32 34 34 34 34 35 34 29 27 26 27 26 26 26 25 25 24 24 23 23 24 24 23 23 24 24 23 24 24 28 28
35 34 35 35 34 33 33 32 31 31 30 30 30 30 30 30 28 29 29 28 27 26 27 25 25 25 24 24 23 23 22 23 23 23 23 23 24 24 24 24 25 25 25
36 34 32 34 33 32 31 31 30 29 29 29 29 31 32 28 27 27 27 27 26 26 25 25 24 24 23 23 23 22 22 22 22 22 23 23 24 23 25 25 26 27 28
35 33 32 31 31 31 30 30 29 29 28 28 28 29 30 28 27 26 26 26 26 26 26 24 23 23 23 22 22 21 21 21 22 22 23 23 23 24 26 26 27 29 30
33 32 31 31 30 30 30 29 29 28 27 27 27 27 27 26 26 25 25 25 25 24 24 24 23 22 23 23 23 23 21 21 22 23 23 23 24 25 26 29 31 30 29
31 30 30 29 29 28 28 27 27 27 27 26 26 25 25 25 24 24 24 23 23 23 23 23 23 22 22 22 23 24 24 24 25 25 25 27 29 32 31 31 30 29 29
30 29 29 28 27 27 26 27 26 26 26 25 24 24 24 23 23 22 23 23 22 22 23 23 22 22 22 22 23 23 25 29 31 32 33 31 31 31 30 30 29 29 29
29 28 27 27 26 26 25 25 25 24 23 22 22 22 22 21 22 22 22 22 22 21 20 22 23 22 23 23 24 27 31 32 34 36 32 32 31 32 31 29 28 28 27

GFSGL_sfc_temp_018.txt.gz
Temp
59 59 58 55 57 59 59 58 56 56 55 53 48 47 47 47 47 46 45 46 44 43 42 41 40 39 37 36 36 35 34 33 31 35 37 38 36 36 40 40 42 40 41
58 57 56 58 58 58 56 56 56 55 54 53 48 48 47 47 46 46 44 44 43 41 41 39 38 43 36 36 34 33 33 33 32 31 35 35 34 36 38 36 40 43 41
57 55 56 56 56 55 54 55 55 53 51 47 47 47 46 46 46 45 44 43 42 41 40 38 38 37 34 33 33 32 32 37 32 31 31 34 35 35 35 35 36 38 40
52 54 54 54 54 53 53 53 52 51 50 46 45 45 45 46 46 44 43 41 40 40 40 39 38 37 35 33 34 32 35 31 32 31 30 30 31 34 33 31 32 33 34
51 52 52 53 52 52 51 50 50 49 45 45 44 44 45 45 45 40 40 39 37 37 38 39 39 40 44 42 39 32 32 31 29 27 30 31 30 30 29 31 30 31 32
52 50 50 50 50 48 49 47 47 44 42 45 44 42 42 46 43 43 41 37 36 35 34 36 37 40 39 43 43 43 41 33 30 29 30 28 29 29 27 29 28 26 25
47 46 46 45 43 44 46 44 42 42 43 42 41 41 42 39 42 42 42 36 34 33 33 34 35 41 38 35 38 41 39 40 40 35 30 30 29 30 27 27 28 28 27
42 41 41 40 40 44 44 43 43 42 41 40 40 42 40 41 41 40 41 34 33 33 33 34 33 33 34 37 34 29 30 31 32 35 34 33 32 34 34 32 31 29 30
39 39 39 41 41 42 42 40 41 40 40 41 40 39 37 35 41 40 38 32 31 31 34 34 35 33 40 42 35 26 30 31 37 39 39 39 39 39 39 34 28 25 25
38 40 42 42 43 40 40 38 40 41 39 39 37 36 39 34 42 41 38 33 28 29 31 33 39 38 40 41 35 32 28 29 29 30 31 32 34 32 37 32 28 23 23
39 43 43 42 41 41 41 41 37 35 35 34 34 35 35 35 34 41 40 33 30 30 30 30 31 39 40 40 40 31 30 34 34 30 29 29 30 30 30 30 29 26 24
42 41 41 42 43 40 35 34 34 34 33 32 32 31 32 33 40 39 40 39 38 31 30 30 30 38 38 38 36 37 37 37 29 28 28 27 26 26 27 27 28 27 28
41 39 37 36 36 36 34 33 32 33 31 30 30 29 29 32 31 39 39 38 37 34 32 35 37 37 36 34 36 37 36 27 28 26 25 24 25 26 26 26 26 27 27
36 35 34 33 34 34 33 32 30 29 28 29 28 27 27 28 28 29 31 29 34 33 34 28 34 34 35 34 31 30 27 28 28 26 25 26 27 26 25 25 24 25 24
34 33 33 33 32 30 30 29 30 29 29 26 26 27 24 24 29 34 33 31 30 34 34 27 26 25 25 26 26 26 27 27 25 25 24 25 25 25 25 26 25 24 23
32 31 30 29 30 29 28 28 37 36 36 35 35 32 29 33 35 35 35 35 36 36 29 24 22 22 23 24 24 24 25 25 24 24 23 23 23 22 22 24 25 23 21
29 29 30 31 28 27 28 27 25 30 38 37 37 37 36 35 35 35 35 36 35 33 24 21 20 21 22 22 22 22 21 23 24 23 22 22 22 22 24 22 22 23 22
30 37 28 28 27 27 27 27 26 25 24 24 33 34 36 36 34 34 35 33 25 27 25 23 19 21 22 21 21 21 22 23 22 22 22 23 22 22 21 22 22 22 22
29 28 28 27 26 28 27 27 26 25 24 24 25 29 31 33 33 33 33 25 23 23 24 21 21 21 21 21 21 22 22 21 23 22 21 22 22 22 22 23 23 27 27
28 34 32 27 27 26 26 25 25 24 23 23 23 23 25 26 25 25 25 24 23 23 24 20 21 20 20 21 21 21 21 21 21 21 21 22 22 22 22 23 24 23 24
26 27 33 27 26 25 25 24 24 23 22 22 22 27 33 26 23 23 23 23 23 23 19 20 20 20 21 20 20 20 20 20 21 21 21 21 22 22 23 24 24 25 26
26 26 26 25 25 25 24 24 23 23 23 22 22 26 30 23 23 23 23 23 23 23 21 21 19 20 20 20 21 20 20 20 20 20 21 22 22 23 24 24 25 26 29
25 25 26 25 25 27 23 23 23 22 22 22 22 24 24 22 22 22 22 22 22 21 20 21 21 20 22 22 22 22 20 20 21 22 22 22 23 23 26 28 29 28 27
24 24 25 24 24 23 22 22 22 25 24 23 22 23 21 21 21 21 20 17 19 17 21 21 22 21 21 21 22 22 23 23 24 25 26 29 30 30 30 30 28 26 26
23 22 23 22 21 21 21 21 21 21 22 23 22 22 20 20 19 16 16 17 18 19 21 21 21 20 21 21 22 23 24 29 32 33 31 25 27 29 31 28 27 26 25
22 21 21 22 20 20 20 20 20 20 19 17 17 16 17 17 17 16 17 18 19 20 20 21 21 21 21 22 23 26 31 33 34 37 32 27 26 29 30 29 29 28 27

GFSGL_sfc_temp_021.txt.gz
Temp
57 56 53 54 54 55 55 55 55 56 54 52 51 50 49 46 44 43 43 43 42 41 40 39 39 38 36 35 34 33 32 30 27 31 32 34 32 33 36 37 39 38 39
55 54 54 55 56 56 56 56 56 54 53 52 51 50 48 45 44 43 43 42 41 41 40 38 38 42 35 34 33 32 30 30 28 28 31 32 32 32 35 34 37 41 39
54 53 55 55 55 56 55 54 54 53 52 51 50 48 47 43 43 42 42 42 42 40 39 37 37 35 33 32 31 30 30 35 30 29 29 33 32 33 32 33 34 35 38
53 53 53 53 54 53 53 52 52 51 50 49 48 46 44 43 43 42 42 40 39 38 38 37 36 35 33 32 32 31 33 29 28 28 28 28 30 33 32 30 30 32 32
52 52 51 51 51 50 50 49 50 49 48 47 45 44 42 42 44 41 40 38 37 36 37 37 37 38 43 41 38 32 30 28 27 25 26 28 29 29 28 30 28 30 31
50 48 49 48 48 47 46 46 44 46 45 44 43 41 41 45 44 44 40 37 37 34 32 33 34 39 39 43 43 43 41 31 24 28 27 28 28 28 26 29 28 26 25
46 46 45 45 43 43 42 42 42 41 42 42 41 41 39 40 43 43 42 36 33 31 32 32 34 39 37 33 37 41 40 41 40 34 28 27 27 30 28 26 27 27 28
41 41 41 40 39 39 39 37 37 38 38 38 39 39 38 41 42 41 40 31 31 31 31 31 30 30 32 35 32 30 31 30 30 33 30 30 30 33 33 32 30 29 29
39 38 39 39 37 36 35 35 36 36 37 38 38 39 36 35 41 41 36 31 31 30 32 32 32 31 38 41 34 26 28 29 36 38 39 39 39 39 37 32 25 23 23
38 37 38 38 37 37 38 39 38 38 38 40 36 34 39 32 42 41 37 32 28 29 30 31 36 36 40 40 34 29 26 27 29 29 29 31 33 30 36 30 26 22 22
37 37 38 39 39 39 38 39 39 37 35 32 32 31 31 33 33 41 41 32 30 29 29 30 31 38 39 39 39 31 30 34 33 27 28 29 29 29 29 29 28 24 23
36 37 38 40 42 40 38 34 32 31 30 29 29 29 29 30 39 39 41 40 38 30 29 29 29 37 38 37 35 37 37 35 28 27 27 26 26 25 25 26 27 26 26
40 39 38 38 36 34 31 30 29 29 28 28 28 26 26 29 28 37 37 37 36 32 30 34 37 36 35 32 34 35 34 26 26 24 24 23 24 25 25 25 25 26 25
37 34 32 32 31 30 30 30 28 27 25 27 26 24 23 25 26 28 30 27 33 32 33 28 33 33 32 32 29 29 27 27 26 24 24 25 26 24 24 25 23 24 23
31 30 30 30 29 28 28 28 28 27 28 26 25 26 23 23 28 34 33 31 29 33 33 27 24 24 23 25 25 25 26 26 24 23 23 23 24 24 23 24 23 23 22
30 29 28 27 27 27 26 27 37 36 37 36 36 32 30 34 36 36 35 36 37 36 27 23 21 21 21 23 23 23 23 23 22 22 22 21 21 21 21 23 24 22 20
28 28 29 29 27 26 26 25 24 28 36 37 37 37 36 36 36 35 35 36 34 32 24 20 18 19 20 21 20 19 19 21 21 21 20 20 20 21 23 21 22 22 21
28 34 26 26 25 24 25 25 25 24 23 23 31 34 35 35 34 34 33 30 24 26 23 21 18 19 20 19 19 19 20 21 21 21 21 21 21 20 20 21 21 21 21
27 26 25 24 25 27 26 25 25 24 23 22 24 28 30 33 33 32 31 23 22 22 22 19 19 19 19 19 19 18 19 20 22 21 19 20 20 21 20 21 22 26 26
28 34 29 25 25 25 25 24 24 22 22 21 22 22 24 26 24 23 23 23 22 22 22 19 20 19 18 17 17 19 19 19 19 19 19 20 21 21 20 21 22 22 23
25 27 32 25 24 25 24 23 23 22 21 21 21 25 31 24 21 21 21 22 21 21 18 19 19 18 17 17 18 19 19 19 19 19 20 20 21 20 22 23 23 24 25
25 25 25 24 24 24 24 23 22 22 21 21 21 24 29 22 21 21 21 21 22 22 20 19 18 18 19 19 19 19 18 18 19 19 21 22 22 23 23 25 25 27 28
24 24 25 24 24 26 22 22 21 21 21 21 21 22 23 21 21 20 20 21 20 19 20 20 19 19 20 21 21 21 19 19 20 22 22 22 23 24 28 28 28 28 27
23 23 23 23 22 22 21 20 20 23 23 22 20 21 19 19 19 19 18 15 17 17 20 21 21 20 20 20 21 21 22 22 24 24 26 29 30 28 28 29 29 28 27
22 21 22 20 20 20 19 20 20 20 20 21 21 20 19 19 17 15 15 15 15 17 19 21 21 20 20 20 21 22 23 29 32 32 33 31 28 28 29 29 29 29 28
21 20 19 20 19 19 19 18 18 18 18 16 16 14 15 16 16 15 15 15 15 17 18 20 20 20 20 20 23 26 31 33 34 36 35 31 30 29 30 31 30 30 29

GFSGL_sfc_temp_024.txt.gz
Temp
56 57 51 50 50 51 52 53 53 55 54 52 52 50 49 48 47 46 45 44 41 39 39 39 39 38 36 34 33 32 31 29 26 29 30 32 30 31 34 34 36 36 36
52 51 50 50 50 50 51 52 54 53 53 52 51 50 48 47 46 45 44 44 40 39 39 38 38 41 35 33 32 31 30 29 27 27 28 28 29 31 31 31 35 38 36
50 49 49 49 50 50 51 52 54 52 51 50 50 49 48 46 45 44 44 40 39 39 39 39 39 36 34 32 30 29 29 34 29 27 28 28 28 29 31 30 31 33 36
48 49 48 50 50 52 51 53 51 51 49 48 46 45 45 44 44 43 39 37 37 38 40 38 37 35 33 31 31 30 31 28 27 27 27 25 25 30 29 28 28 31 31
47 47 48 49 50 50 49 49 49 48 47 45 42 42 41 41 42 40 38 37 38 38 38 37 37 37 41 40 36 31 30 29 27 23 27 24 28 29 27 29 27 29 30
48 47 48 47 47 45 45 43 42 41 40 40 40 41 40 44 45 44 40 38 37 35 35 33 33 37 37 42 43 43 40 30 23 23 20 26 27 27 28 27 27 25 24
42 44 44 43 41 41 41 41 39 37 38 38 38 40 40 41 44 43 41 36 34 32 31 31 33 37 34 32 36 40 39 40 40 35 28 27 26 28 27 25 26 27 26
39 39 39 40 40 40 38 36 35 36 36 35 35 36 37 40 42 42 39 32 30 29 30 29 29 30 31 35 32 29 30 31 31 32 29 29 29 31 31 31 29 27 28
38 39 40 40 38 37 35 34 35 34 33 33 35 36 37 38 42 41 35 30 30 29 30 30 31 30 37 40 33 27 29 29 35 39 39 39 39 39 37 31 24 23 22
37 38 39 39 37 36 35 35 34 33 35 38 37 37 38 32 42 41 35 31 28 29 29 30 35 35 39 40 34 29 25 26 28 28 29 30 32 30 35 30 24 21 21
38 37 37 37 36 35 35 36 36 37 36 34 31 30 31 31 31 42 41 31 30 29 29 29 30 37 38 39 38 29 29 33 29 27 27 27 28 28 28 28 27 23 22
36 35 36 38 40 39 37 36 34 31 28 27 27 26 28 28 38 38 39 38 37 30 29 29 29 36 37 37 34 36 36 34 27 26 25 25 25 24 24 25 26 26 26
39 38 38 38 37 34 30 28 27 27 26 26 28 26 26 28 27 35 36 37 36 32 30 32 36 36 34 31 33 34 33 25 25 23 23 23 23 23 24 24 24 25 25
36 34 31 31 29 29 30 29 27 26 25 27 27 25 23 25 26 27 30 28 33 32 33 27 32 32 31 30 28 28 26 26 25 24 23 24 25 23 23 24 22 23 23
30 29 29 29 27 26 28 27 28 26 28 26 25 26 23 23 28 34 33 31 29 32 31 26 24 23 22 23 24 25 25 24 22 22 22 23 24 23 22 23 22 22 21
29 29 27 26 26 26 26 26 37 37 37 36 35 31 30 34 36 36 36 36 35 35 26 22 20 19 20 21 21 21 22 22 21 21 21 20 20 20 20 22 23 21 20
27 27 28 29 26 25 25 25 24 28 35 36 36 36 36 36 35 35 35 34 32 30 22 19 17 18 19 19 19 18 17 19 19 20 19 19 19 20 22 20 20 21 20
28 34 26 25 24 24 25 25 24 24 22 23 30 32 34 34 34 33 33 29 23 24 22 20 16 18 18 18 17 17 18 18 19 19 19 20 19 19 19 19 20 20 20
26 25 24 24 24 25 25 24 23 23 22 21 23 27 30 32 32 31 30 22 20 20 21 18 18 17 17 17 17 16 16 17 20 20 17 18 19 19 19 20 20 25 26
27 32 28 25 25 24 24 23 23 21 21 20 21 21 23 25 22 21 22 21 20 20 21 18 18 18 17 16 15 16 16 17 17 18 18 20 20 20 20 20 21 22 22
25 27 31 24 24 24 23 22 22 20 20 19 20 24 31 22 20 20 20 20 20 20 17 18 18 17 16 15 16 16 17 17 17 18 20 21 21 21 23 23 23 23 24
24 24 25 23 23 23 22 22 21 21 20 19 20 23 28 21 20 19 20 20 20 21 19 19 18 17 17 17 18 17 17 17 18 20 21 22 22 23 23 24 26 28 28
23 23 24 23 23 25 21 21 20 20 20 20 20 21 21 19 19 19 19 19 19 18 18 18 18 18 19 20 20 20 18 18 20 21 21 22 24 25 26 27 27 28 28
22 22 22 22 22 20 19 19 19 22 22 21 19 20 18 18 18 18 17 14 16 14 16 18 19 19 20 20 20 22 22 22 23 23 24 27 30 30 29 29 29 29 29
21 20 21 19 19 19 18 18 18 18 19 20 19 19 17 17 16 14 13 14 14 15 16 17 17 17 18 19 20 21 23 29 31 32 32 33 31 30 30 30 30 30 30
20 19 18 19 18 18 17 17 17 17 17 14 15 13 14 14 15 14 14 14 14 15 15 16 17 16 16 19 21 25 30 32 32 34 34 34 31 31 31 31 30 30 29

GFSGL_sfc_temp_027.txt.gz
Temp
52 54 53 50 51 50 50 51 51 51 51 50 50 50 50 48 48 46 45 44 43 42 41 39 40 37 35 34 33 33 31 29 26 28 29 30 29 30 33 33 34 33 34
52 54 51 48 48 48 49 50 50 50 51 50 51 51 49 48 47 45 44 43 42 41 40 39 39 40 34 35 34 31 30 29 27 25 26 28 28 29 30 29 34 37 35
49 47 47 46 47 47 47 48 50 49 50 50 51 48 46 45 44 43 41 41 42 41 40 39 38 36 34 33 31 30 29 33 28 26 27 27 27 28 28 29 29 30 35
46 46 45 45 46 47 50 50 50 50 49 48 47 44 43 42 40 39 39 38 38 39 39 38 38 37 34 33 31 30 30 28 27 26 26 24 25 28 27 26 28 30 30
44 44 43 47 48 50 49 48 48 46 43 42 41 40 40 40 41 39 39 38 38 38 38 38 37 37 40 38 34 30 29 28 27 23 25 22 24 27 27 28 26 28 29
42 42 46 46 46 44 43 42 42 42 41 40 39 38 38 40 40 40 39 38 37 36 35 34 33 36 36 41 41 42 39 27 21 20 18 24 25 26 27 27 26 24 24
41 43 43 42 41 41 41 41 39 38 38 36 36 36 37 40 43 42 40 36 35 34 34 33 33 36 33 31 36 39 38 40 40 32 27 26 26 28 27 26 26 25 27
38 39 40 40 38 38 38 37 36 36 35 34 33 33 33 35 38 36 36 34 33 31 32 29 28 29 30 33 32 29 30 30 31 31 28 29 29 31 30 29 29 27 28
37 38 39 39 38 37 35 34 35 34 34 33 33 33 33 34 39 39 36 32 31 30 31 29 30 29 35 39 32 26 28 29 35 38 39 39 39 39 37 31 24 22 21
35 36 37 38 36 35 35 35 35 34 32 34 32 32 35 34 42 42 36 31 28 29 29 30 35 34 38 39 31 28 25 26 28 27 28 29 32 29 35 29 22 19 21
37 37 36 37 36 36 35 34 33 33 33 33 32 31 31 33 31 42 41 31 31 30 29 29 30 36 38 39 38 27 28 32 29 25 26 26 27 27 27 27 27 20 21
35 34 35 36 37 36 35 35 34 32 30 28 27 27 27 26 38 38 38 38 36 30 29 29 28 36 37 36 33 34 36 34 26 25 24 24 24 23 23 24 25 24 25
38 37 37 37 35 32 31 28 28 27 26 26 28 25 26 28 27 34 35 37 36 32 30 33 36 35 34 30 32 34 33 24 24 22 22 22 22 22 22 22 23 24 24
34 30 29 29 28 27 29 28 26 25 25 27 26 24 23 25 26 28 30 27 33 33 32 26 31 31 31 30 27 27 25 25 24 23 22 23 24 22 22 23 21 22 21
28 28 27 27 25 25 27 26 28 25 27 26 25 26 24 24 29 34 33 31 29 32 28 25 23 22 21 22 23 23 23 23 21 21 20 21 22 22 21 22 21 21 20
28 28 27 26 25 26 25 25 37 37 37 36 34 30 30 34 36 36 35 35 35 34 25 21 19 18 19 20 20 20 21 21 19 19 19 19 19 18 19 21 22 19 18
26 27 28 28 25 25 25 25 23 27 35 35 36 36 36 35 35 34 34 34 32 30 21 18 16 17 18 18 18 16 16 18 17 17 17 17 18 19 21 18 19 19 19
27 33 25 24 23 24 25 24 23 23 21 22 29 32 33 33 34 33 32 28 22 23 21 19 15 17 17 17 16 16 17 17 17 17 17 19 19 17 18 18 19 19 19
26 25 24 23 24 25 24 23 22 22 21 20 22 26 29 32 32 30 30 21 19 19 19 17 17 17 16 16 16 15 15 15 18 19 17 17 19 19 19 19 20 25 26
27 32 28 25 24 23 23 22 21 20 20 19 19 20 22 24 21 20 21 20 19 19 19 17 17 17 16 16 15 15 15 16 16 16 17 19 21 21 21 22 22 21 22
25 27 31 24 23 23 22 21 21 19 19 18 18 22 30 21 19 19 18 19 19 19 16 17 17 17 16 15 16 15 16 16 16 16 19 20 21 21 24 24 23 24 24
24 24 24 22 22 22 21 21 20 20 19 18 18 21 28 20 19 18 19 19 19 19 17 17 16 16 17 17 17 17 16 16 17 18 20 20 20 23 25 25 24 26 28
22 22 23 22 22 24 20 20 19 19 19 18 18 20 20 18 18 18 18 18 18 17 16 17 15 15 16 17 19 19 18 19 20 21 20 20 22 24 26 27 29 29 28
22 22 22 21 21 20 19 18 18 21 21 19 18 19 17 17 17 17 17 13 14 11 15 15 16 15 16 16 19 21 22 22 23 23 23 24 28 31 32 30 30 29 29
20 20 21 19 19 18 18 18 17 17 18 19 18 18 17 16 15 13 13 13 12 13 14 15 15 14 14 14 17 19 22 27 30 31 31 31 32 32 31 30 30 30 28
19 19 18 18 17 17 17 16 16 16 16 14 14 13 13 14 14 13 13 13 12 14 14 15 15 14 14 15 17 22 28 31 31 33 33 33 32 32 32 31 31 29 29

GFSGL_sfc_temp_030.txt.gz
Temp
49 49 50 52 56 52 50 49 48 49 49 49 49 49 48 48 49 48 46 45 44 43 42 41 40 40 38 35 35 33 32 31 27 29 29 30 29 30 32 32 33 31 32
48 49 50 55 49 49 51 49 48 47 48 49 48 48 48 48 48 46 45 43 41 40 39 38 38 42 38 37 35 32 31 29 28 25 26 27 28 29 29 28 33 36 33
47 47 48 50 49 48 49 50 50 50 49 49 50 49 47 46 45 44 43 42 41 39 39 38 39 39 36 35 35 32 30 33 27 26 26 27 27 27 27 27 27 28 33
46 46 46 48 48 48 49 50 49 49 49 48 47 46 45 44 42 41 39 38 37 37 37 36 37 37 36 36 35 32 31 29 27 26 26 24 25 27 26 26 26 28 29
44 44 44 46 48 48 48 48 47 46 44 44 43 42 41 41 41 38 38 37 36 35 36 36 36 38 39 38 36 32 30 28 27 22 24 23 23 25 26 28 26 27 28
41 41 44 43 44 44 43 42 42 42 41 41 41 40 40 40 42 41 38 35 35 33 31 31 33 36 37 40 41 42 37 27 22 20 18 24 25 25 24 25 25 24 24
40 39 41 40 40 40 41 40 39 38 38 38 39 38 38 39 41 39 37 33 31 30 31 33 35 36 33 31 35 39 38 40 40 30 26 25 25 26 25 23 25 26 25
39 39 40 39 39 39 38 37 36 36 36 35 34 35 35 38 39 38 35 31 30 30 32 31 30 31 32 32 31 29 30 30 31 32 29 29 28 29 29 29 28 26 27
37 38 39 39 37 36 35 34 34 33 33 33 34 33 33 33 37 36 33 33 33 32 32 31 31 30 35 38 32 26 28 29 35 38 38 38 38 38 37 30 23 21 21
35 35 36 36 35 33 33 32 33 33 32 33 32 33 36 33 37 36 35 33 30 30 29 31 35 34 38 39 32 29 25 25 27 26 27 28 30 28 34 28 19 17 20
37 36 36 36 35 34 33 34 33 32 31 30 30 31 31 33 35 42 40 31 30 29 29 29 30 36 38 38 38 27 28 31 28 24 25 25 26 26 26 26 26 17 21
35 34 33 34 35 33 31 30 30 31 31 29 28 27 27 27 37 39 39 37 35 30 29 29 28 35 36 36 33 34 35 32 25 24 23 23 23 22 22 23 25 24 24
37 36 35 34 32 31 29 27 27 26 26 26 28 24 25 28 26 36 36 36 35 31 30 33 35 34 33 29 31 33 31 22 23 21 21 21 20 21 21 22 22 23 22
32 28 27 27 26 26 28 28 26 25 25 27 26 24 22 25 25 27 30 27 32 32 32 25 31 30 29 28 26 26 24 23 23 22 21 22 23 18 21 22 20 21 20
27 27 26 26 24 25 27 26 28 24 26 25 24 25 23 23 29 33 32 31 28 32 27 24 22 21 19 21 22 22 22 22 20 20 19 19 21 21 20 21 20 20 19
27 27 26 25 25 26 25 25 38 37 37 36 34 30 30 34 36 35 35 35 34 34 24 20 17 17 17 19 19 19 19 20 18 18 17 16 17 17 18 20 22 19 18
26 27 27 28 25 24 24 24 23 27 35 36 35 35 35 34 35 34 34 33 31 29 20 16 15 15 16 17 16 15 15 16 13 15 15 15 17 16 20 19 19 20 19
27 32 25 24 23 23 24 23 22 22 21 21 28 31 33 33 33 33 32 28 21 22 20 18 14 16 16 16 16 15 16 16 15 15 14 15 18 18 16 19 21 21 19
26 25 24 23 23 25 23 23 22 21 20 19 20 25 28 31 31 30 29 20 18 18 18 16 16 15 16 17 17 15 13 14 16 17 16 17 18 19 19 22 23 27 27
26 31 27 24 24 23 22 22 21 19 19 18 19 19 21 23 21 19 20 19 18 18 18 16 16 15 15 16 15 15 14 15 15 14 15 18 19 20 21 22 23 24 23
25 26 30 24 23 22 21 21 20 19 18 18 18 21 30 21 18 18 18 18 18 18 15 16 15 14 12 12 15 14 15 15 16 15 16 17 18 18 22 23 24 25 25
24 24 24 22 22 22 21 20 19 19 18 18 18 20 27 19 18 17 18 18 18 19 17 16 14 13 13 12 15 16 16 15 18 20 17 18 19 21 23 24 25 25 27
22 22 23 22 22 24 20 19 18 18 18 18 18 19 19 18 18 17 18 18 17 16 15 15 14 13 13 13 13 17 17 18 20 21 20 20 21 22 23 24 29 30 29
22 22 22 21 20 19 18 18 18 21 20 19 17 18 16 16 16 17 16 13 14 12 14 14 14 13 14 14 15 17 20 21 22 22 21 21 23 28 29 31 31 30 29
21 20 20 19 19 18 18 17 17 17 17 18 18 18 16 16 15 13 12 13 12 13 14 14 14 13 12 12 13 15 19 25 26 28 29 29 29 30 31 31 31 31 30
20 19 18 18 17 17 17 16 16 16 16 14 14 12 13 13 14 13 13 13 12 14 13 15 15 13 13 13 15 18 26 29 30 32 31 31 30 31 31 31 31 31 30

GFSGL_sfc_temp_033.txt.gz
Temp
54 54 54 55 56 58 56 56 57 57 56 55 55 54 53 52 52 51 50 47 44 45 44 43 42 41 40 39 39 37 38 39 39 41 41 42 42 43 44 44 43 43 44
52 53 53 54 56 53 53 53 53 52 52 52 51 51 51 51 50 49 47 46 44 42 41 39 38 40 37 37 37 36 36 36 36 37 39 40 39 41 41 40 41 43 42
49 51 52 52 52 51 51 51 52 51 51 51 51 49 49 49 48 48 45 44 42 41 39 38 38 37 36 35 34 34 33 34 33 35 37 37 38 39 39 40 39 40 40
48 49 49 50 51 51 51 50 50 50 50 51 51 49 47 46 45 44 42 41 39 38 37 37 36 36 36 35 33 32 33 32 34 34 35 36 36 39 37 35 35 39 38
45 45 45 48 49 48 46 46 47 47 46 46 45 43 42 42 42 40 39 38 36 35 35 35 34 34 35 34 35 33 34 33 33 34 34 34 34 35 35 36 34 35 36
42 42 43 44 44 43 43 42 42 42 42 42 41 41 40 41 43 42 38 36 35 33 32 32 32 33 34 37 38 39 37 33 33 33 33 33 34 34 35 34 33 30 28
40 41 42 42 40 40 41 40 39 39 39 39 39 40 39 40 42 41 38 34 32 32 31 31 32 34 33 32 33 36 38 40 40 38 34 34 33 35 33 30 31 31 29
39 39 40 39 38 38 38 37 37 37 36 36 36 36 37 39 41 39 37 32 31 31 31 31 31 31 32 35 37 35 36 36 36 36 37 37 37 37 35 33 33 33 34
36 37 38 38 36 36 34 34 35 34 34 33 33 33 33 34 38 37 33 32 31 30 31 34 34 35 36 38 37 33 34 35 37 38 38 38 38 38 38 35 30 28 27
35 36 36 36 35 33 33 33 34 34 32 34 32 32 35 34 37 35 33 36 33 34 35 35 35 37 37 38 37 33 31 32 33 33 34 34 35 34 34 34 31 25 25
36 36 35 35 34 33 33 33 32 32 32 31 30 31 32 34 36 40 38 35 35 34 33 34 35 36 37 38 37 33 32 36 32 31 32 32 32 32 33 33 31 27 24
36 35 34 34 35 34 33 31 31 31 32 31 31 31 32 34 39 40 39 37 36 34 33 35 34 35 36 35 34 34 35 34 31 30 29 29 29 28 29 29 29 29 29
36 34 34 34 33 34 33 32 32 32 31 31 31 30 30 32 33 37 37 37 36 35 35 35 34 33 32 30 31 32 31 29 28 27 27 27 27 27 26 27 28 28 27
32 32 32 32 31 31 33 33 31 30 30 31 30 29 28 30 31 32 33 33 34 34 33 32 32 30 29 29 28 28 28 28 28 27 26 27 28 26 26 28 25 27 25
31 31 31 30 30 30 31 32 32 30 32 30 29 30 29 29 32 35 35 34 33 34 30 29 27 26 25 25 26 26 27 27 25 25 24 24 25 25 25 27 25 25 23
31 31 31 30 30 31 31 31 38 38 37 36 34 33 33 35 36 35 35 34 33 33 28 25 24 23 23 23 23 24 24 24 24 23 22 22 21 22 22 25 26 25 24
30 30 32 31 30 29 29 29 28 31 35 35 35 35 35 34 34 34 33 33 31 29 25 23 22 22 22 22 22 21 21 22 20 20 20 19 20 20 22 23 24 24 25
30 33 30 29 28 28 28 27 27 27 26 26 29 32 33 33 33 32 32 28 25 25 23 22 21 22 22 21 21 21 21 21 21 20 20 19 19 21 22 22 23 24 25
29 28 28 28 27 28 27 26 26 25 24 24 25 27 29 31 31 30 28 24 22 22 22 22 22 22 21 21 21 20 19 19 20 21 20 19 20 21 21 22 24 27 28
30 31 29 28 27 26 26 26 25 24 23 23 23 23 25 26 24 23 23 22 22 22 22 21 22 21 21 20 19 19 19 20 20 20 20 20 20 21 21 22 24 23 25
28 30 30 27 26 26 25 24 24 23 22 22 22 24 29 25 22 22 21 22 22 22 21 21 21 20 19 18 18 18 19 19 20 19 20 20 20 20 22 23 24 25 26
27 26 26 25 25 25 24 24 23 22 22 21 22 23 27 23 22 21 21 22 22 22 22 21 20 20 19 18 18 17 18 18 19 20 22 22 22 22 23 24 25 26 27
26 25 25 24 24 26 23 23 22 22 21 21 21 22 22 21 21 20 20 21 21 21 21 20 19 18 19 18 18 17 16 18 21 22 21 22 22 23 24 24 25 27 30
25 25 24 23 23 22 22 22 21 22 23 22 21 21 20 20 20 20 20 19 19 18 19 18 18 17 18 18 19 19 18 20 21 22 22 21 22 24 26 28 29 30 31
25 24 23 22 22 22 21 21 20 20 20 20 20 20 19 19 18 18 18 18 17 17 17 18 18 17 16 15 16 16 19 23 24 26 27 28 28 28 28 29 30 31 31
23 22 22 21 20 20 20 20 19 19 19 18 18 17 17 17 17 17 17 17 16 17 17 18 18 16 16 17 18 19 25 28 29 31 30 30 29 30 31 30 31 31 31

GFSGL_sfc_temp_036.txt.gz
Temp
61 63 63 64 65 63 61 59 59 61 62 62 63 63 62 59 57 55 54 53 52 48 45 43 40 41 41 40 40 39 37 37 35 35 39 40 39 39 45 48 49 48 48
58 60 61 63 63 60 57 58 59 58 59 58 58 57 58 57 56 53 52 51 49 47 46 45 45 42 38 37 37 36 35 35 35 32 33 33 33 38 40 42 45 46 47
56 58 59 60 60 60 57 58 58 56 55 54 54 53 54 54 53 52 50 48 45 44 41 42 39 37 35 35 34 33 33 34 32 32 33 37 36 37 36 41 43 45 46
53 54 54 55 56 57 57 56 55 55 54 53 53 52 51 51 50 47 45 42 41 40 39 39 39 37 35 34 34 33 33 33 33 33 35 36 36 37 38 38 39 43 42
49 49 50 52 53 53 52 51 51 50 50 49 46 45 45 45 44 42 41 39 38 37 37 36 35 36 38 35 35 33 33 32 34 34 34 34 34 37 39 41 38 40 41
48 45 47 49 49 46 48 47 47 46 46 43 42 42 42 42 43 42 40 38 37 36 33 33 33 34 35 37 37 37 37 35 33 33 33 35 38 40 40 39 37 34 31
44 43 44 45 44 42 42 42 40 40 40 40 40 41 40 41 43 41 39 35 33 32 32 32 33 34 33 34 35 36 37 39 40 39 37 38 38 39 37 33 34 33 32
41 41 42 42 40 39 38 37 36 36 36 36 36 38 38 40 42 40 37 33 32 32 32 34 34 33 34 34 36 36 37 39 40 41 40 40 40 41 39 36 35 35 38
37 38 40 39 37 36 35 35 35 34 34 33 34 34 33 34 38 36 33 32 32 32 35 36 37 37 37 38 38 36 38 39 41 39 39 39 39 39 39 37 33 32 31
36 36 37 37 35 34 34 33 34 34 33 34 32 32 35 33 35 36 38 36 35 37 38 38 36 38 38 39 39 38 35 36 38 37 39 39 39 39 37 37 35 29 28
37 37 37 37 36 35 34 34 34 34 33 32 32 33 35 37 38 39 39 40 39 38 37 38 39 36 37 38 37 37 35 38 37 36 36 37 38 38 38 38 37 32 27
38 37 37 38 38 38 36 34 35 37 37 37 37 37 39 41 41 40 39 38 37 37 36 38 38 36 36 35 35 35 35 35 36 35 34 34 35 34 35 34 34 33 33
40 39 41 42 42 43 43 41 41 41 40 39 37 37 37 37 38 38 38 37 37 38 38 36 35 34 33 33 33 33 32 34 33 32 32 32 33 33 31 31 32 32 31
42 41 42 41 41 42 41 41 41 40 39 38 37 36 36 36 37 38 38 38 36 37 35 36 33 31 30 31 31 33 33 33 32 32 32 33 33 32 31 33 31 32 30
41 41 40 40 41 40 40 41 40 39 39 38 36 37 36 36 36 37 37 37 38 36 34 34 33 32 31 31 32 32 32 32 30 31 30 29 30 30 30 32 30 29 27
40 40 40 39 39 39 39 39 38 38 37 36 35 36 37 36 36 36 35 34 33 34 32 31 30 30 29 29 29 29 30 29 30 28 28 27 26 26 27 29 29 29 28
40 39 38 38 39 38 37 38 36 35 35 35 35 35 35 34 35 34 34 33 32 31 30 30 28 28 28 28 28 27 27 28 27 26 26 25 25 25 25 26 28 28 28
39 37 39 38 39 38 37 36 36 35 34 34 32 33 33 33 33 32 32 30 30 30 28 27 27 28 28 27 27 27 27 27 27 26 25 25 24 24 24 25 27 26 27
38 38 38 38 37 36 35 34 34 33 32 32 32 32 32 31 32 30 29 29 27 27 28 27 28 28 27 27 27 27 26 25 25 25 25 24 25 24 24 25 26 28 28
37 35 36 36 35 34 33 33 33 32 31 31 30 30 31 31 29 29 29 28 27 27 27 27 27 27 27 26 26 26 25 26 26 26 25 25 26 25 24 24 25 25 26
36 35 35 34 34 33 33 33 32 31 30 30 30 30 29 30 28 28 27 27 27 27 27 27 27 27 26 26 25 25 24 25 25 25 25 25 26 25 26 26 25 26 26
35 35 33 33 33 31 31 31 31 30 29 28 29 29 27 28 28 27 27 27 28 28 28 27 26 26 26 25 24 24 23 23 24 24 25 25 25 26 26 26 26 26 26
34 33 31 31 32 31 30 30 30 29 29 28 28 27 27 27 27 26 26 27 27 27 27 26 25 24 26 25 25 23 22 22 24 25 23 24 24 25 26 25 26 26 27
33 32 31 31 30 30 29 29 29 27 27 28 27 27 26 26 26 26 26 26 26 25 26 25 25 24 23 23 25 25 25 24 24 23 23 22 22 24 25 26 27 29 29
32 32 31 30 29 29 28 29 28 27 27 26 26 25 26 26 25 25 25 25 24 24 24 24 24 24 23 22 21 21 22 24 25 25 26 26 26 27 28 29 29 30 30
31 31 30 29 28 28 28 28 27 26 26 26 25 25 24 24 24 24 24 24 23 24 23 24 24 23 22 22 22 23 26 28 29 31 30 30 29 29 30 30 30 31 31

GFSGL_sfc_temp_039.txt.gz
Temp
61 63 64 65 66 66 64 63 61 61 61 61 61 60 61 60 59 56 55 55 54 53 50 48 44 43 40 39 38 38 36 37 35 34 36 37 37 38 38 40 42 43 45
59 61 62 63 64 64 62 60 59 59 59 58 58 57 57 57 56 54 52 50 50 47 46 43 41 42 38 38 38 36 36 36 36 33 33 33 33 33 34 35 40 44 43
56 57 59 59 60 60 59 60 60 59 58 57 56 54 53 53 52 52 50 48 47 45 44 43 40 39 37 36 36 34 34 35 34 34 33 33 34 35 36 39 39 41 44
53 54 54 55 55 56 56 56 56 56 55 54 53 51 51 49 48 46 44 43 41 41 40 40 39 38 36 35 34 33 33 33 33 33 33 33 35 38 36 34 35 39 40
51 50 51 53 52 52 52 51 51 51 50 51 49 47 46 45 45 42 41 40 38 37 37 37 37 38 39 37 35 33 33 33 33 33 33 34 34 35 34 37 36 37 38
48 47 49 49 48 47 47 47 46 45 46 46 45 45 44 43 44 43 41 38 38 36 34 34 35 37 38 39 39 38 36 34 33 34 34 33 35 37 38 36 34 32 29
45 44 45 45 43 42 42 40 40 40 40 40 41 42 41 42 43 42 40 36 34 33 33 32 33 35 34 33 36 36 38 39 40 37 35 36 36 37 34 31 31 31 31
43 43 44 43 41 40 39 38 37 36 36 36 35 35 37 39 41 40 37 32 32 32 32 32 32 32 33 34 35 35 36 37 38 40 38 37 37 38 36 34 33 33 35
37 38 40 40 38 37 36 35 35 34 34 33 34 33 33 34 38 37 34 32 31 32 33 34 36 37 37 38 37 34 35 36 42 40 40 40 40 40 39 35 30 28 28
37 37 37 37 36 34 34 33 35 35 33 34 32 33 35 33 37 37 36 36 35 37 38 38 37 38 38 39 37 37 34 34 35 35 35 37 38 37 40 35 31 26 28
38 38 38 39 38 36 35 35 34 34 33 33 33 34 35 37 39 40 40 39 38 37 36 36 37 37 37 38 37 35 34 35 34 33 33 33 34 34 34 34 34 28 28
40 40 40 40 40 39 37 35 36 39 39 39 39 38 40 40 41 40 39 39 38 36 35 36 36 36 36 36 35 36 36 35 32 32 31 31 31 30 31 33 34 33 33
42 43 44 44 45 45 44 43 42 43 41 39 38 37 37 38 38 38 38 38 38 36 36 35 35 35 35 34 36 34 34 31 31 29 29 29 30 30 28 28 31 31 31
44 43 44 43 43 43 42 42 41 41 39 38 37 36 36 36 36 37 37 37 38 37 36 35 34 33 34 32 32 33 31 31 30 29 29 30 31 28 28 31 30 30 29
43 42 42 42 43 41 40 41 39 38 38 38 36 36 35 35 35 36 35 35 35 35 33 33 32 31 30 31 31 31 31 31 28 29 29 28 29 28 28 30 30 28 26
42 41 41 41 41 40 40 38 38 38 37 37 36 35 36 36 37 36 36 35 35 34 31 30 30 29 28 29 29 29 29 29 29 29 27 26 25 25 25 26 27 26 25
42 40 39 38 39 39 38 38 36 34 36 35 35 35 35 35 35 35 34 34 34 32 29 29 27 27 27 27 26 28 27 28 28 26 25 25 25 25 25 24 25 25 25
41 40 39 39 40 39 38 36 36 35 34 34 33 33 34 33 34 34 33 32 30 31 29 27 26 27 27 26 27 27 27 27 27 26 26 25 25 24 24 23 24 24 24
39 38 39 38 37 38 36 35 34 33 33 33 33 34 33 33 33 33 31 28 27 27 28 26 27 26 26 26 27 27 26 25 26 25 25 24 24 24 23 24 24 27 27
39 38 38 36 35 34 33 33 33 32 32 32 31 31 31 31 30 30 30 29 27 27 28 26 26 26 25 25 25 26 25 24 24 24 25 25 25 25 24 23 23 23 23
37 36 37 35 34 33 33 33 32 31 31 31 30 32 30 28 28 28 28 28 27 27 26 26 26 25 25 24 24 24 23 23 23 23 23 23 24 23 24 25 24 24 24
37 36 34 33 33 32 32 32 31 30 30 30 30 31 31 28 28 28 28 28 28 28 27 26 25 25 25 24 23 22 22 21 22 22 22 23 23 24 24 24 24 24 24
36 34 33 32 32 33 31 30 30 30 30 30 29 29 29 28 28 27 27 27 27 26 26 26 24 24 24 24 24 23 21 21 22 22 22 22 22 22 23 22 23 23 24
35 33 32 32 31 31 31 30 30 29 28 29 29 29 27 27 27 27 26 25 26 25 25 25 24 23 23 22 23 23 24 24 24 23 22 21 21 21 22 22 24 24 24
33 33 32 31 30 30 30 29 29 29 29 28 27 27 27 27 26 25 25 25 24 24 23 24 24 23 22 21 21 21 23 26 25 25 24 23 22 22 22 24 26 27 28
33 32 32 31 29 29 29 29 28 27 27 26 26 25 25 25 24 24 24 24 23 23 23 23 23 22 22 22 23 24 27 29 28 30 30 28 27 27 28 28 28 29 29

GFSGL_sfc_temp_042.txt.gz
Temp
52 52 52 54 56 56 53 53 54 57 58 57 55 54 57 57 57 55 54 54 53 51 50 49 44 44 42 41 40 40 39 40 37 33 34 36 36 39 39 39 40 39 40
50 50 51 52 53 56 52 52 54 57 56 54 54 54 54 54 53 52 51 50 50 47 45 43 42 42 40 40 38 37 37 38 38 33 33 33 34 35 36 35 39 43 42
48 48 48 49 48 50 48 49 50 50 49 48 48 49 49 49 49 47 46 45 45 45 43 42 41 40 37 37 37 36 36 36 35 36 33 33 33 34 34 36 37 38 41
46 46 45 46 45 46 47 47 47 47 46 45 44 43 43 43 43 42 43 41 40 40 40 40 39 38 37 37 36 34 34 34 34 34 33 33 33 34 34 33 32 36 35
44 44 44 45 44 44 44 43 44 45 44 43 42 41 42 43 43 40 40 39 38 37 37 38 37 39 40 38 36 34 34 33 33 32 32 32 32 31 30 32 31 32 33
45 44 46 44 45 43 43 43 40 41 42 43 43 43 42 43 44 43 38 36 36 35 33 33 34 37 40 41 39 38 37 34 32 32 32 29 30 31 31 30 27 25 23
43 43 44 43 41 41 40 39 38 37 37 37 39 40 40 41 43 41 39 34 33 33 32 32 33 35 34 33 38 38 38 39 39 34 30 30 30 31 29 26 28 24 24
40 41 41 41 39 38 37 36 36 36 35 35 34 35 37 39 41 40 38 33 32 32 32 32 32 32 32 33 33 33 34 34 35 37 32 32 32 33 31 29 28 27 28
37 37 38 38 36 36 35 34 35 34 33 33 33 33 33 35 39 38 33 29 30 31 32 33 33 33 36 38 34 30 31 31 41 41 40 41 41 40 38 29 22 19 22
37 37 37 36 36 34 34 33 34 34 32 33 32 33 36 29 40 40 36 32 29 31 33 34 39 36 39 39 33 30 28 28 30 31 31 32 34 33 40 31 23 14 15
39 39 38 38 36 35 34 35 33 33 31 24 29 31 33 31 34 41 41 32 31 31 31 31 31 38 38 38 37 28 30 31 31 27 27 27 28 28 28 28 29 19 13
40 39 39 39 39 37 33 32 28 28 29 29 30 29 30 31 39 39 39 38 37 30 30 29 30 36 36 36 34 36 36 34 26 26 26 25 24 22 23 25 29 28 28
38 36 36 37 36 36 34 33 31 32 31 30 30 27 27 30 29 38 38 38 37 31 30 34 35 35 35 31 34 35 34 25 25 24 25 21 20 21 20 21 23 30 30
36 35 35 35 34 34 33 32 30 30 29 30 29 28 26 28 28 28 30 28 34 32 32 27 33 34 35 33 31 30 27 26 25 22 22 25 25 19 20 21 20 29 28
35 34 34 34 33 31 30 30 29 29 31 28 27 28 26 25 30 34 33 30 28 32 31 27 26 26 24 26 26 26 26 26 23 23 23 25 28 27 26 28 27 27 25
33 32 31 31 31 30 29 28 38 37 37 37 37 32 30 36 37 36 36 36 35 35 27 24 22 21 21 24 24 24 24 28 28 26 26 25 24 24 24 25 26 24 23
32 31 31 33 31 30 30 29 27 30 37 36 35 35 35 35 35 35 35 34 34 33 24 21 19 19 20 20 18 17 25 27 27 26 24 24 24 24 25 23 24 23 23
33 38 30 30 29 29 30 29 29 28 27 27 33 33 34 34 34 34 34 32 25 28 25 23 17 19 19 17 16 18 26 26 25 25 24 24 24 23 23 23 23 22 22
31 30 30 29 30 31 30 29 28 28 27 26 27 31 33 34 34 35 34 25 23 23 24 19 19 17 17 15 16 15 24 25 25 24 24 24 24 23 23 22 21 26 26
32 36 34 29 29 29 29 28 28 28 26 25 25 25 26 27 26 26 26 25 24 23 24 19 19 18 16 11 12 13 15 19 19 17 18 19 21 21 22 22 22 21 22
31 31 35 29 28 28 28 28 28 26 25 25 25 29 34 26 24 24 24 24 24 23 19 19 17 15 12 12 12 14 16 19 19 17 18 19 19 19 22 23 23 23 22
32 30 30 28 29 29 29 29 27 27 26 25 25 28 33 25 23 23 24 24 24 24 20 19 16 15 15 14 14 14 15 17 19 18 18 19 20 21 22 22 22 22 22
31 30 29 29 29 31 29 28 26 26 26 26 25 26 27 24 24 23 23 23 23 19 19 19 17 16 15 16 15 16 18 19 20 19 19 20 20 21 21 20 21 20 21
32 30 29 28 28 27 27 27 26 29 27 26 25 26 24 23 23 23 21 16 18 16 18 18 18 17 19 18 18 19 20 21 21 21 20 20 20 21 20 20 20 21 21
31 29 28 27 27 27 27 27 26 25 26 27 26 25 23 23 21 18 17 17 17 17 17 19 19 18 17 17 18 20 22 26 26 26 25 23 21 20 20 21 21 22 23
30 30 29 28 26 27 27 26 25 25 24 22 22 19 19 19 19 18 18 19 24 23 18 20 20 18 18 20 21 24 28 30 29 31 30 28 27 26 27 26 26 26 27

GFSGL_sfc_temp_045.txt.gz
Temp
47 48 47 49 50 53 50 49 50 52 51 50 50 50 50 51 52 52 52 53 53 51 50 51 47 46 43 42 42 42 43 43 42 34 36 36 36 39 40 39 40 40 40
46 46 46 47 48 52 50 46 47 47 47 46 47 48 49 50 50 50 49 49 48 46 46 44 42 43 41 40 40 39 39 39 38 34 34 34 35 37 37 37 39 41 40
45 45 45 44 44 43 44 45 45 44 43 43 43 42 43 45 46 46 46 45 44 44 43 42 41 40 38 38 38 37 37 38 36 36 33 33 32 34 34 36 36 37 41
44 43 42 41 41 41 42 42 43 43 42 41 41 41 41 41 40 40 40 40 40 40 40 40 39 39 38 37 36 35 34 35 34 35 33 33 34 34 34 33 33 36 36
43 43 44 43 41 41 40 40 40 41 43 44 42 43 43 43 41 36 36 36 36 37 37 38 38 40 41 39 36 34 34 34 34 33 33 33 33 32 32 33 32 32 32
44 43 45 43 42 41 41 41 41 41 40 40 40 41 39 42 43 41 37 36 35 35 34 34 35 36 40 41 40 39 37 34 33 32 32 31 31 32 31 30 28 24 23
42 42 42 41 40 39 39 38 37 37 37 37 38 39 39 41 42 41 38 34 33 32 33 33 33 34 34 33 37 38 38 39 38 35 32 31 30 30 27 25 28 24 24
39 40 40 39 38 38 37 36 36 36 35 35 35 36 37 40 41 40 38 29 30 31 31 29 31 31 33 33 32 32 33 33 34 36 34 31 30 31 31 29 28 27 28
37 37 38 37 36 36 35 35 35 33 33 33 33 34 34 35 40 39 31 25 26 26 28 30 31 31 37 39 33 30 31 31 39 41 40 41 41 41 39 28 21 18 21
36 36 37 37 36 34 34 33 34 34 32 33 32 27 35 24 42 41 33 29 27 28 29 31 39 35 39 39 29 27 26 26 28 29 28 30 32 31 39 30 23 14 13
39 38 37 37 36 35 34 34 33 26 23 27 30 31 28 30 33 41 40 30 29 29 29 29 30 38 38 37 37 27 29 30 30 26 26 25 27 27 27 27 28 17 10
39 39 38 36 36 35 33 31 26 26 27 27 26 26 28 29 38 39 39 39 36 29 29 28 29 36 36 36 34 36 36 33 26 25 25 25 23 20 22 23 28 23 23
36 34 34 34 34 33 31 30 29 29 28 28 28 26 26 29 28 38 39 39 37 31 29 33 36 36 35 32 34 35 34 25 25 23 24 20 19 19 18 19 21 25 24
33 32 32 32 31 31 31 31 29 28 27 28 28 26 25 26 26 27 29 27 33 32 32 26 32 34 35 33 30 29 27 25 24 22 22 25 25 18 19 20 17 21 21
33 32 31 32 30 28 29 29 29 27 29 27 26 27 25 25 29 34 33 30 28 32 30 26 25 25 23 25 25 25 25 25 22 22 21 24 27 27 26 27 26 25 22
32 31 30 29 29 28 27 27 38 37 38 38 37 32 30 35 37 36 36 36 36 36 27 24 21 20 20 23 23 23 23 24 26 27 26 25 23 23 23 25 25 24 22
31 30 29 32 29 27 27 27 26 30 37 37 36 36 36 35 35 35 35 35 34 33 24 20 18 18 18 18 17 15 15 22 26 25 24 24 24 24 25 22 22 23 21
32 37 29 29 28 27 28 29 28 27 26 27 34 35 35 35 35 35 35 33 25 26 24 22 16 18 17 15 14 14 16 19 25 25 24 24 23 23 22 22 22 21 20
35 31 29 28 28 29 28 28 28 28 27 27 27 31 33 35 35 35 35 25 23 22 23 19 18 17 15 14 15 11 10 15 17 19 19 16 17 14 20 21 21 25 26
34 35 33 29 29 28 27 28 27 27 27 27 26 26 27 27 25 25 25 24 23 22 23 18 18 16 14 10 11 11 12 15 16 16 15 15 16 15 18 19 21 21 21
34 34 36 30 29 29 28 27 27 27 26 26 26 29 34 27 24 23 23 23 23 22 18 18 16 14 10 9 8 10 13 16 16 16 16 17 16 17 19 21 21 22 22
34 33 33 31 30 29 28 28 27 27 26 26 26 28 33 26 24 23 23 23 23 23 19 18 15 13 13 11 12 12 12 14 16 16 16 16 17 19 20 20 21 21 21
33 32 31 30 30 32 30 27 26 26 26 26 26 26 27 24 23 23 23 23 22 19 18 18 16 15 14 14 13 13 14 17 18 19 18 18 19 19 20 19 19 19 19
33 32 31 30 30 29 28 27 26 29 27 27 25 26 24 23 23 22 21 16 17 15 16 17 17 16 18 17 17 15 17 19 20 20 20 19 18 20 20 20 20 20 20
30 30 30 29 29 29 28 27 26 26 27 27 26 25 24 23 21 17 16 16 16 16 18 18 17 17 16 15 16 17 21 26 26 26 24 22 20 20 20 21 21 22 22
28 27 30 29 28 28 27 26 26 25 25 23 22 21 21 19 19 17 17 17 17 20 19 19 19 17 16 17 18 21 27 30 30 32 30 29 27 27 27 26 25 25 25

GFSGL_sfc_temp_048.txt.gz
Temp
45 46 45 46 48 48 46 46 46 46 45 45 46 46 47 47 48 48 48 48 49 50 49 49 47 47 45 45 44 44 44 44 43 38 37 37 38 40 42 40 42 41 42
44 44 44 44 44 45 43 43 44 43 43 43 43 43 44 44 44 44 45 45 47 45 45 44 42 44 41 41 41 40 40 41 40 36 35 35 35 37 37 37 39 41 40
43 43 42 41 41 41 41 42 43 42 41 41 41 40 40 41 40 40 42 43 42 42 42 42 41 41 39 39 39 38 38 38 36 36 33 34 33 34 33 35 36 37 40
42 41 39 39 39 39 40 40 41 41 40 39 39 39 39 38 38 37 37 36 37 39 39 39 39 39 38 37 36 35 35 35 35 35 34 33 33 34 34 34 33 35 35
41 42 42 42 40 40 39 40 39 39 39 39 39 39 40 42 41 35 35 35 35 36 36 38 39 41 42 40 37 34 34 34 33 33 33 33 33 33 32 34 32 32 34
43 43 43 43 42 41 41 40 40 39 40 40 40 41 41 42 43 41 37 36 35 35 34 34 35 36 38 42 41 40 38 34 33 33 32 31 31 32 32 31 29 27 24
42 42 41 41 40 39 39 38 37 37 37 37 37 39 40 41 42 40 37 34 33 32 31 30 32 34 33 33 36 37 37 39 38 33 31 30 29 30 28 24 26 21 23
40 40 40 39 38 37 37 36 35 35 35 35 35 36 37 40 41 40 37 27 25 23 23 22 23 27 33 33 29 29 30 31 32 35 32 30 30 30 29 26 26 25 27
37 38 38 38 37 36 35 34 34 33 33 33 34 34 34 30 41 39 29 20 22 23 27 28 29 29 39 40 30 27 28 29 37 40 39 39 40 40 37 27 21 17 20
37 37 37 37 36 34 34 33 34 34 33 30 24 21 34 21 42 40 33 29 26 27 28 30 38 35 39 39 28 26 25 26 27 28 28 29 31 30 37 30 22 12 12
38 38 37 37 35 35 34 34 30 29 30 30 31 31 26 29 32 41 39 30 29 29 28 29 30 38 37 37 37 27 28 30 29 25 25 25 26 26 26 26 27 15 8
39 38 37 37 37 36 33 31 26 24 24 24 25 25 27 27 38 39 40 38 35 30 29 29 28 37 37 37 33 36 37 34 25 25 24 24 22 19 21 22 26 22 22
39 38 33 32 32 31 27 27 27 27 26 26 28 26 26 29 27 36 38 38 37 30 29 33 36 36 36 32 34 36 32 25 24 22 23 19 18 18 17 18 20 23 21
33 32 31 30 30 29 30 30 28 27 26 28 28 27 24 26 26 28 29 27 33 32 32 26 32 33 34 32 29 28 26 25 24 21 21 24 24 16 19 23 24 27 17
31 30 30 30 30 28 29 28 29 27 28 27 27 27 25 25 29 34 33 30 28 32 31 26 25 24 22 24 24 25 24 24 21 21 21 23 27 27 26 22 25 25 20
31 30 29 28 27 28 27 27 37 36 39 38 36 31 30 35 37 37 37 36 36 36 28 23 20 19 19 22 22 22 22 23 21 26 26 25 24 24 24 25 24 19 20
32 30 29 31 27 26 27 27 26 30 38 38 37 37 37 36 36 36 36 36 35 33 24 20 17 17 17 17 16 13 13 17 15 21 24 24 24 24 24 22 20 21 20
33 37 31 30 28 27 27 27 27 27 26 27 34 36 36 36 36 36 36 34 26 26 23 21 16 17 17 15 13 12 13 15 15 17 15 23 23 23 22 20 19 18 18
36 35 33 30 29 30 29 28 27 27 26 26 26 31 33 36 36 35 34 25 23 22 22 18 18 16 15 14 14 10 8 11 12 9 9 12 12 11 15 17 18 24 24
37 37 35 32 30 29 28 28 27 26 25 25 25 25 26 28 25 25 25 23 22 22 22 18 18 16 14 10 10 9 10 13 13 12 12 11 12 11 14 16 17 17 18
34 35 37 32 32 31 29 29 28 27 25 25 25 28 33 26 24 23 23 22 22 22 18 18 16 14 11 8 7 8 11 13 13 13 13 14 12 13 16 18 18 19 19
34 35 35 32 32 31 29 29 28 27 26 25 25 27 34 27 25 24 23 23 23 22 19 18 15 13 12 11 11 10 10 12 13 13 13 14 14 16 17 18 18 19 19
34 33 32 32 31 33 31 28 27 27 26 25 25 26 27 25 24 22 22 22 21 19 18 17 15 14 14 13 12 12 12 15 16 17 17 17 18 18 18 17 18 18 18
33 33 31 30 30 30 30 29 28 30 27 27 26 26 25 24 23 23 21 16 17 15 16 16 17 15 16 16 16 14 15 16 18 19 19 18 18 19 19 19 19 19 19
31 29 29 27 28 31 30 30 28 27 28 27 27 26 25 24 23 19 17 17 16 15 17 19 17 17 16 15 16 16 19 25 25 25 23 21 19 19 20 21 21 21 22
30 29 28 28 26 27 29 29 28 27 26 24 24 23 23 22 22 22 20 18 17 17 17 19 19 17 16 16 17 19 26 30 30 32 31 29 28 27 27 26 25 24 24

GFSGL_sfc_temp_051.txt.gz
Temp
44 43 43 44 45 45 44 43 44 44 43 43 44 44 43 43 44 45 45 46 47 48 47 47 45 45 44 43 44 43 43 44 42 40 38 38 39 41 41 41 44 42 45
43 43 42 43 43 43 42 42 42 41 42 41 41 41 41 41 40 40 41 42 42 41 44 44 42 44 41 41 41 40 40 41 39 38 35 36 36 38 38 39 40 42 41
42 41 40 40 40 39 39 40 41 40 39 39 39 39 38 38 38 38 38 38 41 41 40 39 39 40 39 39 38 38 37 38 36 36 34 34 34 35 34 36 37 37 40
41 39 38 38 38 38 38 39 39 39 38 38 38 38 38 37 36 36 35 35 36 38 38 38 37 38 38 37 35 35 35 35 35 35 35 34 34 34 34 34 33 35 35
41 39 39 40 40 40 41 42 40 38 38 38 39 42 42 42 40 36 37 37 37 36 36 37 38 41 43 41 37 35 35 34 34 34 34 34 33 33 32 34 33 33 33
43 42 43 42 42 41 41 41 40 40 40 40 41 41 40 42 42 40 38 35 35 35 33 33 35 37 37 43 43 43 39 33 33 33 32 31 31 32 32 32 30 28 25
42 42 41 41 40 39 39 38 38 37 38 37 38 39 39 40 41 39 37 34 32 29 26 26 32 33 33 29 36 38 38 40 39 31 28 27 27 27 25 22 25 21 23
40 40 40 40 38 38 37 36 36 36 35 35 35 35 34 39 41 39 35 24 24 26 24 19 20 22 28 29 28 28 29 29 32 34 29 28 28 29 28 25 25 24 27
38 38 39 38 37 36 35 34 34 34 34 33 33 32 27 27 40 39 29 20 22 22 26 27 29 29 39 38 29 27 27 28 36 38 38 38 39 39 37 26 24 17 20
37 37 38 38 36 34 34 33 34 34 32 28 24 20 34 21 41 39 32 29 26 27 28 29 36 35 39 39 28 26 25 26 27 28 27 29 30 29 36 28 22 12 12
38 38 37 37 35 35 34 34 33 32 31 28 26 24 25 29 30 41 39 30 29 29 28 29 30 37 38 38 37 27 28 29 29 25 25 24 25 26 26 26 26 14 7
38 37 36 36 37 36 33 30 26 24 24 24 24 25 27 26 36 38 40 39 36 30 29 29 28 36 37 37 34 36 37 32 25 24 24 23 21 19 20 21 25 21 20
37 36 33 36 36 34 29 26 26 25 25 25 27 25 26 29 27 36 38 38 37 31 29 32 35 36 36 32 34 36 32 24 24 21 22 18 17 17 16 18 20 23 20
37 33 31 30 31 28 29 29 27 26 25 27 27 27 25 26 26 27 30 27 33 32 33 26 32 32 33 31 29 28 26 24 23 20 20 23 23 16 19 27 24 26 26
32 31 30 30 31 27 28 27 29 26 28 27 27 27 25 25 29 32 32 30 27 32 31 26 25 24 22 23 24 24 23 24 20 20 20 24 27 27 26 27 25 25 21
31 30 29 29 28 28 28 27 36 36 38 39 37 31 30 35 37 38 37 37 37 37 28 24 21 19 18 21 21 21 21 22 20 19 20 25 24 24 24 25 25 17 17
32 31 30 32 28 27 28 28 26 30 39 39 38 38 38 37 37 37 37 36 36 33 24 20 18 17 17 17 16 13 12 15 11 13 13 14 21 23 24 23 22 17 19
34 37 31 30 29 28 28 27 27 27 26 26 34 36 38 38 37 37 37 35 26 27 23 21 16 17 16 15 13 12 13 14 13 14 10 9 11 13 19 19 18 16 16
35 34 35 33 32 30 28 27 27 26 26 25 26 31 34 37 37 37 36 25 23 22 22 18 18 16 15 14 14 11 8 10 11 8 5 6 9 6 14 14 15 22 22
37 37 36 34 33 32 30 28 27 26 25 25 25 24 25 28 25 25 25 23 22 22 22 18 18 16 14 11 10 9 9 11 11 11 11 9 10 9 12 13 15 14 16
35 35 37 33 33 32 32 31 30 27 26 26 26 28 32 25 25 24 23 22 22 22 19 18 16 14 11 9 7 8 10 11 12 11 10 11 9 9 14 15 17 18 18
35 34 34 32 31 31 31 31 30 28 27 27 26 28 34 29 25 24 23 23 23 23 21 19 16 14 13 11 11 9 9 11 12 10 11 12 13 15 17 17 18 18 18
34 33 33 31 30 33 32 30 30 29 28 27 27 28 27 26 26 24 24 24 23 22 21 21 19 17 15 14 13 12 13 15 16 16 16 16 17 17 18 17 18 18 18
34 33 31 30 31 30 28 30 30 31 29 29 28 28 27 26 26 25 24 21 22 21 20 20 20 18 18 17 16 15 14 16 17 18 17 17 17 19 19 19 20 19 19
32 30 30 29 29 30 28 29 30 29 30 29 29 28 27 26 25 23 23 22 22 22 21 21 20 19 18 17 16 16 18 25 25 25 22 19 19 19 19 20 21 21 21
31 30 30 29 28 28 28 27 27 29 28 26 26 25 25 24 24 23 22 22 22 22 22 22 20 18 17 17 17 19 27 30 30 32 30 29 28 28 27 25 24 22 22

GFSGL_sfc_temp_054.txt.gz
Temp
42 42 42 42 43 43 42 41 41 42 42 42 42 42 41 41 42 43 43 45 47 46 45 44 44 45 44 43 44 44 43 44 42 41 39 39 40 41 41 43 43 43 45
41 41 40 41 41 40 40 40 40 39 40 40 40 39 39 39 38 39 39 40 40 39 40 42 41 44 41 41 41 40 40 40 40 38 36 36 36 38 39 39 41 42 41
40 39 39 38 38 37 38 38 39 38 38 38 38 37 37 37 36 36 36 36 37 37 36 36 36 36 35 37 38 37 37 38 37 37 35 35 35 36 35 36 37 38 41
40 39 38 37 37 37 38 38 38 38 37 37 38 40 38 35 36 37 37 38 38 39 39 39 38 36 34 33 35 35 34 35 35 36 35 34 34 35 35 34 34 36 36
40 39 38 38 39 39 42 41 39 38 37 41 41 42 42 41 39 38 38 38 37 36 36 38 39 41 44 41 37 35 35 34 34 34 34 34 33 33 32 33 33 33 34
43 42 43 42 42 41 41 41 40 40 40 41 41 41 40 41 42 41 38 36 35 33 32 32 35 36 37 43 42 42 40 33 30 25 25 28 27 28 28 27 26 23 22
42 42 41 41 40 39 39 39 38 37 38 38 38 39 39 40 41 39 37 33 27 25 25 25 30 32 30 27 35 37 37 40 39 30 27 26 26 26 24 21 24 20 22
40 40 40 40 38 38 38 37 36 36 36 36 35 32 34 39 41 38 35 21 25 25 20 17 19 21 27 29 27 28 28 29 31 32 28 28 28 28 28 24 25 23 26
38 39 39 39 37 37 35 35 35 34 34 33 31 27 26 26 40 38 28 19 22 22 26 27 29 29 40 38 29 27 26 28 35 37 37 38 38 38 36 26 20 16 20
38 38 38 38 37 35 34 33 34 34 32 30 24 22 33 21 40 39 32 29 26 27 27 29 37 35 39 39 28 26 25 26 27 27 27 28 29 29 34 27 21 11 12
39 38 38 37 36 35 34 34 33 30 25 21 21 22 24 28 29 41 38 30 30 29 29 29 30 37 38 38 36 27 28 29 28 25 24 24 25 25 25 25 25 13 6
38 37 37 36 37 36 33 31 30 29 28 27 24 25 27 25 35 37 40 38 35 30 29 29 28 37 38 37 33 37 37 30 25 24 23 22 21 19 20 20 24 21 20
37 36 35 36 36 34 30 28 26 24 24 25 27 25 26 29 27 35 38 38 37 31 29 32 35 36 35 31 34 35 31 24 23 20 21 17 16 17 15 17 19 22 20
36 34 34 34 34 32 29 29 27 25 25 27 27 26 25 26 26 27 30 27 33 33 33 25 32 32 33 31 28 27 25 24 22 19 19 22 23 15 17 26 25 19 19
34 33 31 32 34 29 29 28 29 27 28 28 27 27 25 25 29 32 31 30 27 32 31 26 25 24 22 24 24 24 23 23 19 20 19 20 25 26 27 27 26 24 23
32 31 31 30 29 28 27 28 36 36 38 38 38 31 31 35 37 38 38 38 37 37 27 23 21 19 20 22 22 21 21 21 19 17 15 15 18 18 19 23 25 23 17
34 32 31 33 29 28 28 28 27 31 39 40 39 38 38 36 37 37 37 37 37 35 24 20 17 17 18 19 18 15 13 15 10 10 8 8 12 12 22 16 19 21 17
35 37 32 31 30 28 29 29 28 28 27 27 35 37 39 39 38 38 37 36 26 28 23 21 17 19 19 17 16 15 13 13 12 12 8 6 6 6 12 17 18 12 14
36 35 34 32 32 32 31 30 29 27 26 26 26 31 35 39 39 38 38 26 23 22 22 19 18 19 17 16 16 14 9 10 9 7 3 3 6 2 10 12 13 21 21
38 37 37 34 33 33 32 31 30 29 27 26 26 26 26 29 26 26 25 24 23 22 22 18 18 18 17 15 11 10 10 11 10 9 9 7 8 6 9 11 13 12 15
36 36 38 33 33 33 33 31 32 30 30 29 28 29 32 27 26 25 24 24 23 23 20 19 17 16 15 12 7 9 11 11 10 9 9 10 7 8 12 14 16 17 17
36 35 35 33 33 32 32 32 31 31 30 29 28 29 35 31 27 26 25 25 25 24 23 22 20 18 14 13 12 12 12 11 12 11 11 11 12 14 16 16 17 17 18
35 34 34 33 32 33 31 29 27 29 30 30 29 29 29 28 27 26 26 25 24 23 22 21 20 18 17 16 15 14 13 15 16 16 15 16 16 17 17 16 17 17 18
33 33 33 33 31 31 30 29 27 28 29 30 29 29 28 27 27 27 26 24 24 21 19 19 20 20 20 19 17 14 14 15 16 17 16 16 16 17 18 19 19 19 19
32 32 32 31 29 30 29 29 28 27 28 29 29 28 27 27 27 25 24 24 23 21 21 20 18 18 17 16 17 15 17 24 25 24 21 19 19 18 18 20 20 21 22
29 31 30 30 29 29 29 29 28 27 26 25 26 26 25 25 25 24 22 23 21 22 20 20 18 17 16 16 16 18 26 29 30 31 30 28 27 27 26 24 23 22 22

GFSGL_sfc_temp_057.txt.gz
Temp
49 49 49 49 49 48 48 47 47 47 47 47 46 46 46 46 48 49 49 49 48 48 48 49 47 47 46 46 48 48 48 48 45 44 43 43 44 43 44 45 47 46 45
47 47 47 47 47 46 46 45 46 45 45 45 45 44 44 44 45 46 45 45 46 45 45 45 44 46 45 45 46 45 44 43 43 41 39 40 40 41 40 42 42 43 43
46 45 44 44 44 44 44 44 44 44 44 44 44 43 42 41 42 42 42 42 42 42 42 43 42 43 42 42 42 42 41 41 41 41 38 39 39 39 40 40 39 40 41
44 43 43 42 42 42 42 43 43 43 42 43 44 43 40 39 40 40 40 40 41 41 41 42 42 42 41 41 40 39 39 39 39 40 38 38 37 37 37 36 37 38 37
43 42 42 42 42 43 43 42 42 42 43 44 43 42 43 41 41 40 40 40 39 39 39 40 41 43 43 43 41 39 39 38 37 38 37 38 38 38 34 38 38 39 40
43 43 44 43 43 43 43 42 42 41 42 42 42 42 41 42 43 42 40 38 37 36 36 36 38 37 39 43 42 43 41 38 33 34 35 36 35 36 38 36 36 36 35
44 44 43 43 41 41 41 40 39 39 40 39 40 40 40 41 41 40 38 35 32 31 32 33 34 35 34 34 38 37 39 40 39 38 36 35 35 36 34 33 34 34 35
42 42 42 41 40 39 38 38 37 38 37 37 36 37 39 41 41 39 35 30 29 29 30 29 33 33 35 34 34 34 35 37 37 37 37 37 37 37 36 35 35 34 36
40 41 41 40 38 38 37 36 36 36 35 34 34 34 33 35 40 38 32 30 31 32 34 35 37 37 40 37 35 32 34 34 37 37 37 37 37 37 38 36 33 31 31
40 40 40 40 38 36 36 34 36 36 33 33 30 29 35 31 40 39 35 35 34 34 35 35 37 38 39 38 35 34 32 33 33 34 34 34 33 34 34 35 33 29 29
41 40 39 39 37 36 35 35 34 33 31 29 30 29 31 34 36 40 38 35 35 34 34 34 35 38 38 38 35 35 34 35 32 32 32 33 33 33 34 33 32 29 28
39 38 38 37 37 36 34 33 33 32 31 31 31 32 33 33 36 38 41 38 37 35 34 35 35 37 37 38 35 37 36 32 32 30 30 30 30 31 31 31 31 31 31
39 37 36 37 37 36 34 32 30 29 29 30 32 32 33 33 33 37 39 39 38 35 35 35 36 35 35 33 35 35 31 31 29 28 28 28 29 30 27 28 29 30 30
37 36 36 35 35 34 33 31 30 29 29 31 32 32 31 32 32 33 34 35 35 36 35 33 34 34 33 33 31 31 30 30 29 28 28 29 30 28 29 30 28 29 28
37 36 35 35 35 33 32 31 32 32 33 32 32 33 31 30 33 34 34 33 34 35 34 31 30 30 29 29 29 29 29 29 28 28 27 27 28 29 29 31 29 28 26
35 35 34 34 34 33 31 31 36 37 37 38 38 34 34 37 38 38 38 39 38 38 32 29 28 28 27 27 27 27 28 27 27 26 26 25 25 25 26 27 28 27 25
36 35 35 34 32 32 31 31 31 34 39 40 39 40 38 36 39 39 39 38 38 37 31 29 27 26 26 26 26 25 24 26 23 23 23 23 22 22 24 24 25 25 24
37 38 35 35 34 33 32 32 32 32 31 32 38 39 39 39 39 39 39 38 32 33 29 28 27 26 26 25 25 24 24 24 23 23 22 21 20 19 20 21 23 21 22
37 36 36 35 34 34 33 32 32 32 31 32 31 34 37 40 40 40 39 33 29 28 27 26 26 25 25 25 24 24 22 22 22 20 20 18 19 18 18 19 20 22 23
39 38 37 34 33 33 33 33 32 32 31 31 31 31 30 33 30 31 31 29 28 27 27 26 26 26 25 24 23 22 21 20 20 20 19 18 19 18 16 17 18 18 20
37 37 39 35 34 33 33 32 33 33 32 32 32 33 34 31 30 29 29 28 28 28 27 27 26 25 24 23 22 20 19 20 20 19 19 19 18 16 18 18 19 20 20
36 36 37 35 34 33 33 33 32 31 32 31 31 32 37 34 30 30 29 29 29 29 29 28 27 25 23 22 21 20 20 19 20 18 18 17 17 18 19 20 20 20 20
35 35 34 35 34 35 33 32 32 31 31 28 28 31 31 32 32 30 29 29 29 28 28 27 26 24 24 22 21 21 20 20 21 21 19 20 19 20 20 20 20 20 20
35 34 33 33 32 32 31 31 30 30 29 28 28 28 31 31 31 30 29 28 28 27 27 25 25 24 24 23 23 22 20 20 20 20 19 19 19 20 21 21 21 21 21
33 33 32 33 31 32 31 31 30 29 29 28 27 27 28 29 30 29 28 28 27 26 26 25 25 23 22 21 20 20 21 25 25 22 21 20 20 21 21 22 22 23 23
32 32 32 31 31 30 30 30 30 29 28 28 27 27 26 26 28 28 27 27 26 26 25 25 24 23 21 21 20 21 26 28 29 31 30 28 26 25 25 23 23 23 23

GFSGL_sfc_temp_060.txt.gz
Temp
60 60 59 59 58 58 59 58 58 57 56 55 54 55 54 55 56 57 53 53 53 52 52 52 52 54 53 53 54 51 51 52 48 43 45 48 50 50 50 50 48 48 48
58 58 57 57 56 57 57 56 56 55 54 53 53 53 53 53 54 55 53 54 54 53 52 52 51 52 52 52 52 52 51 51 50 47 44 46 45 46 46 46 46 47 47
56 56 55 55 55 55 54 54 53 53 53 52 52 51 50 50 51 51 51 50 50 50 50 50 48 50 49 49 49 48 48 47 46 45 41 43 42 42 41 44 45 45 46
52 53 53 53 53 53 52 52 51 51 51 51 50 48 46 46 45 45 45 46 45 45 46 46 47 47 46 45 44 44 43 44 44 44 41 41 40 40 40 39 44 45 44
52 50 49 51 50 49 48 49 49 49 49 48 46 45 45 44 44 43 43 43 43 42 43 43 43 44 44 44 44 43 43 43 41 41 41 42 42 41 39 42 43 44 46
52 50 51 49 49 48 47 45 45 45 45 45 44 45 44 44 43 43 43 43 43 42 41 41 42 41 43 43 43 43 43 42 37 39 41 42 41 42 44 42 41 40 39
51 51 50 49 46 45 44 42 42 41 42 42 42 43 42 42 43 41 40 40 37 35 35 36 38 40 38 39 40 39 40 41 40 43 42 42 41 41 38 37 38 38 39
50 49 48 46 44 42 41 40 39 40 40 39 40 41 41 42 41 39 37 34 33 33 34 34 36 36 38 39 39 39 40 41 41 42 42 42 42 42 41 38 39 38 41
47 47 46 45 42 40 38 38 38 37 37 37 38 39 37 39 40 39 36 36 35 36 38 40 42 42 40 38 39 36 39 39 39 37 37 37 37 37 39 40 36 34 35
46 46 46 44 41 38 38 36 37 37 34 37 34 34 38 38 40 39 39 41 38 40 40 40 38 41 39 38 39 39 37 38 38 38 39 38 37 38 35 38 37 31 33
46 45 44 42 40 38 36 36 36 35 34 34 33 34 35 39 42 40 39 40 40 39 40 39 40 38 39 39 37 39 37 39 37 37 38 38 38 38 38 38 36 33 31
45 43 42 40 39 38 36 34 34 35 35 37 38 38 40 41 39 41 40 39 39 39 38 39 39 37 37 38 38 37 37 35 37 36 35 36 35 35 35 35 34 34 35
42 41 40 39 38 37 36 35 35 36 37 37 37 38 39 39 40 39 41 41 39 38 39 38 37 36 36 35 35 36 33 36 35 33 33 33 34 35 31 32 32 32 32
42 40 39 37 36 37 37 36 36 35 36 38 37 38 39 39 38 39 39 40 39 38 37 37 37 36 34 36 34 34 35 36 34 34 33 34 35 32 32 34 31 32 30
42 39 37 37 37 36 36 35 37 39 40 38 39 39 38 37 38 40 39 38 39 38 37 36 35 35 35 35 34 34 35 34 33 33 32 32 33 33 32 34 32 31 29
38 38 38 37 38 37 35 35 38 39 39 39 40 39 39 40 39 39 39 38 38 38 36 34 34 34 34 34 33 33 34 32 33 32 31 31 30 30 30 31 31 30 29
37 38 38 38 37 36 34 36 36 38 39 39 39 40 39 39 39 39 39 39 40 39 35 36 33 33 33 33 32 32 31 32 31 29 29 29 28 28 27 28 29 29 28
38 39 37 37 38 37 36 37 38 38 36 37 39 40 40 40 39 39 39 39 36 37 35 34 34 34 33 32 32 31 31 31 30 29 28 27 26 25 25 26 27 26 26
38 36 37 37 39 40 38 36 35 35 35 36 36 37 40 40 40 40 40 37 35 33 34 33 34 33 32 31 31 30 30 29 29 28 27 26 25 25 24 25 25 26 27
40 38 38 36 35 34 35 35 36 36 36 36 36 35 36 36 35 36 38 37 35 34 35 33 33 32 31 31 30 29 29 28 27 27 27 26 26 26 24 24 25 24 25
42 41 39 37 35 35 34 33 34 33 33 34 35 37 38 36 35 35 34 34 34 34 34 33 33 31 31 30 29 28 27 27 28 27 26 26 25 24 25 24 24 24 24
40 39 38 37 36 34 34 34 33 33 33 33 33 33 38 37 35 34 33 33 34 34 35 33 32 32 31 29 28 27 26 26 27 27 26 25 25 24 24 24 24 24 24
37 36 36 36 35 36 34 33 33 33 32 32 32 31 30 32 36 34 33 34 33 33 33 32 31 31 31 29 28 28 26 27 28 28 26 26 25 25 25 24 24 24 24
37 36 35 35 34 34 34 33 32 32 32 32 30 30 30 31 35 34 34 33 33 32 32 32 31 30 30 29 30 29 27 27 28 27 25 24 24 25 24 24 24 24 24
38 37 35 35 35 35 34 33 34 34 33 32 32 32 32 31 30 31 32 33 31 31 31 31 30 29 29 27 27 28 28 28 26 25 24 24 23 23 24 25 25 26 25
37 36 35 34 34 33 33 34 34 34 33 33 32 32 31 30 30 30 29 29 30 29 30 31 30 29 28 28 27 26 28 29 29 30 29 27 25 25 25 25 25 25 25

GFSGL_sfc_temp_063.txt.gz
Temp
64 64 63 62 61 62 62 61 60 60 59 58 57 57 57 57 58 58 55 55 54 53 53 52 52 55 53 53 53 53 53 52 50 45 46 48 49 48 48 49 48 47 48
63 62 62 61 60 60 60 59 59 58 57 56 55 55 55 55 55 56 55 55 55 54 54 53 52 54 52 53 52 52 51 50 48 47 44 44 44 45 46 45 46 47 46
60 60 59 59 58 58 58 57 56 56 55 55 54 53 52 51 52 53 53 53 52 52 51 50 50 51 48 49 48 47 46 46 45 43 40 43 42 41 41 43 44 44 47
56 57 57 57 57 57 56 55 54 54 54 53 52 51 49 49 48 47 48 48 47 47 47 47 47 47 46 45 44 44 44 44 44 43 41 40 40 40 40 39 41 44 43
55 54 53 54 53 53 52 52 52 52 52 50 48 47 47 46 46 44 45 45 44 44 44 43 43 44 44 45 43 43 43 41 39 40 40 40 40 40 38 40 37 39 42
56 54 54 53 52 50 50 49 47 47 47 46 46 46 45 46 43 44 44 43 44 43 41 41 42 42 43 44 43 42 41 40 36 36 38 39 39 38 40 36 35 33 32
55 55 54 52 50 49 48 47 44 43 43 43 43 44 43 44 44 43 44 41 37 36 35 36 38 40 38 37 40 41 41 41 41 40 37 37 37 37 34 33 34 33 33
53 53 52 50 48 47 45 42 41 41 40 40 40 42 42 42 42 41 39 35 33 33 34 33 35 35 37 38 38 37 38 39 39 41 39 38 38 38 37 36 34 33 35
51 51 50 49 46 44 42 40 39 38 38 37 39 40 37 39 41 40 37 35 34 34 36 40 41 41 39 39 37 34 37 37 39 38 38 38 38 38 38 34 31 30 29
50 50 50 48 45 42 39 36 38 37 35 36 34 35 39 37 41 40 39 38 36 38 38 39 39 40 40 39 37 36 34 35 35 35 35 36 36 36 36 34 32 26 28
50 49 48 46 44 41 37 37 36 35 34 34 34 34 36 39 41 41 40 39 38 37 37 37 38 39 39 39 38 36 34 36 35 33 34 34 34 34 34 33 32 29 26
49 47 45 44 42 39 37 35 35 34 34 35 37 38 39 41 41 42 41 40 41 37 36 37 37 37 38 39 38 39 38 35 34 33 32 32 31 31 31 31 31 30 30
46 45 44 43 41 39 37 35 34 35 36 38 37 37 37 38 39 41 42 42 40 37 37 38 38 37 37 36 37 37 37 32 32 31 31 29 30 30 28 28 29 30 31
45 44 42 39 38 37 37 36 35 35 36 37 36 36 38 37 37 38 38 39 41 38 38 35 36 37 37 36 34 34 32 33 32 30 30 31 31 28 27 29 27 28 28
43 41 39 39 38 36 36 36 36 39 40 37 38 38 37 36 37 40 39 37 37 37 37 34 33 33 32 32 32 33 32 32 29 30 29 29 31 29 29 29 28 26 25
40 40 38 36 37 35 35 35 40 41 42 42 42 40 38 41 42 42 41 41 40 40 34 32 32 32 32 32 32 31 32 31 29 29 28 27 26 26 26 27 26 25 24
38 36 36 36 36 35 35 34 34 38 40 40 40 40 40 40 40 40 40 40 40 39 33 33 32 31 30 30 29 28 28 29 27 27 25 24 24 24 25 24 24 25 24
38 39 37 36 37 36 36 35 37 37 34 35 39 40 40 40 40 40 40 39 35 37 34 33 32 31 31 30 29 28 28 28 27 26 25 23 22 22 22 22 23 22 23
38 37 37 37 36 37 35 35 37 37 36 36 35 37 40 41 41 40 40 35 33 33 33 33 32 32 30 30 29 28 27 27 27 25 24 22 23 23 22 22 22 27 26
40 39 38 36 35 35 35 34 35 35 35 35 35 35 35 37 35 35 35 35 34 34 34 32 32 32 30 30 29 29 28 27 26 24 25 25 25 24 22 22 24 23 24
40 39 39 36 35 35 35 34 35 34 34 34 35 35 38 34 34 34 34 35 35 35 34 33 33 32 31 30 29 29 28 27 26 25 26 26 25 24 25 25 24 24 24
40 39 38 36 35 34 34 34 34 33 33 32 32 34 38 36 34 34 35 35 35 35 35 33 32 32 31 30 29 28 27 26 26 26 26 26 26 25 25 24 24 24 24
37 36 36 36 35 36 35 34 33 33 33 33 32 31 31 32 32 33 34 34 34 33 32 32 32 31 31 31 30 29 27 27 27 27 26 27 26 25 25 24 23 23 23
36 35 34 34 33 33 33 33 32 33 32 31 32 32 31 31 32 32 33 34 32 32 32 32 31 29 30 30 29 29 28 28 28 28 26 26 25 25 25 24 23 23 23
36 35 34 33 33 34 33 33 33 33 33 33 33 32 32 32 32 32 32 33 30 29 31 30 30 30 29 29 29 29 29 31 27 26 25 25 24 23 23 23 23 23 23
36 36 36 34 34 34 33 33 33 33 32 33 32 32 32 31 31 31 30 29 29 29 28 30 29 29 29 29 28 28 31 31 30 31 28 25 23 23 24 23 24 24 24

GFSGL_sfc_temp_066.txt.gz
Temp
58 56 55 55 56 56 56 54 53 53 52 51 51 50 50 50 50 50 53 53 52 51 51 50 50 52 51 50 49 49 47 49 47 43 45 46 45 44 44 46 47 46 46
56 56 55 54 53 53 53 53 53 52 51 50 50 49 49 49 48 48 48 49 52 51 51 50 49 52 48 47 46 44 44 42 42 44 42 42 41 40 38 44 46 47 45
53 52 52 52 52 52 52 51 51 50 49 49 48 47 47 46 45 45 46 46 45 44 45 44 43 43 41 41 42 43 40 43 41 40 38 40 39 38 40 42 43 38 43
50 50 49 49 51 50 51 50 50 50 48 48 47 45 45 44 43 43 44 42 42 43 42 41 41 41 43 43 42 42 42 40 41 40 39 37 38 38 39 36 34 37 36
48 47 47 47 47 48 47 47 48 47 46 46 44 45 46 45 45 43 44 44 43 42 41 42 41 43 45 45 41 40 40 37 37 37 36 37 38 36 34 33 31 32 33
48 47 48 47 46 44 44 44 43 43 43 43 44 45 44 46 44 45 44 42 42 41 39 37 38 40 42 44 43 43 40 37 35 34 35 35 33 31 31 29 28 23 24
48 48 48 47 45 44 46 46 40 39 42 42 42 43 42 42 44 44 44 39 36 35 34 33 35 38 36 33 40 42 41 42 40 33 30 29 29 30 28 27 27 25 26
47 47 47 45 43 43 44 42 39 40 40 39 40 41 40 41 43 42 40 34 33 32 32 31 30 30 33 35 33 33 33 33 34 36 31 30 30 31 31 30 29 28 29
45 45 45 44 42 41 41 38 38 38 38 37 38 38 36 37 41 41 34 30 31 31 31 34 36 34 40 40 34 31 32 32 39 39 39 39 38 38 37 29 24 21 23
45 45 44 43 41 41 41 36 38 37 35 36 34 34 39 34 41 41 36 32 31 31 33 35 40 38 41 39 32 31 30 30 31 31 30 33 34 33 37 29 24 16 19
45 44 43 42 42 40 36 36 36 35 34 33 33 33 32 35 36 41 41 35 34 33 32 32 33 40 40 40 39 30 31 32 34 30 29 29 29 28 28 28 28 19 15
44 42 41 40 42 39 36 35 35 34 33 33 34 32 33 35 41 42 42 41 40 34 33 33 33 39 39 39 37 38 38 36 30 29 29 28 25 23 24 25 28 26 24
41 39 40 41 40 38 36 35 34 34 34 34 34 32 31 33 34 42 42 42 41 35 33 36 39 38 38 36 38 38 38 30 29 28 27 23 22 22 21 22 24 25 24
39 38 40 39 38 37 36 35 34 33 33 34 33 31 31 32 32 33 35 35 41 38 38 31 35 36 36 34 34 33 30 29 28 25 24 27 26 20 22 22 20 21 19
39 37 38 38 38 35 35 35 35 37 38 35 34 33 32 31 33 36 35 33 32 35 34 31 30 29 29 29 29 29 29 29 26 25 24 25 28 25 25 22 22 19 17
39 37 37 36 36 35 34 34 40 40 41 42 42 37 35 40 42 42 42 41 41 40 33 30 29 28 29 30 30 30 29 30 25 23 21 20 21 20 20 21 19 17 16
38 37 37 35 35 33 32 32 32 36 41 42 41 41 41 39 42 41 42 41 41 40 32 30 30 29 30 29 28 25 23 24 19 18 16 15 15 16 23 18 18 17 17
39 39 36 36 36 35 34 33 33 33 32 32 39 39 41 41 40 40 41 40 33 36 32 31 30 30 29 28 27 26 24 22 21 19 15 15 15 14 14 16 17 15 14
38 37 37 37 36 36 35 34 33 33 32 32 31 36 40 41 41 41 40 34 32 31 32 29 30 29 28 28 27 26 24 23 20 19 19 18 16 14 17 17 16 26 24
39 39 39 36 35 35 34 33 33 33 32 33 33 33 32 35 32 34 35 33 32 32 32 31 31 31 30 29 27 26 25 27 23 20 20 19 21 20 21 18 18 17 20
40 39 40 36 35 35 35 34 34 33 33 33 34 35 37 33 33 34 34 33 33 33 32 31 31 31 30 29 28 28 27 27 26 25 23 23 23 22 23 24 24 24 23
39 38 38 36 35 35 35 35 34 33 33 32 33 34 38 36 33 34 34 34 34 35 34 33 31 30 31 29 29 27 27 26 26 25 25 25 24 25 25 25 24 24 23
37 36 36 36 35 36 35 33 33 32 32 32 32 32 32 32 32 32 33 34 33 32 31 30 29 28 30 30 30 29 27 27 27 27 26 25 25 24 25 24 23 23 22
36 35 34 34 34 34 34 33 32 33 32 32 31 31 31 31 31 32 32 31 31 30 30 29 29 29 29 29 29 29 29 28 28 28 27 26 24 26 26 24 23 22 22
34 33 33 33 33 34 33 32 32 32 32 32 32 32 32 32 31 30 31 32 29 28 29 28 29 28 28 28 28 28 28 31 28 28 26 25 24 24 24 23 22 22 22
32 32 32 32 31 32 32 32 32 32 31 32 31 31 31 30 29 29 28 28 28 28 28 28 28 28 27 28 28 28 31 32 31 33 26 24 23 23 23 21 21 21 21

GFSGL_sfc_temp_069.txt.gz
Temp
58 56 55 55 55 55 53 54 52 53 52 52 50 49 49 48 48 47 48 49 49 48 48 49 50 51 50 49 49 49 48 48 47 43 44 45 43 44 45 46 46 45 46
53 53 52 52 53 52 52 52 53 50 51 50 49 48 48 47 46 46 47 47 48 49 49 49 49 51 47 47 47 45 44 41 44 43 42 41 41 40 38 43 45 46 44
51 50 50 50 50 50 50 51 51 49 47 48 48 47 46 45 44 43 44 44 43 43 45 45 45 45 42 41 41 43 42 41 38 37 38 40 38 39 39 41 42 37 42
48 48 47 47 47 46 47 48 48 48 46 46 45 45 44 43 43 42 42 40 40 40 40 40 40 40 40 41 42 42 42 40 41 39 38 37 38 38 38 33 33 34 34
47 46 46 46 45 45 45 45 45 45 44 43 42 43 43 43 44 42 44 43 43 41 42 42 41 42 45 44 41 40 40 38 37 36 36 37 37 36 32 31 30 30 31
46 46 46 45 44 43 42 42 41 41 41 41 41 44 44 45 45 45 44 42 42 40 39 38 39 40 43 44 44 43 41 38 36 35 32 33 31 31 30 28 28 23 24
46 46 45 44 43 42 42 40 39 38 38 38 40 43 42 42 45 45 45 40 37 36 34 33 35 37 35 34 41 42 42 43 39 34 31 30 30 30 29 27 27 24 26
45 45 45 44 42 41 40 40 41 37 37 36 38 41 40 41 44 43 41 35 34 33 32 29 28 29 32 33 32 32 32 33 34 36 31 30 30 30 31 30 29 27 28
45 45 44 43 41 40 39 38 39 36 36 38 39 39 37 38 42 42 35 31 29 28 30 33 34 34 40 41 33 31 31 32 40 40 39 39 39 39 36 29 24 22 22
45 44 43 42 41 38 38 38 37 37 36 36 34 35 39 35 42 41 35 31 29 30 31 33 40 36 41 40 32 31 29 29 31 31 31 33 34 34 38 29 25 15 18
44 43 42 41 39 38 38 37 35 35 35 34 34 34 35 36 36 42 40 33 32 32 32 32 33 41 41 40 37 30 31 31 34 29 29 28 29 29 28 28 28 19 14
43 41 40 39 40 38 37 36 35 35 34 34 34 33 34 33 39 42 42 41 39 33 32 32 33 41 40 40 37 38 39 36 29 29 29 29 27 25 25 25 28 25 24
40 39 39 38 38 39 37 35 34 35 34 33 33 33 32 32 32 42 43 43 42 34 33 35 38 40 39 37 39 39 39 30 29 28 28 25 25 25 22 21 23 24 23
38 37 37 37 38 37 36 36 35 34 33 33 33 33 31 30 31 32 35 38 41 38 38 34 37 36 36 34 34 34 30 29 29 27 27 29 27 21 23 22 19 21 18
37 36 36 37 39 36 36 35 35 37 37 35 35 35 32 29 32 36 35 33 33 35 34 31 30 30 29 29 29 30 29 29 27 28 27 27 29 27 25 21 21 18 16
39 38 38 37 38 36 34 34 40 40 41 41 41 37 35 39 41 41 41 40 40 40 34 30 29 29 29 30 30 30 29 31 28 27 25 24 24 22 21 20 18 16 15
40 38 38 36 35 34 33 33 32 36 41 41 41 41 41 38 42 42 42 41 41 41 32 29 29 29 29 29 28 27 27 28 27 25 24 22 19 17 23 17 17 16 15
40 40 37 36 36 35 34 33 33 32 33 34 40 40 41 41 41 41 41 41 34 37 32 30 29 29 30 28 27 27 27 25 26 25 22 19 18 19 18 13 13 11 11
39 37 38 37 36 36 34 34 33 33 32 31 31 36 40 41 41 41 41 33 32 31 31 31 31 29 29 30 30 28 27 26 25 23 23 21 19 17 19 18 16 25 23
39 39 39 36 35 35 34 33 33 33 32 32 32 33 32 35 33 33 34 33 32 32 32 31 31 31 30 30 30 28 27 28 27 24 24 23 22 20 21 21 20 18 18
39 39 40 37 35 35 35 34 34 33 33 33 33 34 37 33 33 33 34 34 33 33 32 32 31 30 30 26 25 25 26 27 26 25 24 23 23 23 23 23 22 22 22
36 38 38 37 35 35 35 35 34 34 34 33 34 34 38 35 33 33 33 34 34 35 34 33 32 32 31 30 29 27 27 26 26 25 23 24 25 24 24 23 24 23 23
34 35 36 36 36 36 35 35 34 34 34 33 33 32 32 33 33 33 33 34 33 33 33 33 33 31 30 30 29 28 26 26 26 26 26 25 25 25 24 24 24 23 23
33 33 34 35 34 34 34 34 33 34 33 32 32 32 32 32 32 32 32 32 32 31 30 30 30 27 28 29 28 27 27 26 27 27 26 25 25 26 25 24 24 23 23
32 32 32 32 33 34 33 33 32 32 32 32 32 31 31 31 31 31 31 31 31 29 27 28 28 27 28 28 28 28 29 31 28 28 28 27 25 25 24 24 24 23 22
31 32 32 32 32 32 32 32 32 32 31 31 31 31 30 30 30 30 30 29 28 27 27 27 27 26 26 27 27 28 31 32 31 32 28 25 24 23 23 23 22 22 21

GFSGL_sfc_temp_072.txt.gz
Temp
53 52 52 54 55 54 53 53 53 52 51 50 50 49 49 49 48 47 47 48 48 47 47 47 47 48 49 49 49 49 48 48 48 43 44 44 43 44 45 46 46 45 45
51 51 51 52 53 50 51 52 51 51 50 51 48 48 47 47 46 46 46 47 47 46 47 46 46 49 48 47 47 46 44 44 45 42 42 41 40 41 41 43 45 45 43
49 49 48 48 48 47 47 48 48 48 48 48 48 47 45 44 44 44 44 44 43 43 44 47 46 46 44 43 44 43 43 43 41 41 38 40 38 39 39 41 42 37 41
47 47 46 46 46 46 46 46 46 46 45 44 44 43 44 42 42 41 41 40 40 40 40 40 41 43 42 42 42 42 42 41 41 39 39 37 38 38 37 33 36 33 34
46 45 45 45 45 44 44 44 44 44 43 43 41 41 41 42 43 40 41 41 42 41 42 42 41 42 45 44 42 41 41 38 37 37 36 37 37 35 32 32 30 30 31
45 45 45 44 43 43 42 41 41 40 40 40 40 40 40 44 47 46 45 42 42 41 39 39 40 41 43 45 44 43 42 39 37 36 35 35 32 31 31 29 28 24 25
45 45 44 43 42 41 41 40 39 38 38 38 38 39 39 42 46 46 46 41 39 37 36 35 36 37 36 34 42 41 42 43 40 36 32 32 31 31 29 28 27 25 26
44 44 44 43 41 40 39 38 37 36 36 36 36 37 38 41 45 45 43 36 34 34 34 33 27 28 32 34 32 32 31 32 33 36 33 32 31 31 31 30 29 28 28
44 44 44 42 40 39 38 37 37 36 35 35 36 37 38 38 44 44 38 34 33 33 33 32 32 32 38 41 32 31 32 33 40 39 39 40 40 39 35 29 25 23 24
45 44 43 42 41 39 38 36 36 38 35 36 34 35 39 36 42 42 36 32 31 30 31 33 40 35 41 41 32 32 30 30 31 31 31 33 33 34 38 30 27 21 22
43 42 41 41 40 39 37 35 35 37 36 35 34 34 36 37 38 42 39 31 31 30 30 32 34 41 42 41 37 31 32 32 34 30 29 28 29 29 29 29 29 23 17
42 42 40 39 40 39 36 34 36 36 35 35 34 34 35 36 40 42 42 39 37 32 31 33 33 40 41 41 38 38 39 36 30 29 28 28 27 26 27 29 29 28 26
40 39 38 37 38 37 36 35 35 35 35 34 33 33 33 34 32 41 43 43 42 33 32 35 37 40 41 39 40 39 40 30 29 28 28 25 24 25 25 26 27 26 23
38 37 36 36 36 35 36 36 35 35 34 34 33 33 33 33 32 31 35 38 42 38 37 34 37 37 37 34 35 34 31 29 28 27 27 29 28 25 26 26 23 22 18
37 36 35 36 38 35 37 36 35 37 38 35 35 35 33 32 32 35 35 33 33 36 34 31 30 30 29 29 29 29 29 29 28 28 28 28 30 29 28 25 23 17 17
39 38 38 38 39 37 35 35 40 40 41 41 41 38 36 40 40 40 40 41 41 40 34 29 29 28 28 29 29 29 29 31 28 27 27 26 26 26 25 24 20 17 17
40 39 38 38 37 35 34 34 33 36 41 40 40 41 41 39 41 41 41 41 41 41 33 29 28 28 28 28 27 27 26 28 27 26 26 24 23 23 26 23 22 22 20
41 41 38 38 37 36 34 34 34 33 33 33 38 40 41 41 41 41 42 41 34 37 33 31 29 29 29 28 27 27 27 25 24 24 23 23 22 22 22 22 20 19 20
40 39 39 38 37 37 35 34 34 33 33 33 33 37 40 41 42 42 42 34 34 32 33 31 29 28 28 28 29 28 27 25 22 23 24 22 19 18 20 22 19 26 23
39 40 39 37 35 35 34 34 33 33 33 33 32 33 33 37 34 35 35 34 33 33 32 32 32 32 31 29 28 28 27 27 25 23 22 21 21 19 19 21 22 21 21
37 39 40 37 35 35 35 34 34 34 33 33 33 34 37 33 34 34 33 34 34 34 33 32 32 32 31 30 30 27 26 26 25 25 22 23 20 18 22 24 24 23 22
34 35 37 37 36 35 35 35 34 34 34 34 34 34 38 34 32 32 33 34 35 35 35 34 33 32 32 31 29 26 24 25 23 23 23 21 21 24 25 24 24 23 23
32 32 33 35 36 37 36 35 34 34 34 34 34 33 33 33 33 32 33 33 33 32 33 33 33 32 32 32 31 30 29 29 28 26 23 24 24 25 25 24 24 23 23
33 31 32 33 34 35 35 35 34 35 34 33 33 33 32 33 33 33 32 32 31 31 31 32 32 32 29 29 29 29 29 26 27 26 26 25 25 26 25 25 24 24 24
32 31 31 32 32 33 34 34 34 33 33 32 32 32 32 32 32 31 31 31 31 31 30 30 30 28 27 27 27 27 28 31 27 27 26 26 26 25 25 25 24 24 24
30 31 31 32 32 32 32 32 32 32 32 32 31 31 30 29 29 30 29 28 28 29 29 26 26 26 25 25 25 26 31 33 32 32 27 26 25 25 25 23 23 23 23

GFSGL_sfc_temp_075.txt.gz
Temp
52 52 51 51 52 52 54 54 52 52 51 52 52 51 50 49 47 46 46 46 47 46 46 46 46 47 46 47 48 49 49 48 48 42 44 44 43 44 44 45 46 45 45
49 50 50 50 51 51 51 52 51 51 50 50 50 48 47 46 45 44 44 45 45 45 46 46 46 48 45 45 47 46 45 45 46 42 42 41 40 41 42 43 45 45 42
48 48 47 47 47 47 48 49 50 49 48 46 46 46 45 44 44 43 43 43 43 42 43 44 44 44 44 44 44 44 43 44 42 42 38 39 38 39 40 41 41 36 40
46 46 46 45 46 45 45 45 45 45 44 43 43 43 42 42 41 40 40 40 39 39 39 40 43 43 43 43 43 42 42 41 42 40 39 37 38 38 38 35 36 34 34
45 45 45 45 44 44 44 43 43 43 43 42 41 40 40 41 42 40 40 39 40 42 42 42 42 43 45 44 42 41 41 39 38 37 36 37 37 36 34 32 33 31 32
44 45 45 44 43 43 42 41 41 41 40 40 39 39 39 42 46 47 45 42 42 42 40 40 41 42 43 45 44 44 42 39 37 36 36 36 35 33 31 31 30 26 28
44 44 44 43 42 41 41 40 39 38 38 37 37 38 38 38 46 47 47 42 40 38 37 36 37 39 37 34 41 41 42 43 41 37 36 32 30 32 30 28 28 27 27
43 43 43 42 41 40 39 38 37 36 36 36 36 37 37 39 45 46 46 37 35 34 34 34 34 33 32 33 31 31 31 32 33 35 32 31 31 31 31 31 30 28 29
42 43 43 42 40 39 38 37 36 35 34 34 35 35 35 35 44 45 39 34 34 34 34 35 35 31 37 41 33 31 31 33 39 39 39 40 40 39 35 30 26 25 26
42 43 42 42 41 39 38 36 35 35 35 33 34 34 38 36 43 44 40 35 33 33 33 34 39 34 40 42 32 31 30 30 32 32 31 33 33 36 39 30 27 20 22
42 42 41 41 40 39 37 35 35 35 34 35 35 35 35 38 38 43 42 31 31 32 31 30 31 41 41 42 38 31 32 33 34 31 29 28 29 29 29 29 29 23 20
40 40 40 39 39 38 36 35 33 34 35 36 35 35 36 37 41 42 43 39 36 30 30 30 31 40 41 41 39 38 39 36 30 29 29 29 27 27 27 27 29 28 27
39 38 38 37 37 36 35 34 33 34 36 35 34 34 34 34 35 41 43 43 41 32 30 34 37 39 41 40 41 40 40 31 30 28 28 26 26 26 27 27 27 28 27
37 37 36 35 35 34 34 35 35 35 35 34 33 33 34 33 34 34 35 36 42 38 37 31 36 37 39 36 35 35 32 30 29 28 27 29 28 26 27 28 27 27 25
37 36 35 35 36 34 35 36 36 38 38 35 35 35 33 32 34 37 36 33 31 34 32 29 29 30 29 29 29 29 29 30 29 28 27 28 29 28 27 26 26 24 21
39 38 38 37 38 37 36 36 41 41 41 42 41 38 36 40 41 40 40 40 40 41 32 28 27 28 27 29 30 29 28 30 27 26 25 25 26 25 24 24 24 21 22
40 40 38 37 37 36 35 35 34 36 41 41 41 41 41 38 40 41 41 41 41 41 34 32 28 28 29 29 27 26 26 26 25 26 24 23 22 22 26 25 23 23 22
40 41 39 38 38 37 35 35 35 34 33 35 40 40 41 41 40 40 40 41 34 38 34 31 29 30 29 28 27 27 27 25 25 25 23 21 21 20 19 20 20 19 19
37 38 39 39 38 38 36 35 35 34 34 34 33 37 40 41 41 40 39 36 34 32 33 32 30 29 29 29 28 27 26 26 24 22 22 22 20 19 20 21 19 26 23
36 38 40 38 36 36 35 34 34 33 33 33 33 34 34 37 35 34 34 35 33 33 33 32 31 30 29 28 27 28 27 28 27 24 24 22 19 18 20 20 20 19 20
34 35 37 38 36 35 35 34 34 34 33 33 34 35 37 34 34 34 34 34 34 33 32 31 31 31 31 30 29 29 29 28 27 27 25 22 21 20 21 23 23 23 22
33 33 34 34 36 35 35 35 34 34 34 34 34 34 38 36 34 34 34 34 35 35 35 33 31 31 32 31 31 30 29 27 27 27 25 23 22 22 23 22 22 22 23
32 31 32 32 33 35 36 35 34 34 34 34 34 33 34 35 34 34 34 34 34 33 34 32 33 33 33 32 32 30 28 27 28 28 25 23 23 23 24 23 23 23 23
32 31 32 32 32 33 34 35 35 35 34 34 34 34 33 34 34 33 33 33 33 33 33 33 32 32 32 31 32 32 31 31 30 29 28 25 24 26 24 24 24 24 24
31 31 30 30 31 31 33 34 34 34 34 33 33 33 33 33 33 33 33 32 32 32 31 31 32 32 32 31 29 28 28 31 27 26 25 24 24 24 24 24 24 24 24
29 28 29 30 31 31 31 32 33 33 32 32 32 32 32 32 31 31 30 30 30 30 30 29 28 28 28 27 27 27 31 32 31 31 25 23 22 24 24 23 22 22 22

GFSGL_sfc_temp_078.txt.gz
Temp
50 50 51 52 52 52 52 52 52 52 53 52 53 51 50 50 49 49 47 47 47 46 46 45 46 46 46 46 48 48 47 48 47 43 44 44 44 44 44 45 46 45 45
47 48 49 49 49 49 49 50 51 50 50 50 50 49 48 48 46 45 44 44 44 44 45 44 44 46 44 44 44 44 45 45 45 43 42 41 41 42 42 43 45 45 43
47 47 47 47 47 47 47 48 48 47 46 47 47 46 45 44 43 42 42 42 41 41 41 41 42 43 42 42 44 44 44 44 43 42 39 40 39 40 40 41 41 39 41
45 45 45 45 46 45 45 45 45 45 44 43 43 43 42 41 41 40 40 39 38 39 39 39 41 44 44 43 43 43 43 41 41 41 39 38 38 39 39 36 36 36 34
44 44 44 44 44 44 44 43 43 43 42 42 41 40 40 40 41 39 40 39 38 40 42 42 42 43 45 45 43 42 41 40 38 37 37 37 37 36 35 35 34 33 31
43 43 44 44 43 43 42 41 41 40 40 39 39 39 39 42 46 47 43 39 40 42 41 40 41 42 43 45 44 44 43 39 37 37 36 37 36 36 34 33 28 25 27
42 43 43 43 42 41 41 40 39 38 38 38 37 38 38 38 46 47 47 40 38 39 38 37 37 39 38 37 41 40 42 42 42 38 36 36 35 34 31 27 29 28 29
42 42 43 42 41 40 39 38 37 36 36 36 36 36 36 38 45 46 47 37 34 34 35 35 35 34 35 35 32 31 30 32 32 34 33 32 32 32 32 31 31 29 29
41 41 42 42 40 39 38 37 36 35 34 35 35 35 35 35 44 46 39 34 34 34 35 36 36 35 37 41 32 30 30 31 39 41 40 40 40 39 35 30 28 25 26
42 42 41 41 41 40 39 36 35 35 35 33 34 34 37 33 42 45 40 35 34 34 34 35 38 36 40 42 30 29 28 29 30 32 31 32 34 36 39 31 29 26 25
41 41 40 40 40 41 37 35 34 34 33 33 34 35 36 36 36 44 44 35 35 33 33 33 34 41 41 43 37 29 31 31 33 30 29 29 29 30 29 30 30 25 20
40 39 39 39 39 38 36 34 34 34 35 35 36 36 36 37 41 43 44 39 37 31 31 31 30 39 42 42 39 38 39 35 29 29 29 28 26 26 27 28 29 28 27
38 37 37 37 36 36 35 36 34 35 36 36 35 35 34 35 36 43 43 43 41 31 30 33 36 39 41 40 41 40 40 29 28 27 28 26 26 26 26 26 27 27 27
41 40 36 35 35 34 36 36 36 36 36 35 34 34 35 34 34 35 37 40 42 38 37 32 36 36 38 35 36 36 31 30 29 27 26 28 27 24 26 27 25 25 24
40 40 38 37 36 34 33 36 36 38 39 36 35 35 34 33 34 37 36 35 34 35 32 30 29 29 29 29 29 30 29 29 28 27 26 27 29 27 27 26 25 23 19
37 39 40 38 38 36 36 36 41 41 42 42 41 39 36 40 41 41 41 40 40 40 32 30 28 28 29 29 28 29 28 30 27 27 24 24 25 25 24 24 23 22 20
35 36 39 39 38 36 35 35 35 37 42 41 41 41 41 38 41 41 41 41 40 40 33 31 29 29 29 29 27 26 25 27 26 24 24 23 22 21 26 22 20 20 19
36 37 36 39 38 38 36 36 36 35 34 35 41 41 42 42 41 40 41 40 35 37 34 33 32 29 29 28 27 26 26 25 25 25 23 20 20 21 17 19 20 16 15
35 35 35 37 38 39 36 35 35 35 35 35 33 38 41 42 42 42 41 35 33 33 34 32 31 30 30 30 29 27 27 26 25 23 23 21 20 15 17 19 18 26 22
35 36 36 35 36 36 36 35 34 34 34 34 33 34 34 37 36 36 36 35 33 32 33 33 33 31 30 29 28 28 26 27 26 24 23 23 22 20 17 18 19 18 18
33 34 35 34 34 35 35 35 34 34 34 34 34 35 37 35 35 35 34 33 33 32 32 33 32 30 29 29 28 27 27 27 27 27 25 24 21 17 21 22 21 21 18
32 32 33 32 33 33 34 35 34 34 33 33 34 34 38 36 35 35 35 34 34 34 34 33 32 31 31 31 30 29 28 28 29 27 27 26 25 23 23 22 22 21 19
31 31 31 31 32 33 33 33 34 34 34 34 34 34 34 35 35 34 34 35 34 33 33 33 33 32 32 32 32 32 30 29 29 29 27 26 24 24 24 22 22 20 20
29 30 30 31 32 32 32 32 33 35 34 34 34 34 33 34 35 34 34 34 34 34 34 33 33 33 33 33 32 32 31 31 30 29 29 26 24 26 24 23 23 22 23
29 29 30 30 30 29 30 31 32 34 34 34 34 33 34 33 33 34 33 33 33 33 33 33 33 33 33 31 31 31 31 33 30 30 29 27 26 25 24 23 23 23 23
30 29 28 29 29 29 30 31 31 32 33 33 33 33 33 32 32 32 32 32 32 32 31 31 31 30 30 30 29 29 32 33 32 31 27 25 24 24 24 23 22 23 22

GFSGL_sfc_temp_081.txt.gz
Temp
53 54 56 56 56 57 57 57 57 57 57 57 56 55 54 54 54 54 53 51 52 52 52 52 51 53 53 53 53 53 51 51 49 46 47 47 46 46 47 47 46 46 46
51 53 54 54 55 56 56 56 56 56 56 57 56 54 53 53 52 52 51 51 51 50 50 50 50 50 51 51 51 51 49 51 49 47 45 43 43 44 44 44 45 45 44
50 50 51 52 53 53 53 53 53 53 53 53 53 52 50 49 48 48 47 46 47 47 47 47 48 49 49 49 49 49 50 48 47 46 43 43 42 42 41 42 42 40 43
48 49 49 50 51 51 50 50 50 49 49 49 49 48 47 46 46 46 46 46 45 45 45 46 47 48 48 47 46 46 45 44 44 43 42 40 40 40 41 38 38 39 39
46 47 48 49 49 49 49 49 48 48 48 48 47 46 46 46 45 45 45 45 45 45 46 46 46 45 45 46 45 44 44 43 42 40 40 39 38 38 37 38 37 36 37
45 46 47 48 48 47 47 46 46 46 46 46 46 46 45 46 46 46 46 46 45 46 45 44 44 44 45 45 45 45 44 42 39 39 39 39 39 39 37 36 35 35 38
44 45 46 46 46 46 46 45 45 44 44 44 44 44 44 46 47 48 46 45 43 42 41 40 40 41 40 40 42 42 43 42 42 42 39 39 38 38 36 33 36 37 36
44 44 45 45 45 45 44 44 43 43 43 42 42 42 43 43 47 47 47 43 39 37 37 37 37 36 37 37 36 38 38 39 39 40 41 40 40 40 40 39 39 36 35
42 43 44 44 43 43 43 42 42 41 40 40 40 40 40 41 45 46 43 37 37 37 39 39 39 37 39 41 37 36 37 37 41 41 40 40 40 39 39 38 34 31 31
42 42 43 43 42 42 43 40 40 40 38 39 37 37 40 39 43 45 42 39 36 37 38 38 40 38 40 42 38 37 35 36 37 37 37 37 38 40 39 38 36 32 33
42 42 42 42 42 42 41 40 39 39 38 36 36 36 37 39 41 45 44 39 39 36 37 36 36 41 41 43 39 37 37 38 37 36 36 36 36 36 36 36 36 33 31
41 41 41 41 41 41 40 38 38 38 37 36 37 38 39 40 42 43 45 42 41 37 37 38 37 40 42 42 40 38 39 37 36 35 34 34 33 33 33 34 34 33 34
39 40 42 40 39 39 39 39 38 38 37 37 36 37 37 37 39 43 44 45 42 36 37 38 37 40 41 42 41 40 40 35 34 33 33 32 32 33 32 31 31 31 32
39 40 41 40 40 39 38 38 38 37 37 36 35 36 36 36 37 37 40 42 43 39 38 38 39 39 40 39 39 40 36 36 34 34 33 34 32 30 31 32 31 31 31
38 37 39 40 40 39 36 37 38 40 40 37 37 37 36 35 36 39 39 37 38 38 35 35 36 35 35 35 35 35 35 35 34 34 33 32 32 31 31 31 32 30 30
35 36 36 37 39 39 37 36 41 41 42 42 42 40 38 41 41 41 41 41 41 41 33 33 33 34 33 33 33 33 33 33 33 32 32 31 31 30 30 30 30 30 29
34 34 36 36 36 38 37 35 35 37 42 41 42 42 41 40 42 41 41 41 41 41 33 34 34 33 33 32 33 32 32 32 31 32 31 30 30 29 31 29 29 29 28
34 35 35 35 35 36 37 36 36 35 35 36 41 42 42 41 41 41 41 41 37 38 34 34 33 33 33 32 32 32 32 31 30 30 29 29 28 28 27 28 28 27 27
33 33 34 36 36 36 36 36 36 35 35 36 34 39 42 42 42 41 41 37 35 34 34 34 33 33 33 33 32 32 32 31 31 30 29 28 28 27 26 28 28 29 28
33 34 36 35 34 34 34 34 35 34 34 33 34 35 35 39 37 37 38 36 34 34 34 34 33 34 33 33 32 32 31 32 31 30 30 29 28 26 27 26 27 26 28
32 33 35 34 32 33 33 33 34 34 34 33 34 35 38 35 36 36 36 36 35 34 34 34 34 33 34 33 32 32 31 31 31 31 30 29 28 26 27 28 27 27 27
31 32 32 32 32 32 32 32 33 34 34 33 34 34 38 37 35 35 35 35 35 35 35 34 34 33 33 33 32 31 31 31 31 31 30 30 29 28 27 26 26 26 26
31 32 31 31 31 32 32 32 32 32 34 34 34 34 34 35 35 34 35 35 35 35 35 34 34 34 34 33 33 33 32 32 33 32 31 30 29 29 28 27 26 26 25
31 30 29 30 30 31 32 32 32 33 33 34 34 34 34 34 35 34 35 35 35 34 34 34 34 34 33 33 33 34 34 33 33 32 31 30 29 30 28 27 26 26 26
30 29 29 29 30 30 30 30 31 32 32 33 33 33 34 34 34 34 34 34 34 33 33 34 34 33 33 32 33 33 33 33 32 31 31 30 29 28 27 27 26 26 26
31 30 29 28 28 29 29 29 30 31 31 32 33 33 33 33 33 33 34 33 33 33 33 33 33 33 33 33 33 32 33 34 33 33 31 30 28 28 27 26 25 26 26

GFSGL_sfc_temp_084.txt.gz
Temp
62 62 62 62 62 63 64 64 63 64 64 63 63 61 61 62 62 61 59 57 57 58 57 58 58 59 59 59 58 56 54 56 51 52 51 50 52 50 49 49 48 48 47
61 62 62 61 61 62 62 61 63 64 63 62 61 60 60 60 60 58 56 56 57 56 56 56 56 56 57 58 57 55 55 56 52 48 48 46 46 46 46 45 46 45 45
58 60 61 62 61 61 60 60 60 59 60 61 60 59 58 57 58 58 56 55 55 56 55 54 55 55 55 55 55 54 53 51 51 49 48 48 46 45 43 44 43 41 43
56 58 58 59 59 60 60 59 59 59 58 58 58 57 56 56 56 55 55 54 54 54 52 53 54 54 55 55 53 53 52 50 50 48 47 44 43 43 43 40 39 40 39
54 55 55 57 58 58 58 58 57 57 57 57 56 55 53 53 53 53 52 53 52 52 51 52 52 51 47 51 51 51 49 47 45 44 42 41 41 40 39 40 39 38 38
53 53 54 55 56 55 56 57 56 55 55 55 54 54 53 52 48 49 52 53 53 52 51 51 50 45 47 47 47 46 48 46 43 41 41 41 42 41 40 38 37 36 36
51 52 52 53 52 53 54 54 53 53 53 52 53 53 51 53 48 48 48 51 50 49 48 47 47 47 45 47 45 45 44 43 44 45 41 42 42 42 40 36 36 37 40
50 51 51 50 50 51 52 52 52 52 51 50 50 51 51 51 48 48 47 49 45 40 40 41 44 42 42 42 41 40 43 45 45 46 46 45 44 42 42 41 42 43 42
48 48 49 49 48 49 49 50 52 50 49 49 50 49 48 48 47 47 47 43 41 39 40 45 46 45 42 42 40 39 43 43 42 41 41 41 41 42 45 44 40 38 38
46 46 48 48 48 47 48 48 49 49 47 47 44 45 47 47 46 47 46 44 39 40 45 46 42 43 42 42 41 43 41 42 42 41 41 41 43 41 40 43 41 36 38
44 46 47 48 48 48 47 47 45 46 45 44 42 40 45 46 48 46 46 44 42 40 41 42 44 42 42 43 42 44 42 44 41 41 41 41 41 41 42 41 41 37 35
45 44 45 46 47 46 46 46 43 45 44 43 42 41 41 46 45 45 46 45 44 41 41 43 44 42 42 42 43 42 40 41 42 40 39 40 39 39 38 38 37 37 37
44 43 43 46 47 47 45 45 42 43 43 41 39 40 41 43 44 44 45 46 44 42 45 44 43 41 42 42 43 40 40 40 40 38 38 38 38 38 35 34 34 34 34
43 43 43 43 42 46 43 42 40 39 39 38 36 37 39 38 38 39 43 45 45 42 40 40 41 41 42 43 43 41 41 41 39 38 39 39 38 34 35 36 34 35 34
42 42 42 42 41 40 42 40 39 41 41 39 38 38 37 36 38 41 40 40 41 40 38 38 38 40 39 40 41 42 42 40 37 38 37 36 36 35 35 35 35 34 33
39 40 41 40 41 38 37 39 43 42 42 42 43 41 40 43 43 42 42 42 43 42 34 34 35 36 36 39 38 39 39 38 37 36 36 35 35 33 34 33 33 33 32
38 39 39 39 39 39 37 36 35 39 42 42 41 42 42 41 42 42 42 42 42 42 33 34 34 34 35 38 38 38 36 37 35 35 34 33 33 33 33 32 32 33 32
38 37 36 37 37 37 35 35 36 35 35 36 41 42 42 42 41 41 42 41 38 40 36 34 34 34 36 37 37 37 37 36 35 35 33 33 32 32 32 32 32 31 31
36 34 34 35 37 36 35 35 36 35 35 35 36 38 42 42 42 41 42 38 36 36 36 34 35 35 35 37 37 36 35 35 34 33 33 32 32 32 32 32 32 32 32
37 35 35 36 36 34 34 33 33 34 34 35 34 35 36 39 37 38 38 38 36 36 36 35 35 34 35 36 36 35 35 34 34 33 33 32 32 32 31 31 32 31 32
34 34 34 35 35 34 34 32 33 33 32 34 34 35 37 34 35 36 37 37 36 35 35 35 35 35 35 35 35 34 34 34 34 33 33 33 32 31 32 33 32 32 32
33 32 32 33 34 33 32 32 33 33 32 33 34 34 37 35 33 34 36 37 37 37 36 36 36 35 35 35 35 34 33 33 33 33 33 33 32 32 32 32 32 31 31
32 33 33 33 34 33 33 33 34 34 33 33 33 34 32 33 33 33 35 36 36 36 36 36 35 34 35 35 35 34 33 33 34 34 33 33 33 33 32 31 31 30 29
32 33 33 32 32 32 32 33 33 34 34 34 33 33 33 33 33 34 35 35 36 35 35 35 35 35 34 34 35 35 35 35 35 34 34 33 32 33 32 31 31 30 30
33 32 32 32 32 31 32 32 33 33 33 33 34 33 34 33 33 34 35 35 35 35 34 34 34 34 34 34 34 34 34 35 33 33 33 33 32 31 31 31 31 30 29
33 32 31 31 30 31 31 31 32 32 32 33 34 33 33 33 33 34 34 34 34 34 34 34 33 33 33 33 33 33 34 35 34 34 33 32 31 31 31 30 29 29 28

GFSGL_sfc_temp_087.txt.gz
Temp
61 63 62 62 63 64 65 66 66 67 67 65 64 62 61 60 61 60 60 59 59 58 58 58 57 58 57 57 57 56 55 55 52 53 52 52 52 52 50 50 49 48 47
60 61 61 63 62 63 63 63 64 64 64 64 64 61 60 59 61 61 60 59 59 57 57 56 57 58 57 58 57 55 54 55 52 50 49 47 48 48 46 45 46 46 45
59 60 61 61 61 62 62 62 62 61 62 62 61 59 59 59 60 61 58 57 57 57 57 55 55 55 54 54 54 54 53 53 52 49 46 47 46 45 44 44 43 42 44
57 58 58 58 59 60 61 60 60 60 59 60 60 60 58 57 57 56 55 55 55 55 54 54 54 53 53 54 52 53 52 49 50 48 47 44 44 44 43 40 39 41 40
56 56 56 57 58 58 59 59 59 58 58 59 58 57 55 54 54 53 53 53 52 52 52 52 52 51 49 51 52 52 50 47 46 44 44 42 41 40 39 40 38 38 38
54 55 55 56 56 56 57 58 58 57 57 56 55 55 53 53 51 52 53 52 52 52 50 50 50 46 47 48 48 47 50 46 44 42 41 40 41 41 40 37 36 34 34
52 53 53 54 53 53 54 55 56 56 56 54 54 54 53 53 49 50 50 52 50 49 47 47 47 48 46 46 46 46 45 45 44 45 41 41 40 41 39 36 36 35 36
51 51 52 51 50 51 52 52 53 54 54 53 52 53 52 52 48 48 48 49 47 43 42 43 44 42 42 44 42 40 41 43 43 45 44 44 44 42 40 39 38 37 37
49 48 49 49 49 49 49 49 51 51 51 51 51 51 50 50 47 47 46 43 40 39 41 42 45 45 45 45 41 38 41 41 42 42 42 43 43 45 44 40 37 34 33
46 45 47 48 48 46 47 47 47 48 49 49 47 47 49 48 47 47 47 45 41 41 42 44 45 46 46 44 41 40 38 38 39 37 38 39 41 40 42 38 36 32 33
46 47 46 47 46 47 46 46 45 45 45 46 45 44 46 47 48 47 47 46 42 40 42 43 44 44 45 44 43 41 40 41 40 37 37 36 36 36 36 36 36 33 31
46 46 46 46 47 47 46 46 45 43 43 43 43 43 44 47 47 46 47 47 46 41 39 41 42 44 43 44 43 43 43 43 37 36 35 35 33 33 32 32 33 33 32
45 45 46 46 46 46 44 45 43 43 41 42 42 42 41 43 46 46 47 47 46 42 42 43 44 43 43 42 43 43 42 36 36 34 33 32 32 32 31 30 30 31 30
43 44 45 44 44 45 45 44 42 40 39 39 38 37 40 40 41 41 43 45 45 43 42 40 42 41 42 40 40 40 37 37 35 34 33 34 33 30 30 30 29 29 28
43 43 43 44 43 43 43 42 40 42 41 39 39 39 38 37 38 41 41 40 41 42 39 36 37 37 36 37 38 37 38 37 34 34 32 32 32 31 31 31 30 29 27
41 41 42 41 41 41 41 41 42 41 42 42 42 41 41 43 44 42 42 43 43 43 35 34 34 36 36 36 37 37 37 38 35 33 32 31 30 30 30 29 29 27 26
40 40 40 39 39 38 38 36 34 38 41 42 42 42 42 42 42 42 42 42 43 43 34 34 34 34 35 36 36 36 36 37 34 34 33 32 30 29 31 29 28 28 27
40 39 36 35 35 36 36 35 34 33 32 35 40 41 42 42 42 41 42 42 38 41 35 34 33 34 34 34 35 35 36 35 34 33 33 32 31 30 29 29 29 26 26
39 38 37 35 34 35 35 35 34 33 33 33 35 38 39 41 41 42 42 38 36 36 37 35 35 33 34 35 35 36 35 34 33 32 32 31 31 30 30 29 29 32 31
39 39 37 35 34 34 35 34 33 33 32 32 33 34 35 35 34 36 38 38 36 36 37 37 35 35 35 34 34 35 34 34 33 32 32 31 31 31 30 29 30 29 29
38 36 35 34 32 33 34 33 33 32 31 32 33 36 38 35 33 34 36 36 37 36 36 36 35 34 34 34 34 34 33 34 34 33 32 32 32 30 30 30 30 30 30
35 33 33 32 33 33 33 34 32 31 31 32 33 35 37 35 34 33 34 36 37 37 36 36 35 35 34 34 34 33 33 33 33 33 33 32 31 31 30 30 30 29 29
34 32 31 32 33 34 33 33 32 32 32 33 34 34 34 33 34 33 33 35 36 36 36 35 35 35 35 35 35 34 33 34 34 34 33 32 32 31 31 30 30 29 28
31 30 31 32 33 32 32 32 32 33 33 32 34 34 34 34 34 34 33 33 34 34 34 34 35 35 34 34 35 35 35 35 35 34 34 33 32 33 31 30 30 30 29
32 32 32 31 31 31 31 32 32 32 32 33 32 32 34 33 34 33 32 32 32 32 33 34 34 34 34 34 34 34 34 35 34 34 34 34 33 32 31 30 30 29 29
32 32 31 31 30 30 30 30 30 31 31 32 32 33 33 32 33 33 33 32 32 32 32 33 33 34 34 33 34 34 35 36 35 36 33 33 32 32 31 30 30 29 28

GFSGL_sfc_temp_090.txt.gz
Temp
55 56 56 57 57 58 58 59 60 60 61 61 61 60 61 63 62 60 59 57 57 56 54 55 54 54 52 52 53 52 51 51 48 47 48 47 48 47 48 47 48 47 47
54 55 55 56 56 56 56 57 58 57 58 59 61 60 60 59 59 59 57 57 56 55 54 53 53 55 52 52 51 50 50 50 50 48 47 45 45 45 45 45 46 47 45
52 53 53 53 53 53 54 55 56 55 55 56 57 58 57 56 57 57 57 56 55 53 53 52 52 51 50 49 50 49 48 50 50 47 43 46 43 44 43 44 43 42 44
50 51 50 50 51 51 53 53 54 54 53 53 54 56 56 55 55 55 54 53 52 51 51 51 51 50 49 49 48 48 48 46 47 46 45 43 43 43 42 40 39 40 40
48 48 48 49 50 50 50 51 52 52 52 52 52 52 53 53 53 52 52 51 51 50 50 50 50 50 50 50 48 47 47 46 45 43 43 41 40 39 38 40 38 38 39
47 47 49 49 48 48 48 48 49 50 50 50 49 49 48 51 52 52 51 50 50 50 48 48 47 46 48 49 49 49 48 46 44 42 40 40 40 40 40 37 36 34 34
46 47 47 47 46 46 47 47 46 46 48 47 47 48 47 47 51 51 51 49 48 47 45 45 45 46 44 43 47 47 47 47 47 44 39 38 39 39 38 36 35 35 35
44 44 45 44 44 44 44 43 44 44 45 46 46 46 46 47 50 50 50 44 43 41 40 41 41 39 40 42 40 37 37 38 40 43 41 40 40 41 40 39 37 36 36
42 42 42 43 42 42 44 45 46 45 45 47 46 45 44 44 48 48 46 39 38 39 40 41 41 40 44 46 40 35 36 37 43 43 43 45 46 45 43 38 34 34 33
40 41 42 42 41 41 44 43 44 45 44 45 45 45 45 44 47 47 45 40 39 39 40 41 44 42 46 46 37 35 33 35 34 33 33 37 40 40 45 34 32 33 31
41 41 41 41 40 39 39 40 43 43 43 42 43 43 44 45 45 48 47 42 41 39 38 38 41 46 47 45 43 37 36 38 38 32 31 31 31 31 31 32 32 28 24
40 40 39 39 40 41 37 37 38 43 42 42 42 43 44 45 47 47 47 47 44 39 38 39 40 45 45 45 44 43 44 42 33 32 30 29 28 27 26 27 30 28 28
38 37 37 38 39 38 36 35 35 40 40 40 39 40 41 42 44 47 47 47 46 41 41 41 42 44 44 43 44 43 44 35 32 30 30 27 26 27 26 25 26 28 26
36 36 36 36 37 36 37 36 34 33 36 38 38 37 39 40 39 40 44 45 46 44 42 41 42 42 42 41 41 41 35 34 32 31 30 30 27 24 24 24 22 23 21
36 35 35 36 35 34 34 34 34 34 35 37 37 38 38 37 39 42 42 41 43 42 39 36 36 36 36 36 36 36 35 34 32 30 29 29 29 27 27 25 24 23 21
35 35 34 34 33 33 32 33 40 41 41 41 41 40 40 42 43 43 43 43 44 44 37 36 34 35 35 35 35 34 35 35 32 31 30 29 27 26 26 25 23 21 23
33 34 33 35 31 30 30 29 29 34 40 40 40 40 41 41 42 42 42 42 43 43 37 35 35 34 35 35 35 35 34 35 34 33 30 28 26 25 30 28 23 23 25
34 38 33 30 30 33 32 32 32 32 31 33 37 38 40 40 41 41 42 42 38 40 38 35 34 34 35 35 35 35 35 34 34 33 31 30 28 27 24 26 27 25 24
33 31 31 35 36 35 34 30 32 33 33 32 33 36 38 40 40 41 41 38 35 36 37 35 35 34 34 34 35 35 34 34 34 33 32 30 29 28 28 28 27 30 29
32 37 38 36 35 33 32 30 30 31 32 31 31 32 34 35 33 33 34 35 35 35 36 35 35 34 33 33 32 32 34 35 33 32 31 31 30 31 29 28 28 28 30
33 33 37 35 33 32 29 28 29 30 29 31 31 33 37 34 32 33 33 34 35 35 36 36 36 34 33 33 33 32 34 34 33 32 31 31 30 29 30 29 29 29 29
33 32 31 31 31 30 30 30 30 30 30 31 31 32 37 34 33 33 33 34 35 36 37 37 36 34 33 33 33 33 33 32 33 32 31 30 31 31 30 29 29 29 29
31 31 30 30 30 31 30 29 29 29 29 29 29 31 31 32 33 34 33 33 34 35 36 36 34 33 34 34 34 34 33 33 33 33 32 31 31 30 30 29 29 29 29
31 30 29 29 29 29 29 29 29 31 30 30 30 29 31 33 33 33 34 34 34 34 36 34 33 33 34 33 34 34 34 34 34 33 34 33 31 32 30 30 30 30 29
30 29 28 28 29 29 28 27 27 28 28 29 30 31 32 32 32 32 33 34 33 33 33 33 33 33 33 33 33 33 33 34 33 34 34 33 32 31 31 30 30 29 29
28 28 28 29 27 26 25 26 26 27 28 28 29 30 30 31 32 33 33 33 33 32 32 32 32 32 32 32 34 34 35 35 34 36 34 33 32 31 31 31 30 29 29

GFSGL_sfc_temp_093.txt.gz
Temp
53 54 54 55 56 57 56 57 57 59 59 59 60 61 61 61 61 61 60 60 59 59 58 57 57 56 55 55 54 53 52 52 49 46 47 47 46 46 46 48 47 45 48
51 52 52 53 53 53 53 54 55 54 55 56 57 58 59 60 60 60 60 59 58 57 56 56 55 55 54 54 52 51 51 51 49 46 45 44 45 47 46 45 46 47 46
49 50 49 50 50 50 51 52 53 53 53 53 54 55 56 57 57 58 59 57 57 57 56 56 55 54 53 51 51 51 50 49 47 45 43 44 44 44 43 44 43 43 44
47 47 47 47 48 48 49 50 51 51 51 51 51 52 53 54 54 55 55 54 54 53 53 54 53 53 52 50 49 49 47 46 45 45 44 43 43 43 42 40 40 41 40
45 45 45 46 47 47 47 48 48 49 49 50 50 50 50 50 51 52 52 52 51 51 51 52 52 51 50 52 49 48 47 45 42 40 41 42 41 39 39 40 39 38 39
43 44 45 45 45 44 45 45 45 45 46 47 47 48 47 49 51 51 51 50 50 50 49 49 49 48 49 51 51 50 50 46 43 40 41 41 41 40 38 37 37 35 35
42 43 43 43 43 43 43 43 43 43 43 43 44 45 45 46 50 51 51 49 48 48 46 46 45 47 47 46 49 49 49 50 48 43 42 42 40 39 39 36 36 35 36
40 40 41 41 41 41 41 41 41 45 45 44 44 46 46 46 49 50 50 44 44 44 43 43 44 42 42 43 41 39 40 41 42 43 41 41 40 40 39 40 38 36 35
39 39 39 39 39 39 39 38 40 42 43 44 45 45 45 46 47 49 47 40 39 39 40 43 44 43 45 46 40 35 35 37 43 44 44 44 46 45 43 38 33 34 32
39 39 39 39 38 37 37 37 38 39 42 44 43 44 45 44 47 47 47 42 39 40 41 40 44 41 45 46 38 36 34 33 34 34 35 40 42 42 45 36 34 32 33
38 39 39 38 37 36 35 35 35 35 38 38 42 42 43 44 45 47 48 43 42 40 40 40 41 45 46 46 43 37 36 36 38 32 31 31 31 32 32 32 32 29 30
38 37 36 35 37 39 34 33 33 33 34 35 40 41 43 45 46 46 47 47 45 41 39 40 40 43 45 45 44 41 43 40 33 31 30 29 29 28 27 28 30 29 28
35 35 35 35 35 35 32 32 31 32 32 33 35 37 39 42 43 45 46 47 47 42 43 42 42 43 45 45 45 43 44 35 34 31 31 30 28 28 27 26 26 28 27
33 33 33 32 33 33 34 33 31 30 30 31 31 32 34 37 39 40 42 43 45 45 42 40 42 43 44 43 42 42 38 36 35 33 32 31 29 27 25 25 23 23 20
33 33 33 34 32 31 31 31 31 31 32 34 36 36 35 34 37 42 42 40 41 43 39 37 37 37 37 37 37 38 36 35 34 33 29 30 30 30 28 25 25 21 18
33 33 33 32 31 30 29 29 36 38 39 40 40 39 39 40 41 41 41 42 43 43 39 36 36 36 35 36 35 35 35 36 34 32 29 30 29 28 28 26 23 20 19
32 33 33 35 31 29 28 26 27 32 38 39 39 40 39 38 39 39 40 41 43 43 37 36 35 34 34 35 35 35 34 35 34 32 32 30 29 28 30 27 25 24 20
32 36 33 30 29 28 28 28 30 28 27 29 36 38 39 39 38 39 40 40 37 40 37 36 35 35 35 33 33 34 34 33 32 32 30 29 28 27 26 26 26 26 19
31 32 31 29 30 36 34 32 32 29 28 29 31 33 36 38 38 39 39 34 33 35 36 36 35 35 34 34 34 34 34 33 33 32 31 30 28 28 26 26 26 30 27
31 34 35 33 32 31 31 31 31 27 27 28 30 31 32 33 31 32 34 33 33 34 35 35 35 35 34 33 32 32 32 33 33 32 32 32 30 29 28 27 27 27 28
29 30 34 33 32 30 29 28 29 28 27 28 30 32 37 33 31 31 32 33 33 34 34 35 36 35 34 33 32 32 32 33 33 33 32 32 31 29 30 29 28 28 28
30 29 30 30 31 30 29 30 29 29 30 29 29 30 35 32 32 31 32 33 33 34 35 35 35 35 34 33 33 33 33 33 33 33 32 31 31 31 30 28 28 28 28
29 29 30 30 30 31 30 30 29 28 27 28 28 29 29 29 30 32 33 33 33 33 34 35 35 35 35 34 34 34 33 33 34 33 32 31 30 30 29 28 28 28 27
28 27 27 28 29 29 28 28 29 29 29 29 29 29 29 29 31 32 32 32 33 33 34 34 35 35 34 33 33 34 35 34 34 33 33 31 30 31 30 29 29 29 28
28 27 27 27 27 28 28 28 27 26 27 27 28 29 30 31 31 31 31 32 33 33 33 33 34 34 33 33 33 34 34 34 33 33 33 32 31 31 30 29 29 29 29
27 27 27 28 27 27 26 25 25 25 26 26 27 27 27 27 28 30 31 32 32 33 32 33 33 33 33 33 33 33 34 35 33 34 33 32 31 31 30 29 29 29 29

GFSGL_sfc_temp_096.txt.gz
Temp
52 52 51 50 52 53 54 54 54 56 57 57 58 59 60 60 60 60 60 60 59 59 58 58 58 57 57 56 55 54 53 52 50 46 47 46 47 46 46 46 47 46 46
50 50 50 51 51 51 51 52 53 53 54 53 54 56 58 59 60 60 60 60 59 58 58 57 57 56 56 56 55 54 54 52 50 47 45 45 46 45 45 46 46 46 43
48 47 46 47 48 47 48 49 50 50 51 51 52 53 53 55 57 58 59 59 59 59 59 57 58 55 55 54 54 53 51 50 48 47 44 44 44 44 43 44 44 43 44
45 45 45 44 45 46 47 47 48 48 48 48 49 50 51 51 52 53 55 55 56 57 57 57 57 56 56 54 53 52 50 48 46 46 44 43 42 43 43 41 40 41 41
43 42 42 43 44 44 44 45 45 45 45 46 47 47 48 48 50 50 52 52 52 52 52 53 53 53 51 53 52 50 49 48 44 42 41 41 41 40 40 40 40 39 40
41 41 42 42 43 42 42 42 42 42 42 43 44 44 44 47 50 50 50 50 51 50 50 50 51 48 50 51 51 51 51 48 46 42 41 41 42 39 39 38 37 35 36
39 40 40 40 40 40 40 40 40 39 40 40 41 42 43 44 49 50 50 47 48 48 47 47 47 47 48 49 50 50 50 51 51 49 44 42 39 39 39 36 34 33 36
38 38 39 38 38 38 38 37 37 38 39 40 40 42 43 46 48 49 49 45 43 43 44 45 45 44 44 45 44 43 45 46 46 46 46 43 42 42 42 39 37 36 35
37 37 38 37 36 36 36 35 36 36 37 38 40 40 41 44 46 47 47 43 40 40 40 42 45 44 46 47 42 39 39 40 44 45 45 45 46 45 42 37 33 35 33
36 37 37 37 36 35 35 35 35 35 36 38 38 38 43 42 45 46 46 43 41 40 41 39 45 45 46 47 41 40 37 37 37 37 38 41 44 43 45 38 36 35 33
36 36 36 36 34 34 33 33 33 32 33 32 35 35 37 42 44 46 46 44 42 41 41 40 41 45 46 47 44 40 40 37 39 33 33 33 33 35 35 34 35 33 29
36 35 34 33 35 36 31 31 31 30 30 30 31 32 35 37 43 44 45 45 45 42 40 41 42 44 45 45 45 43 43 40 34 32 31 31 31 30 30 30 32 30 30
33 33 35 36 35 32 30 30 29 29 29 30 30 30 32 35 36 41 43 44 44 42 43 43 43 43 43 44 45 43 43 35 34 31 31 31 30 29 28 27 28 29 29
30 31 33 32 34 33 31 31 29 28 28 31 30 31 31 32 35 34 38 40 42 42 42 42 42 42 43 43 43 42 39 35 35 34 32 30 28 27 26 26 25 25 25
30 31 32 33 32 32 31 30 30 30 30 30 31 32 34 34 36 39 39 38 39 41 41 36 37 37 37 38 38 39 37 36 35 33 32 30 31 29 28 24 25 23 20
31 32 32 33 33 32 30 29 35 37 38 38 39 38 38 39 40 39 39 40 40 42 39 35 35 36 37 37 36 36 36 36 35 33 32 32 30 29 28 24 23 23 20
29 30 31 32 31 31 30 27 26 31 37 37 37 39 39 39 39 39 39 39 40 40 36 35 35 35 36 36 35 35 33 34 33 32 31 30 30 28 29 27 26 25 22
28 33 30 30 29 30 30 28 28 30 30 29 34 35 37 39 38 38 38 38 34 36 34 35 35 35 35 35 34 34 34 32 32 31 31 30 29 29 28 27 27 27 25
28 29 29 30 30 31 32 31 31 31 31 30 28 32 34 37 38 38 38 33 31 32 33 34 35 35 35 34 34 33 33 32 32 32 31 30 29 29 29 28 27 30 28
28 31 32 30 30 30 30 31 30 29 28 27 27 28 29 30 30 29 32 32 32 32 32 33 34 35 35 34 34 33 33 33 32 32 31 30 29 29 28 27 28 28 29
29 30 33 29 28 28 29 29 29 28 28 28 28 32 35 32 30 31 31 32 32 32 32 32 34 34 35 34 33 33 33 33 33 32 32 30 29 28 30 30 28 29 29
27 28 28 28 29 29 29 29 28 29 28 28 28 30 34 30 28 28 30 30 32 33 33 32 33 34 35 33 33 33 33 33 33 33 32 31 30 30 30 29 28 28 29
26 27 28 27 27 29 28 28 28 28 28 29 28 28 28 28 28 29 29 30 32 32 33 33 33 33 36 35 34 33 33 33 34 34 33 32 31 30 30 29 29 28 28
28 28 28 27 27 28 28 27 28 29 29 27 27 27 27 27 27 28 30 31 32 32 33 33 33 32 34 34 34 34 34 34 34 34 34 32 32 32 30 29 29 29 28
24 26 26 26 26 26 27 26 27 27 26 26 26 27 27 27 27 27 29 30 31 31 32 33 33 32 33 34 33 33 33 35 34 33 34 33 32 31 30 30 29 29 28
25 25 24 24 25 25 25 25 25 26 25 25 25 24 25 25 26 27 28 29 30 31 32 33 33 33 33 33 33 33 35 36 34 35 33 32 31 30 30 29 29 29 28

GFSGL_sfc_temp_099.txt.gz
Temp
49 50 50 50 50 50 50 50 51 53 54 54 55 57 58 59 60 60 60 60 59 59 59 59 59 59 58 58 58 56 54 53 50 46 47 47 47 48 47 47 48 47 48
49 48 48 49 49 49 49 49 50 50 52 52 53 54 55 56 58 59 59 59 59 58 58 58 58 57 57 57 56 54 53 51 50 46 45 45 46 47 46 45 45 46 45
47 46 45 45 46 46 46 47 48 47 48 49 49 50 51 52 52 54 56 58 59 59 59 58 59 57 57 57 56 55 55 52 52 47 44 45 44 46 44 45 43 42 44
44 43 42 42 43 44 45 45 45 45 45 45 46 47 48 48 49 50 51 52 54 55 57 58 58 57 57 56 55 55 54 52 51 49 44 43 43 43 44 42 41 41 40
41 41 41 41 42 42 42 42 43 43 43 43 43 43 44 46 48 48 48 49 50 52 53 53 54 54 52 56 55 55 53 51 49 47 43 42 41 41 43 41 41 39 39
39 39 40 39 39 39 39 39 40 40 41 42 42 42 42 45 48 49 49 46 47 49 50 51 52 49 50 51 52 52 53 51 48 47 43 44 42 41 41 40 38 37 36
37 38 38 38 37 37 37 37 36 36 37 37 39 40 41 42 47 48 48 47 44 45 46 47 48 48 48 49 50 50 50 51 53 50 45 44 42 42 41 36 36 35 36
36 36 37 37 36 36 35 35 34 35 35 35 36 38 38 42 46 46 47 44 44 43 42 43 45 45 45 46 46 45 47 48 48 48 49 46 46 44 44 41 39 35 35
35 35 36 36 35 35 34 33 33 33 33 34 36 36 36 37 44 46 45 42 41 41 43 43 44 45 47 48 44 42 42 42 46 47 47 46 46 46 44 40 36 36 33
34 34 35 35 34 33 32 32 32 32 34 34 34 34 37 35 41 45 45 43 42 43 44 42 44 44 46 47 44 42 40 40 39 39 41 43 45 45 45 43 38 37 33
34 34 33 33 32 32 31 31 30 29 30 30 31 31 32 35 35 43 44 43 41 41 42 42 42 45 46 46 47 42 42 39 40 37 37 35 38 38 39 36 38 38 33
32 32 32 32 33 34 29 28 28 28 27 28 28 30 33 32 38 40 42 42 43 40 40 42 43 44 44 45 46 44 45 41 36 34 34 34 35 35 35 32 33 32 34
30 30 30 32 33 33 31 29 29 28 27 28 30 29 31 32 32 39 40 41 41 40 41 42 43 44 44 44 45 45 44 36 35 34 34 34 33 31 30 29 29 30 29
27 27 28 27 31 32 32 32 30 29 26 30 29 29 29 32 31 31 35 38 39 39 40 39 41 42 43 43 43 44 40 36 36 35 34 32 30 27 26 27 28 26 25
27 28 28 29 29 30 31 30 31 30 29 28 30 30 33 31 35 39 38 36 36 38 38 36 36 36 37 37 38 39 38 36 35 35 33 31 30 29 29 27 25 24 22
28 28 28 30 29 30 30 30 36 37 39 39 39 36 35 38 40 40 39 39 39 39 35 34 35 35 35 36 36 37 36 36 35 33 33 32 31 30 28 27 25 24 23
26 28 29 30 29 28 28 27 26 32 37 37 38 37 38 37 38 39 39 38 38 38 32 33 33 34 35 36 36 36 35 36 34 32 32 31 30 30 31 28 27 26 23
26 31 28 27 27 28 28 28 28 27 27 29 36 36 36 37 37 38 38 38 33 34 32 32 32 33 35 35 34 35 34 32 32 32 32 31 30 29 28 27 27 26 25
27 27 28 29 29 31 30 29 29 30 30 30 29 32 34 35 36 37 38 31 30 31 31 31 32 33 33 35 34 33 33 33 33 32 32 31 30 30 29 28 27 30 28
27 31 31 30 29 27 27 29 29 29 29 29 27 28 29 30 28 28 29 28 30 31 32 31 31 32 33 34 34 33 32 33 33 32 32 31 31 31 29 28 28 28 27
26 26 30 28 26 26 26 27 28 29 29 29 29 30 34 31 29 29 29 29 29 30 30 31 31 32 33 33 34 33 32 33 33 33 32 31 30 29 30 29 29 29 29
26 26 27 27 28 28 27 27 27 28 29 29 29 30 34 31 28 27 28 28 29 29 29 30 31 32 32 33 33 33 32 32 32 32 32 31 30 30 29 29 28 28 28
26 26 28 28 28 29 26 26 28 28 28 28 28 28 28 27 27 28 28 29 29 28 29 32 31 32 33 33 33 33 32 33 33 33 32 31 30 29 29 28 27 27 27
24 25 26 26 26 27 25 25 26 28 27 27 26 26 25 26 26 26 27 27 29 30 31 31 32 32 32 32 33 34 33 34 33 33 33 32 30 31 29 28 28 27 28
21 25 25 25 24 23 24 25 25 26 26 26 26 26 25 25 25 26 26 25 27 29 30 31 31 32 32 32 32 33 33 34 33 33 33 33 32 30 30 29 28 28 28
25 25 24 24 23 22 23 22 23 23 23 24 23 23 23 24 25 25 26 27 27 29 30 31 31 31 32 32 33 33 35 35 34 35 33 32 31 30 30 29 28 28 28

GFSGL_sfc_temp_102.txt.gz
Temp
48 49 48 48 48 48 48 48 49 50 51 51 52 53 54 55 56 58 59 59 59 59 59 59 59 60 59 59 58 58 57 57 54 47 48 48 49 50 49 49 50 49 52
47 47 47 47 47 47 46 47 48 47 49 49 50 50 51 52 53 54 54 56 58 58 58 58 58 59 58 59 58 57 56 56 52 46 46 46 47 49 48 48 47 47 47
45 45 45 44 44 44 45 45 46 46 46 46 46 46 47 48 49 50 51 51 53 54 57 58 58 58 57 57 57 56 55 53 52 47 44 45 45 47 46 46 45 44 44
43 43 41 40 41 42 42 43 44 44 43 43 44 44 44 45 47 47 48 48 49 50 52 53 55 56 57 57 57 56 55 53 52 49 45 45 44 45 46 44 42 42 41
41 40 38 40 40 40 40 39 40 40 40 41 41 41 43 44 46 45 46 46 46 47 49 50 52 51 49 52 55 56 55 54 52 50 44 42 43 43 44 44 43 42 42
36 37 38 38 38 36 37 38 38 38 37 38 39 39 39 43 46 47 47 44 45 45 45 47 48 48 50 51 51 51 53 53 51 50 47 45 44 45 45 43 39 38 37
35 36 36 35 35 35 35 34 34 33 34 34 35 36 37 38 45 46 47 45 43 43 42 43 44 47 47 48 49 50 50 51 52 52 50 49 46 46 45 41 38 38 38
34 34 35 35 34 34 34 33 32 32 32 32 33 34 35 38 43 44 45 42 42 42 40 41 43 44 45 46 46 45 47 49 50 50 52 52 50 47 46 46 43 39 34
33 33 33 33 32 32 32 31 31 31 31 31 33 33 32 33 41 43 42 38 40 42 45 42 41 42 46 47 45 43 44 45 46 48 49 48 47 48 46 42 38 38 33
31 32 32 32 31 29 29 28 29 30 30 31 31 31 34 32 38 42 41 38 36 39 42 44 46 44 46 47 44 43 42 42 41 41 43 45 47 46 45 46 40 38 33
31 31 31 30 29 29 28 29 28 30 30 28 29 29 30 31 32 40 42 37 35 36 38 40 42 45 45 45 46 44 43 43 42 38 38 39 40 42 42 40 42 41 34
30 30 29 29 30 32 27 26 26 25 25 27 27 28 29 30 36 38 41 41 40 38 37 39 41 42 43 44 44 45 46 44 38 36 36 36 37 38 36 35 35 33 34
27 27 27 28 30 30 27 28 28 28 25 26 29 28 29 31 31 37 40 40 41 38 38 39 40 41 42 42 44 44 45 38 36 35 35 36 35 36 33 31 31 32 31
25 25 26 26 28 27 29 30 28 27 26 29 29 28 27 29 30 32 32 37 38 38 38 37 39 40 41 41 41 42 42 37 36 36 36 34 32 33 32 31 30 31 30
25 26 26 27 25 26 28 28 30 29 29 31 31 31 31 29 31 37 38 36 36 37 37 35 34 35 33 36 37 38 39 37 36 35 33 32 32 32 31 30 31 30 29
26 27 27 28 26 27 27 27 34 35 37 37 38 37 36 38 38 38 39 40 39 39 34 31 31 33 33 34 35 35 37 37 36 34 33 33 32 31 30 29 29 31 28
25 26 28 28 27 26 28 28 27 32 36 36 37 38 39 37 36 38 39 39 39 38 31 31 31 31 32 33 34 34 34 35 34 34 33 32 31 31 30 28 29 29 27
25 29 26 26 26 28 29 29 29 28 27 29 35 36 37 38 37 37 38 38 31 33 31 30 30 30 31 32 32 34 34 34 33 32 32 32 31 30 29 28 28 28 27
26 26 28 30 29 29 28 27 28 28 28 29 29 32 34 35 36 37 37 30 28 29 30 30 31 30 29 31 32 33 33 32 32 32 32 32 31 31 29 29 28 30 28
25 29 30 29 28 28 27 27 27 27 27 28 29 29 30 29 27 28 30 28 28 28 29 29 30 29 27 30 32 33 33 33 32 32 32 32 31 31 30 29 29 28 28
25 26 30 26 27 28 28 27 27 26 26 27 28 30 34 30 29 29 28 28 28 28 28 29 26 26 25 30 31 32 32 33 32 32 32 32 31 30 30 30 29 29 27
28 26 26 26 28 28 27 27 26 26 26 26 28 29 33 30 28 27 28 28 28 28 28 28 27 27 26 26 30 31 31 32 32 32 32 32 31 31 30 29 29 29 28
25 25 25 25 27 28 26 26 25 25 26 26 27 27 27 26 26 26 27 27 28 27 28 29 29 30 27 28 32 32 31 31 33 32 32 31 30 30 30 29 29 28 28
26 25 26 26 26 26 24 23 24 25 25 25 26 26 26 26 25 25 26 26 27 26 27 28 30 29 30 31 32 32 32 33 33 32 32 31 30 31 29 29 28 28 28
22 24 25 24 23 23 22 22 23 23 23 23 24 24 24 24 24 24 25 26 26 26 27 28 29 30 30 30 31 32 32 34 33 32 32 32 31 30 29 29 28 28 28
20 21 22 23 22 22 22 22 22 22 20 20 21 21 21 21 22 23 23 24 25 25 25 26 28 29 31 31 31 32 34 35 34 34 32 32 31 30 30 29 28 28 27

GFSGL_sfc_temp_105.txt.gz
Temp
47 46 47 47 48 47 46 46 47 48 48 49 50 50 51 51 52 52 54 54 55 58 59 59 59 60 59 60 60 61 59 58 55 57 52 51 52 53 52 55 54 55 56
45 46 45 46 47 46 46 47 47 47 49 49 50 50 50 50 51 50 51 52 51 52 52 56 58 58 58 59 59 58 58 59 57 56 48 47 49 52 51 50 50 51 52
47 45 44 45 45 44 45 46 47 47 47 47 47 47 48 47 48 49 49 49 50 51 50 51 52 53 56 58 58 57 58 57 57 53 45 47 46 49 48 48 48 47 48
45 44 43 43 43 44 44 44 44 45 44 45 45 45 45 46 47 47 48 48 48 49 50 51 51 52 52 52 54 57 57 55 53 51 47 46 45 46 48 46 43 45 44
42 42 41 42 43 41 42 42 42 42 43 43 43 43 44 45 46 46 47 46 46 46 48 49 50 49 47 50 51 51 53 54 53 50 46 44 43 44 46 46 45 44 42
40 39 40 40 40 40 40 39 40 40 40 40 40 40 41 43 44 46 46 45 45 44 43 45 47 47 49 49 49 50 50 50 52 51 49 47 47 48 47 45 43 40 39
38 39 38 38 38 38 38 38 38 37 38 38 38 39 39 40 43 44 45 44 43 43 43 43 44 46 46 47 48 48 49 50 50 51 51 50 50 49 47 44 44 45 45
37 37 37 37 37 37 37 36 37 37 37 37 37 38 38 40 42 43 44 42 41 41 42 44 45 45 46 46 46 46 47 49 50 50 51 53 54 52 51 49 48 45 37
35 35 36 36 35 35 35 34 35 35 35 35 36 36 36 37 40 41 42 40 39 39 41 43 44 46 47 47 45 43 44 46 48 48 48 49 50 50 51 46 41 39 34
35 35 35 35 34 33 34 33 34 34 34 34 34 35 36 36 38 40 41 41 38 39 40 41 43 44 45 46 43 42 40 42 46 46 46 47 48 48 48 48 43 41 35
34 34 34 34 33 32 32 32 31 31 32 31 33 34 34 36 37 39 40 40 39 38 39 39 41 41 42 43 43 42 42 44 45 43 42 42 43 45 45 47 45 45 39
32 32 32 32 32 33 30 31 31 30 31 30 31 32 36 36 37 39 40 41 41 39 37 38 39 40 40 41 41 43 43 44 42 40 38 39 39 41 42 41 43 43 43
30 30 30 31 32 32 31 30 31 31 30 30 31 31 33 36 36 38 39 39 40 39 39 39 40 40 40 40 40 41 42 41 39 37 37 38 39 39 35 34 33 33 33
28 28 30 29 32 31 31 32 30 30 29 30 31 32 33 33 34 36 36 37 38 38 38 37 38 39 40 39 39 39 40 39 38 38 37 37 33 34 34 33 33 33 32
28 29 29 30 28 29 30 30 31 32 32 32 32 33 32 32 35 38 38 37 38 38 38 36 35 34 34 35 36 37 37 36 36 37 35 33 33 34 33 33 32 33 32
28 29 28 30 29 29 29 30 34 36 37 37 37 36 35 37 39 39 39 39 39 40 36 32 32 33 32 33 33 34 34 35 35 36 35 34 33 33 33 32 33 33 31
27 27 29 29 28 28 29 29 28 32 34 35 36 37 37 37 38 38 39 39 39 38 32 32 32 32 32 32 32 33 32 34 34 35 33 33 33 32 32 31 32 32 31
27 29 28 27 27 29 28 29 28 27 26 28 34 35 36 37 37 37 38 38 33 34 32 31 31 32 32 32 32 31 33 33 33 33 32 32 32 32 31 30 31 31 30
27 27 28 28 29 30 30 29 29 28 28 27 29 32 35 36 36 36 36 33 30 30 31 31 31 31 32 32 31 31 31 32 33 32 32 32 32 32 31 31 31 32 30
27 28 30 29 29 27 28 28 28 27 27 27 28 29 31 31 30 31 32 31 30 30 31 30 30 31 31 30 30 31 31 32 32 33 32 32 32 32 31 31 31 32 31
27 27 30 28 28 27 28 27 27 27 26 26 27 30 33 31 28 29 30 30 30 30 29 29 29 30 30 29 29 31 31 31 32 32 32 32 32 32 32 31 31 32 30
27 28 27 27 27 27 27 28 26 26 25 25 27 28 31 29 28 28 28 29 30 30 30 29 29 29 29 29 30 29 30 30 32 32 32 33 32 32 31 31 31 31 29
26 26 26 26 27 28 26 26 25 25 25 25 25 26 26 26 27 27 27 28 28 28 28 28 27 28 30 31 30 29 30 31 32 32 31 32 32 32 31 31 31 29 29
27 25 25 25 26 26 24 24 24 25 25 25 24 24 24 25 24 25 26 26 26 27 28 28 28 28 29 30 32 32 32 32 32 32 32 32 32 32 31 31 31 30 29
24 22 22 23 22 22 22 23 24 24 24 24 23 23 23 23 23 23 24 25 25 25 26 26 27 27 28 29 30 31 32 32 32 32 32 32 31 31 31 31 30 30 29
21 21 21 20 21 21 21 21 22 22 22 22 22 22 22 21 22 22 22 22 22 23 24 25 25 25 26 27 30 32 33 34 33 34 33 32 31 31 31 30 29 29 29

GFSGL_sfc_temp_108.txt.gz
Temp
47 48 49 47 48 50 51 47 47 49 50 50 50 50 50 50 51 51 51 52 51 52 53 53 54 58 59 61 60 60 59 59 56 59 61 59 56 55 54 56 57 57 59
46 47 44 46 48 48 48 49 50 49 50 51 52 52 53 52 53 51 50 52 50 50 51 51 51 53 53 57 59 59 58 58 57 55 58 54 53 56 56 54 54 55 57
50 50 49 49 49 48 47 49 50 50 50 51 52 51 51 52 52 53 52 52 51 51 51 50 51 51 51 52 51 51 56 58 58 57 57 49 50 50 49 50 50 50 52
49 48 47 46 46 47 48 48 48 49 48 49 49 49 49 50 50 50 50 51 51 50 50 50 51 50 50 50 50 50 52 51 55 55 51 46 47 47 49 47 45 46 47
47 47 45 47 48 48 47 47 47 48 48 48 47 48 48 49 49 46 48 49 49 49 50 50 49 47 46 48 49 50 51 49 49 51 47 45 45 45 46 47 47 46 43
48 46 47 47 46 46 45 44 45 44 45 46 46 45 44 47 45 45 45 46 48 47 47 48 49 47 49 47 48 48 48 47 48 47 49 49 49 50 49 46 46 41 39
46 46 45 45 45 44 45 45 45 44 45 44 45 45 45 46 44 44 44 46 46 45 44 45 46 49 47 49 48 47 47 48 49 49 47 48 51 51 49 46 46 46 47
45 44 44 44 43 44 43 43 43 43 42 42 42 43 43 44 43 43 43 45 45 44 44 45 45 46 47 47 47 46 46 47 48 50 50 51 52 54 51 50 49 47 41
43 43 43 42 41 41 41 40 41 40 40 40 41 41 40 42 42 41 42 43 43 43 45 46 45 45 45 44 43 42 43 44 48 48 48 48 48 49 50 50 45 41 35
41 41 41 41 40 39 39 38 39 39 38 39 39 40 40 40 41 41 42 43 42 43 45 45 44 44 42 42 41 41 39 41 44 45 47 48 49 50 48 50 47 43 42
40 40 40 40 39 39 39 38 38 38 38 38 39 40 42 43 43 41 41 42 42 41 42 42 44 42 41 41 41 39 38 42 42 44 44 45 46 46 47 48 49 46 42
38 38 38 39 38 39 38 38 39 38 38 38 39 39 42 43 41 41 40 40 41 40 40 42 42 41 41 41 41 41 41 41 41 41 40 41 41 41 42 45 46 45 48
37 37 38 38 38 39 38 38 38 38 37 36 36 37 38 41 42 41 41 41 40 40 42 41 41 41 41 41 41 41 40 39 39 39 36 38 41 42 38 34 33 34 33
35 36 37 37 37 38 38 37 36 36 35 34 35 34 36 37 39 41 41 42 41 41 41 41 40 40 40 40 40 41 40 39 36 34 35 37 40 35 34 34 34 35 34
34 35 35 35 36 35 35 35 35 36 36 34 34 35 33 33 37 39 39 39 40 40 39 40 38 38 37 37 38 38 39 38 37 35 34 34 36 35 34 34 34 34 34
33 35 34 34 35 34 34 35 37 36 37 36 36 36 36 37 38 38 38 38 39 39 37 35 34 36 35 35 35 35 36 36 37 34 33 33 34 34 34 33 33 34 34
32 32 33 33 33 33 33 32 30 34 35 36 36 36 36 36 37 37 37 38 38 38 34 34 34 35 34 35 35 34 33 35 34 33 32 33 33 33 33 32 32 32 33
32 32 32 32 32 32 32 32 31 29 29 31 36 35 35 36 36 37 37 37 34 36 35 33 32 34 34 34 34 33 34 34 33 32 32 33 32 32 32 32 32 32 32
32 32 32 32 32 32 32 31 31 31 30 30 32 34 36 35 35 36 37 34 32 32 33 32 33 33 33 33 33 32 32 32 33 32 32 32 32 32 32 33 33 34 33
32 30 31 32 32 31 31 30 30 30 29 30 30 30 32 32 31 32 33 33 33 32 32 32 32 32 32 31 31 32 31 32 32 32 32 32 32 32 32 33 33 33 32
31 31 32 32 30 30 30 28 29 29 28 29 29 31 32 29 29 30 31 31 31 31 31 31 30 31 31 31 31 31 31 31 31 32 32 32 32 32 33 33 32 33 32
31 31 30 29 30 29 29 30 29 28 28 28 29 30 31 29 28 28 29 30 31 31 31 30 29 29 28 28 29 30 30 30 31 32 32 32 31 32 33 33 32 33 31
30 30 30 30 30 30 29 29 28 28 27 28 28 28 28 28 27 27 27 29 29 28 29 29 28 28 29 29 31 31 30 30 32 32 31 31 31 32 33 32 32 31 31
30 29 28 28 28 28 27 26 27 27 28 27 28 27 27 27 27 27 27 27 27 28 29 29 29 28 29 29 30 31 32 33 33 32 32 31 31 32 33 32 32 31 31
29 27 26 25 25 25 25 25 26 26 27 27 26 26 27 27 26 26 26 26 26 26 26 27 28 28 28 27 28 28 29 31 32 32 32 32 31 32 32 31 31 31 30
26 25 24 24 24 25 24 24 24 25 25 25 25 26 26 25 26 26 26 25 25 25 26 27 27 26 26 27 28 29 31 33 33 34 33 32 32 32 32 31 31 31 30

GFSGL_sfc_temp_111.txt.gz
Temp
48 47 48 48 47 48 48 49 49 49 49 49 50 50 51 50 51 51 50 51 50 50 51 50 51 53 52 53 53 56 58 58 55 58 60 58 55 56 56 57 58 58 59
46 47 47 48 49 49 49 49 51 51 53 52 52 52 51 52 51 50 49 51 50 49 49 50 50 51 50 51 50 50 51 51 54 55 58 53 54 55 56 55 55 56 57
52 52 50 50 49 49 49 48 49 49 50 51 51 50 50 51 51 51 51 51 51 51 51 50 50 51 49 47 48 49 49 51 50 49 54 53 54 51 51 52 53 54 54
51 50 49 49 49 48 48 48 48 49 49 49 49 49 49 50 51 48 48 49 49 50 50 50 50 48 46 46 47 47 49 47 49 48 49 49 48 47 49 48 46 47 50
50 49 48 48 49 48 47 47 47 47 47 47 48 48 48 48 49 45 45 46 47 47 48 49 49 47 46 47 46 45 45 44 45 46 46 46 45 45 46 47 48 46 45
50 49 49 48 48 47 47 47 47 46 46 46 46 46 45 47 47 45 45 44 45 45 45 45 46 46 48 48 49 48 47 44 43 43 44 45 48 47 47 46 45 41 40
48 48 47 47 46 46 46 46 45 45 45 44 44 44 43 45 46 45 44 43 43 44 43 43 44 47 45 46 47 47 47 48 48 45 42 45 46 49 50 45 45 43 45
47 47 46 45 44 44 44 43 43 43 42 42 42 42 42 43 44 43 43 42 42 43 43 43 43 44 44 43 42 41 42 44 45 46 45 45 46 47 46 46 48 48 42
45 45 44 44 42 42 41 41 41 40 40 40 41 41 40 41 43 42 41 41 41 42 45 46 45 44 45 43 40 38 39 40 45 45 45 46 47 48 48 46 43 43 41
43 42 43 43 41 40 40 39 40 40 39 40 39 40 42 41 44 43 42 41 40 42 44 45 45 44 43 43 40 38 36 37 38 39 40 42 45 46 48 47 44 42 43
41 41 41 41 40 40 39 39 38 38 39 38 39 41 42 43 43 43 42 41 40 39 40 41 43 44 43 42 42 39 38 41 40 39 37 38 41 42 44 45 45 43 42
40 39 39 40 40 40 39 39 39 39 39 39 39 39 41 43 43 43 43 42 42 39 38 41 42 42 42 42 41 42 42 41 38 36 35 36 37 38 40 42 43 43 45
39 38 39 39 39 40 39 38 37 38 37 36 36 36 37 39 40 41 42 42 42 40 40 41 41 42 42 41 41 41 41 37 35 34 33 34 35 36 37 38 39 36 36
37 37 38 37 38 38 38 38 36 35 35 34 34 34 34 35 36 38 39 38 40 40 40 39 40 40 41 41 40 39 38 36 35 33 33 34 36 35 34 37 36 38 35
37 37 37 37 37 37 37 37 36 37 36 34 33 33 32 32 35 38 37 36 37 38 38 37 35 35 34 35 36 36 36 35 34 34 33 33 32 33 33 35 35 35 34
34 35 36 35 35 35 35 35 39 38 38 37 37 36 36 37 37 37 37 38 38 39 35 32 32 33 33 33 33 33 33 34 33 33 31 32 31 31 32 33 34 33 33
33 34 34 34 34 34 33 33 31 35 37 37 37 37 37 36 36 36 36 37 38 38 32 32 32 32 32 32 32 32 31 33 33 31 30 30 31 32 32 32 33 32 32
34 34 33 33 33 33 33 32 32 30 29 31 36 36 36 36 36 36 36 36 32 35 33 32 32 32 32 31 31 31 31 31 31 30 30 30 31 31 31 32 32 32 32
33 33 33 33 33 34 33 32 31 31 30 30 31 33 34 35 35 35 36 31 30 30 31 31 31 31 30 31 31 30 29 30 30 30 30 30 31 31 31 32 32 34 34
33 33 32 32 32 32 32 30 29 29 29 29 29 29 31 31 28 29 30 30 30 30 30 30 30 30 30 29 29 29 29 29 29 29 29 30 31 31 30 31 32 32 32
33 32 33 32 31 31 31 29 29 29 28 28 29 31 33 29 27 28 28 29 29 29 29 29 29 29 29 28 28 27 27 28 29 29 29 30 30 29 30 31 32 32 32
32 31 31 31 31 31 30 30 29 29 29 28 28 30 32 29 28 28 28 28 29 29 29 28 27 27 27 27 27 26 25 26 28 29 29 30 29 30 30 31 32 31 32
31 31 30 30 30 30 30 29 29 28 27 28 28 28 28 28 28 27 27 28 28 28 28 28 27 27 28 28 28 28 26 26 27 29 29 29 29 30 30 30 31 31 30
31 30 29 29 28 28 28 27 27 27 27 27 27 27 27 27 27 27 27 27 27 26 27 27 27 26 26 27 28 28 28 28 29 28 28 29 29 30 30 31 31 31 29
30 29 28 26 26 26 26 26 26 26 27 26 26 26 26 26 26 26 26 26 26 26 25 26 26 26 25 25 26 26 27 30 28 28 29 30 30 30 30 31 31 30 30
29 27 26 25 24 25 25 25 24 25 24 24 24 25 25 25 25 26 26 26 26 26 26 26 26 26 26 26 26 27 30 31 31 33 31 31 30 31 31 30 30 29 29

GFSGL_sfc_temp_114.txt.gz
Temp
46 46 47 46 47 47 46 47 47 48 48 48 49 49 49 49 50 49 49 49 49 49 49 49 50 51 50 50 49 50 50 50 48 51 55 58 57 58 57 59 58 58 58
46 47 46 47 48 47 47 46 48 47 48 47 46 46 48 48 48 48 47 48 48 47 47 47 47 50 48 47 47 47 48 49 48 46 50 52 55 57 57 56 57 57 57
48 47 47 46 43 42 44 46 46 46 46 46 45 45 45 45 46 46 46 45 45 47 47 47 47 46 44 44 45 44 46 47 47 46 46 49 52 51 52 53 53 55 55
44 43 42 42 42 41 42 42 42 42 42 42 43 45 45 46 46 44 44 43 44 45 45 45 45 45 44 43 44 43 45 43 43 44 45 46 47 48 49 48 49 48 51
43 42 40 41 41 40 40 41 43 43 43 43 43 43 43 44 47 43 42 41 41 42 43 45 44 44 45 46 45 43 43 41 40 40 41 43 45 46 46 47 47 49 46
42 41 42 41 40 39 39 38 39 38 38 39 38 38 37 43 45 46 44 40 40 40 40 41 42 43 44 46 47 45 44 40 40 39 39 39 42 44 46 45 46 42 41
41 41 41 40 39 38 38 37 36 35 35 35 35 36 36 36 44 45 44 39 38 37 38 38 40 44 41 40 42 42 42 44 44 40 38 39 39 42 43 41 42 42 44
40 40 40 39 37 37 36 35 34 34 33 33 33 34 34 38 43 43 43 37 36 36 37 37 37 37 39 41 37 36 37 38 40 41 37 37 39 42 42 43 42 43 44
41 39 39 38 36 35 33 32 32 32 31 32 34 33 33 34 42 43 41 35 35 35 39 39 39 38 43 44 37 34 35 36 42 43 43 44 44 44 44 41 37 37 38
38 38 39 38 37 35 34 33 33 34 34 35 35 35 37 36 41 44 42 38 35 36 37 38 42 42 45 44 38 34 32 33 35 36 37 38 39 38 43 40 38 36 36
37 36 36 35 34 34 34 34 34 33 34 33 33 34 35 37 36 43 43 38 36 35 35 35 37 42 43 43 43 38 35 39 37 32 32 33 35 35 36 38 36 37 36
35 34 33 33 35 36 31 31 32 32 31 32 32 32 35 35 40 40 41 42 41 37 35 36 35 41 42 42 41 42 42 41 32 30 29 30 30 31 32 35 37 35 38
32 31 31 32 33 33 30 29 29 30 29 30 30 29 31 34 33 38 39 40 40 36 37 38 40 40 41 40 40 41 42 31 29 28 29 28 28 29 31 32 35 37 38
29 29 29 29 31 31 31 32 29 28 27 29 29 29 28 30 31 32 34 34 37 36 37 34 37 38 39 39 38 36 33 31 29 29 30 30 29 27 29 32 32 33 33
29 29 29 30 29 29 31 30 31 30 30 29 30 30 30 28 31 36 36 35 35 36 37 34 30 30 30 31 32 31 31 29 29 29 29 29 30 30 30 33 33 32 31
28 29 29 29 28 28 28 29 37 38 39 38 38 36 35 37 38 37 37 37 38 38 34 30 30 29 28 29 29 28 28 30 29 29 29 27 27 27 28 30 31 32 30
27 28 29 30 28 27 27 27 27 32 37 37 37 37 37 37 37 36 36 36 37 36 29 28 28 29 30 30 29 27 27 28 27 25 27 26 26 27 29 28 30 31 31
27 33 28 27 26 26 27 27 27 27 27 27 33 35 36 36 36 36 35 35 28 30 29 28 28 29 29 27 26 26 27 26 23 26 24 24 27 27 26 27 29 29 31
27 27 27 26 26 28 27 27 27 28 27 27 28 31 33 34 35 34 34 27 26 26 28 27 28 27 27 27 27 27 27 27 27 27 27 27 27 26 26 27 29 32 32
26 32 32 27 26 26 27 26 28 28 26 26 26 27 28 29 27 26 27 27 26 26 27 27 27 27 26 26 27 27 26 26 25 24 25 26 27 27 27 27 28 28 30
26 27 32 28 25 25 24 25 27 26 26 26 26 28 33 29 26 26 26 27 26 26 26 26 25 25 25 25 25 24 24 23 23 23 24 26 26 26 28 28 29 29 30
26 26 26 24 26 25 25 26 26 26 26 25 26 27 31 27 26 26 26 27 27 27 27 26 25 24 24 24 24 24 23 23 23 24 24 25 26 27 28 28 29 29 31
22 22 24 24 25 28 24 25 26 27 26 25 25 26 26 25 25 25 26 27 27 27 27 27 25 24 25 25 26 25 24 24 25 25 24 25 25 25 27 28 28 28 30
21 23 25 24 24 22 21 22 26 27 26 25 24 25 24 24 24 25 26 26 26 26 27 26 26 25 25 25 25 25 26 26 26 26 26 24 24 26 27 28 29 29 30
22 27 22 19 19 19 19 22 25 24 24 24 24 24 23 24 24 24 25 25 26 26 26 27 26 26 25 24 24 25 26 29 28 28 27 25 25 25 27 28 29 30 29
28 20 17 16 16 18 18 22 24 23 22 23 23 22 22 23 23 24 25 25 26 27 27 27 27 27 26 26 25 26 29 31 30 32 30 29 28 28 29 29 30 27 27

GFSGL_sfc_temp_117.txt.gz
Temp
46 46 47 46 46 46 46 46 43 44 46 46 46 46 46 47 46 46 46 47 47 47 46 47 47 48 48 46 47 48 47 47 45 48 50 52 53 53 55 58 60 60 62
45 43 43 43 45 45 45 45 46 46 47 47 46 44 44 43 42 41 41 43 42 42 45 45 45 47 45 44 44 45 45 46 44 42 47 48 49 52 53 53 56 58 58
42 40 39 39 38 38 38 38 39 39 40 41 42 41 41 41 41 41 40 41 40 41 43 43 43 43 42 42 42 42 43 45 43 42 42 45 47 50 49 51 51 52 54
42 40 38 37 37 37 37 38 38 38 38 38 38 39 39 40 42 41 40 39 39 40 42 43 43 41 41 40 43 42 43 41 41 40 40 41 43 46 47 47 46 49 50
40 39 38 38 38 37 37 36 37 37 36 37 37 37 37 40 43 40 40 40 40 40 41 41 41 42 44 45 43 39 39 37 38 38 37 38 39 40 40 42 42 43 46
41 40 40 39 38 37 36 35 35 34 34 34 34 34 34 40 43 44 42 37 37 37 37 39 40 42 43 45 44 43 41 37 35 34 35 34 35 37 39 38 39 38 38
40 40 39 39 38 37 37 36 34 32 32 31 31 32 32 33 43 44 44 36 35 35 35 36 37 42 40 39 41 41 41 42 42 36 33 33 34 36 36 35 36 36 38
39 39 38 37 35 35 34 32 32 33 33 33 32 32 32 35 42 43 44 35 34 34 34 35 34 35 37 39 37 35 35 36 37 39 35 35 36 38 38 37 36 36 38
38 37 37 36 34 33 31 30 31 30 30 31 33 34 34 35 41 43 42 35 34 33 36 36 37 37 41 44 37 33 33 34 41 42 43 43 43 43 42 37 34 32 33
36 36 35 34 33 31 30 29 30 30 31 31 32 32 36 33 40 43 42 37 35 36 37 38 40 40 42 43 38 35 31 32 32 33 33 35 37 36 40 35 34 32 32
35 35 34 33 31 31 30 29 29 28 29 28 30 30 31 34 33 41 41 37 35 35 35 35 36 40 41 42 42 38 34 36 37 32 30 30 31 32 33 33 34 32 31
33 33 31 30 32 34 28 28 28 27 27 26 27 28 30 31 37 37 39 39 39 35 33 34 34 39 40 41 40 41 41 41 33 30 28 28 28 29 29 29 30 31 32
31 30 29 30 30 30 27 27 27 27 26 26 28 27 27 30 29 36 37 38 38 36 36 37 39 39 39 38 39 40 40 31 29 28 27 28 28 29 29 26 29 31 32
28 27 28 27 28 28 29 30 27 26 25 28 28 27 26 28 28 29 31 32 35 34 34 32 35 38 38 37 35 34 32 30 28 27 27 28 29 23 26 26 27 30 31
27 28 28 28 26 26 28 27 29 28 28 28 29 31 29 29 32 37 36 34 35 36 35 32 29 28 28 29 30 31 31 28 27 27 27 28 29 29 29 27 27 28 28
28 28 28 28 26 27 26 26 34 36 37 37 37 36 35 37 38 38 37 37 37 37 33 28 27 27 29 28 27 28 28 29 27 27 25 24 25 26 25 26 27 26 25
27 27 28 30 27 25 26 25 24 29 35 36 36 36 36 36 37 36 36 36 36 34 26 26 26 26 27 28 28 27 26 27 27 23 17 19 23 24 25 24 24 26 26
26 33 27 26 25 25 25 25 25 25 25 26 32 34 35 35 35 35 36 34 27 28 26 25 25 26 26 26 26 25 26 25 21 21 20 19 20 23 23 23 24 24 24
27 26 26 25 25 27 26 25 25 25 25 25 26 30 32 33 34 34 34 27 25 25 26 25 26 26 26 26 25 24 23 24 24 22 18 15 21 22 24 24 25 29 30
26 32 31 26 26 26 25 25 25 24 23 24 25 26 27 28 27 27 27 26 26 26 26 25 25 25 24 23 23 23 23 24 22 20 20 20 22 23 24 25 25 25 26
26 27 32 28 25 24 23 23 24 24 24 25 25 28 32 28 26 25 26 26 26 26 26 26 25 25 24 23 22 22 22 22 22 21 20 21 22 23 24 25 26 26 27
26 26 26 24 25 24 25 24 23 24 25 24 25 27 30 26 25 25 25 26 27 27 27 26 25 25 25 24 23 22 22 22 22 22 22 22 23 23 23 24 24 25 27
25 24 25 23 25 27 24 24 23 23 23 24 24 24 25 24 24 24 24 25 26 26 27 26 26 25 26 25 25 24 23 23 24 24 23 23 23 23 22 22 23 25 26
24 24 24 23 24 22 20 20 21 24 25 24 23 23 23 23 23 23 24 24 25 25 27 27 26 26 26 26 26 25 25 25 25 25 24 23 23 24 23 24 24 25 26
24 23 23 24 20 19 18 19 21 22 22 23 23 23 22 22 22 22 23 24 25 25 26 27 28 27 26 26 26 26 26 28 27 27 26 25 24 23 23 24 25 26 27
24 23 24 21 17 17 17 17 19 20 20 22 23 21 21 21 21 22 23 24 25 26 26 28 29 29 29 29 28 27 30 31 30 32 30 28 27 27 26 26 26 27 28